[[{"header":{"parameterUnit":"m.s-1","parameterCategory":1,"la1":30.6,"la2":29.2853,"lo1":-89.7004,"lo2":-87.6739,"dy":0.0162,"dx":0.0183,"nx":112,"ny":82,"refTime":"2026-05-03T12:00:00:Z","depth":0,"parameterNumber":2,"parameterNumberName":"U-component_of_WINDS"},"data":[0.0,0.0,0.0,0.0,0.0,0.0,0.0,0.0,0.0,0.0,0.0,0.0,0.0,0.0,0.0,0.0,0.0,0.0,0.0,0.0,0.0,0.0,0.0,0.0,0.0,0.0,0.0,0.0,0.0,0.0,0.0,0.0,0.0,0.0,0.0,0.0,0.0,0.0,0.0,0.0,0.0,0.0,0.0,0.0,0.0,0.0,0.0,0.0,0.0,0.0,0.0,0.0,0.0,0.0,0.0,0.0,0.0,0.0,0.0,0.0,0.0,0.0,0.0,0.0,0.0,0.0,0.0,0.0,0.0,0.0,0.0,0.0,0.0,0.0,0.0,0.0,0.0,0.0,0.0,0.0,0.0,0.0,0.0,0.0,0.0,0.0,0.0,0.0,0.0,0.0,-1.5084,-1.7463,-2.0259,-2.1518,-2.0485,-2.0071,-1.8543,-1.5382,0.0,0.0,0.0,0.0,0.0,0.0,0.0,0.0,0.0,0.0,0.0,0.0,0.0,0.0,0.0,0.0,0.0,0.0,0.0,0.0,0.0,0.0,0.0,0.0,0.0,0.0,0.0,0.0,0.0,0.0,0.0,0.0,0.0,0.0,0.0,0.0,0.0,0.0,0.0,0.0,0.0,0.0,0.0,0.0,0.0,0.0,0.0,0.0,0.0,0.0,0.0,0.0,0.0,0.0,0.0,0.0,0.0,0.0,0.0,0.0,0.0,0.0,0.0,0.0,0.0,0.0,0.0,0.0,0.0,0.0,0.0,0.0,0.0,0.0,0.0,0.0,0.0,0.0,0.0,0.0,0.0,0.0,0.0,0.0,0.0,0.0,0.0,0.0,0.0,0.0,0.0,0.0,0.0,0.0,0.0,0.0,0.0,0.0,0.0,0.0,0.0,0.0,0.0,0.0,-1.5713,-1.8781,-2.062,-2.1203,-2.0089,-1.9823,-1.8407,-1.5305,0.0,0.0,0.0,0.0,0.0,0.0,0.0,0.0,0.0,0.0,0.0,0.0,0.0,0.0,0.0,0.0,0.0,0.0,0.0,0.0,0.0,0.0,0.0,0.0,0.0,0.0,0.0,0.0,0.0,0.0,0.0,0.0,0.0,0.0,0.0,0.0,0.0,0.0,0.0,0.0,0.0,0.0,0.0,0.0,0.0,0.0,0.0,0.0,0.0,0.0,0.0,0.0,0.0,0.0,0.0,0.0,0.0,0.0,0.0,0.0,0.0,0.0,0.0,0.0,0.0,0.0,0.0,0.0,0.0,0.0,0.0,0.0,0.0,0.0,0.0,0.0,0.0,0.0,0.0,0.0,0.0,0.0,0.0,0.0,0.0,0.0,0.0,0.0,0.0,0.0,0.0,0.0,0.0,0.0,0.0,0.0,0.0,0.0,0.0,0.0,0.0,0.0,0.0,-1.4572,-1.6819,-1.8768,-2.0138,-2.037,-1.91,-1.8731,-1.7263,-1.4213,-1.2645,0.0,0.0,0.0,0.0,0.0,0.0,0.0,0.0,0.0,0.0,0.0,0.0,0.0,0.0,0.0,0.0,0.0,0.0,0.0,0.0,0.0,0.0,0.0,0.0,0.0,0.0,0.0,0.0,0.0,0.0,0.0,0.0,0.0,0.0,0.0,0.0,0.0,0.0,0.0,0.0,0.0,0.0,0.0,0.0,0.0,0.0,0.0,0.0,0.0,0.0,0.0,0.0,0.0,0.0,0.0,0.0,0.0,0.0,0.0,0.0,0.0,0.0,0.0,0.0,0.0,0.0,0.0,0.0,0.0,0.0,0.0,0.0,0.0,0.0,0.0,0.0,0.0,0.0,0.0,0.0,0.0,0.0,0.0,0.0,0.0,0.0,0.0,0.0,0.0,0.0,0.0,0.0,0.0,0.0,0.0,0.0,0.0,0.0,0.0,0.0,0.0,0.0,-1.5719,-1.7327,-1.8278,-1.9386,-1.9526,-1.822,-1.7803,-1.6321,-1.3273,-1.1958,0.0,0.0,0.0,0.0,0.0,0.0,0.0,0.0,0.0,0.0,0.0,0.0,0.0,0.0,0.0,0.0,0.0,0.0,0.0,0.0,0.0,0.0,0.0,0.0,0.0,0.0,0.0,0.0,0.0,0.0,0.0,0.0,0.0,0.0,0.0,0.0,0.0,0.0,0.0,0.0,0.0,0.0,0.0,0.0,0.0,0.0,0.0,0.0,0.0,0.0,0.0,0.0,0.0,0.0,0.0,0.0,0.0,0.0,0.0,0.0,0.0,0.0,0.0,0.0,0.0,0.0,0.0,0.0,0.0,0.0,0.0,0.0,0.0,0.0,0.0,0.0,0.0,0.0,0.0,0.0,0.0,0.0,0.0,0.0,0.0,0.0,0.0,0.0,0.0,0.0,0.0,0.0,0.0,0.0,0.0,0.0,0.0,0.0,0.0,0.0,0.0,0.0,-1.4847,-1.6387,-1.7628,-1.8665,-1.8879,-1.7909,-1.7688,-1.6287,-1.3205,-1.1934,0.0,0.0,0.0,0.0,0.0,0.0,0.0,0.0,0.0,0.0,0.0,0.0,0.0,0.0,0.0,0.0,0.0,0.0,0.0,0.0,0.0,0.0,0.0,0.0,0.0,0.0,0.0,0.0,0.0,0.0,0.0,0.0,0.0,0.0,0.0,0.0,0.0,0.0,0.0,0.0,0.0,0.0,0.0,0.0,0.0,0.0,0.0,0.0,0.0,0.0,0.0,0.0,0.0,0.0,0.0,0.0,0.0,0.0,0.0,0.0,0.0,0.0,0.0,0.0,0.0,0.0,0.0,0.0,0.0,0.0,0.0,0.0,0.0,0.0,0.0,0.0,0.0,0.0,0.0,0.0,0.0,0.0,0.0,0.0,0.0,0.0,0.0,0.0,0.0,0.0,0.0,0.0,0.0,0.0,0.0,0.0,0.0,0.0,0.0,0.0,0.0,0.0,-1.4721,-1.6127,0.0,-1.8101,-1.8145,-1.6905,-1.6211,-1.4711,-1.2047,0.0,0.0,0.0,0.0,0.0,0.0,0.0,0.0,0.0,0.0,0.0,0.0,0.0,0.0,0.0,0.0,0.0,0.0,0.0,0.0,0.0,0.0,0.0,0.0,0.0,0.0,0.0,0.0,0.0,0.0,0.0,0.0,0.0,0.0,0.0,0.0,0.0,0.0,0.0,0.0,0.0,0.0,0.0,0.0,0.0,0.0,0.0,0.0,0.0,0.0,0.0,0.0,0.0,0.0,0.0,0.0,0.0,0.0,0.0,0.0,0.0,0.0,0.0,0.0,0.0,0.0,0.0,0.0,0.0,0.0,0.0,0.0,0.0,0.0,0.0,0.0,0.0,0.0,0.0,0.0,0.0,0.0,0.0,0.0,0.0,0.0,0.0,0.0,0.0,0.0,0.0,0.0,0.0,0.0,0.0,0.0,0.0,0.0,0.0,0.0,0.0,0.0,-1.2693,-1.4344,-1.5663,0.0,-1.7455,-1.7476,-1.6227,-1.5494,-1.3951,-1.1331,0.0,0.0,0.0,0.0,0.0,0.0,0.0,0.0,0.0,0.0,0.0,0.0,0.0,0.0,0.0,0.0,0.0,0.0,0.0,0.0,0.0,0.0,0.0,0.0,0.0,0.0,0.0,0.0,0.0,0.0,0.0,0.0,0.0,0.0,0.0,0.0,0.0,0.0,0.0,0.0,0.0,0.0,0.0,0.0,0.0,0.0,0.0,0.0,0.0,0.0,0.0,0.0,0.0,0.0,0.0,0.0,0.0,0.0,0.0,0.0,0.0,0.0,0.0,0.0,0.0,0.0,0.0,0.0,0.0,0.0,0.0,0.0,0.0,0.0,0.0,0.0,0.0,0.0,0.0,0.0,0.0,0.0,0.0,0.0,0.0,0.0,0.0,0.0,0.0,0.0,0.0,0.0,0.0,0.0,0.0,0.0,0.0,0.0,0.0,0.0,0.0,0.0,-1.2006,-1.3545,-1.4861,-1.579,-1.6731,-1.693,-1.6067,-1.5817,-1.4386,0.0,0.0,0.0,0.0,0.0,0.0,0.0,0.0,0.0,0.0,0.0,0.0,0.0,0.0,0.0,0.0,0.0,0.0,0.0,0.0,0.0,0.0,0.0,0.0,0.0,0.0,0.0,0.0,0.0,0.0,0.0,0.0,0.0,0.0,0.0,0.0,0.0,0.0,0.0,0.0,0.0,0.0,0.0,0.0,0.0,0.0,0.0,0.0,0.0,0.0,0.0,0.0,0.0,0.0,0.0,0.0,0.0,0.0,0.0,0.0,0.0,0.0,0.0,0.0,0.0,0.0,0.0,0.0,0.0,0.0,0.0,0.0,0.0,0.0,0.0,0.0,0.0,0.0,0.0,0.0,0.0,0.0,0.0,0.0,0.0,0.0,0.0,0.0,0.0,0.0,0.0,0.0,0.0,0.0,0.0,0.0,0.0,0.0,0.0,0.0,0.0,0.0,0.0,-1.1802,-1.3423,-1.4682,-1.5336,-1.6338,-1.6601,-1.5721,-1.5543,-1.4398,-1.1825,0.0,0.0,0.0,0.0,0.0,0.0,0.0,0.0,0.0,0.0,0.0,0.0,0.0,0.0,0.0,0.0,0.0,0.0,0.0,0.0,0.0,0.0,0.0,0.0,0.0,0.0,0.0,0.0,0.0,0.0,0.0,0.0,0.0,0.0,0.0,0.0,0.0,0.0,0.0,0.0,0.0,0.0,0.0,0.0,0.0,0.0,0.0,0.0,0.0,0.0,0.0,0.0,0.0,0.0,0.0,0.0,0.0,0.0,0.0,0.0,0.0,0.0,0.0,0.0,0.0,0.0,0.0,0.0,0.0,0.0,0.0,0.0,0.0,0.0,0.0,0.0,0.0,0.0,0.0,0.0,0.0,0.0,0.0,0.0,0.0,0.0,0.0,0.0,0.0,0.0,0.0,0.0,0.0,0.0,0.0,0.0,0.0,0.0,0.0,0.0,0.0,0.0,-1.1493,-1.3174,-1.4377,-1.4772,-1.5802,-1.6149,-1.5331,-1.543,-1.4476,-1.1948,0.0,0.0,0.0,0.0,0.0,0.0,0.0,0.0,0.0,0.0,0.0,0.0,0.0,0.0,0.0,0.0,0.0,0.0,0.0,0.0,0.0,0.0,0.0,0.0,0.0,0.0,0.0,0.0,0.0,0.0,0.0,0.0,0.0,0.0,0.0,0.0,0.0,0.0,0.0,0.0,0.0,0.0,0.0,0.0,0.0,0.0,0.0,0.0,0.0,0.0,0.0,0.0,0.0,0.0,0.0,0.0,0.0,0.0,0.0,0.0,0.0,0.0,0.0,0.0,0.0,0.0,0.0,0.0,0.0,0.0,0.0,0.0,0.0,0.0,0.0,0.0,0.0,0.0,0.0,0.0,0.0,0.0,0.0,0.0,0.0,0.0,0.0,0.0,0.0,0.0,0.0,0.0,0.0,0.0,0.0,0.0,0.0,0.0,0.0,0.0,0.0,0.0,-1.114,-1.2854,-1.4026,-1.4153,-1.5239,-1.5657,-1.4927,-1.5397,-1.4573,-1.1818,0.0,0.0,0.0,0.0,0.0,0.0,0.0,0.0,0.0,0.0,0.0,0.0,0.0,0.0,0.0,0.0,0.0,0.0,0.0,0.0,0.0,0.0,0.0,0.0,0.0,0.0,0.0,0.0,0.0,0.0,0.0,0.0,0.0,0.0,0.0,0.0,0.0,0.0,0.0,0.0,0.0,0.0,0.0,0.0,0.0,0.0,0.0,0.0,0.0,0.0,0.0,0.0,0.0,0.0,0.0,0.0,0.0,0.0,0.0,0.0,-0.9872,0.0,0.0,0.0,0.0,0.0,0.0,0.0,0.0,0.0,0.0,0.0,0.0,0.0,0.0,0.0,0.0,0.0,0.0,0.0,0.0,0.0,0.0,0.0,0.0,0.0,0.0,0.0,0.0,0.0,0.0,0.0,0.0,0.0,0.0,0.0,0.0,0.0,0.0,0.0,0.0,0.0,-1.0804,-1.2672,-1.3909,-1.3888,-1.4974,-1.5379,-1.4646,-1.5031,-1.4363,-1.2128,-1.0721,0.0,0.0,0.0,0.0,0.0,0.0,0.0,0.0,0.0,0.0,0.0,0.0,0.0,0.0,0.0,0.0,0.0,0.0,0.0,0.0,0.0,0.0,0.0,0.0,0.0,0.0,0.0,0.0,0.0,0.0,0.0,0.0,0.0,0.0,0.0,0.0,0.0,0.0,0.0,0.0,0.0,0.0,0.0,0.0,0.0,0.0,0.0,0.0,0.0,0.0,0.0,0.0,0.0,0.0,0.0,0.0,0.0,0.0,0.0,0.0,-1.0654,0.0,0.0,0.0,0.0,0.0,0.0,0.0,0.0,0.0,0.0,0.0,0.0,0.0,0.0,0.0,0.0,0.0,0.0,0.0,0.0,0.0,0.0,0.0,0.0,0.0,0.0,0.0,0.0,0.0,0.0,0.0,0.0,0.0,0.0,0.0,0.0,0.0,0.0,0.0,0.0,-1.0584,-1.2482,-1.3735,-1.3706,-1.4485,-1.4796,-1.4269,-1.4314,-1.3758,-1.2286,-1.1149,0.0,0.0,0.0,0.0,0.0,0.0,0.0,0.0,0.0,0.0,0.0,0.0,0.0,0.0,0.0,0.0,0.0,0.0,0.0,0.0,0.0,0.0,0.0,0.0,0.0,0.0,0.0,0.0,0.0,0.0,0.0,0.0,0.0,0.0,0.0,0.0,0.0,0.0,0.0,0.0,0.0,0.0,0.0,0.0,0.0,0.0,0.0,0.0,0.0,0.0,0.0,0.0,0.0,-1.2523,-1.268,-1.292,-1.2813,-1.3201,-1.3894,-1.2408,-1.1973,-1.2217,-1.0623,0.0,0.0,0.0,0.0,0.0,0.0,0.0,0.0,0.0,0.0,0.0,0.0,0.0,0.0,0.0,0.0,0.0,0.0,0.0,0.0,0.0,0.0,0.0,0.0,-1.1954,-1.1608,0.0,0.0,0.0,0.0,0.0,0.0,0.0,0.0,0.0,0.0,0.0,0.0,-1.069,-1.2437,-1.3593,-1.3593,-1.4075,-1.4228,-1.3786,-1.3569,-1.3107,-1.2279,-1.1542,-1.082,0.0,0.0,0.0,0.0,0.0,0.0,0.0,0.0,0.0,0.0,0.0,0.0,0.0,0.0,0.0,0.0,0.0,0.0,0.0,0.0,0.0,0.0,0.0,0.0,0.0,0.0,0.0,0.0,0.0,0.0,0.0,0.0,-0.6958,-0.7168,0.0,0.0,0.0,0.0,0.0,0.0,0.0,0.0,0.0,0.0,0.0,0.0,0.0,-1.1686,-1.202,-1.3293,-1.4041,-1.4185,-1.4185,-1.4928,-1.6233,-1.5604,-1.5367,-1.5494,-1.526,0.0,-1.3217,-1.1696,0.0,0.0,0.0,0.0,0.0,0.0,0.0,0.0,0.0,0.0,0.0,0.0,0.0,0.0,0.0,0.0,0.0,0.0,0.0,0.0,0.0,0.0,-1.3227,-1.3376,-1.3341,-1.3195,0.0,-1.2108,-1.1101,-1.0212,-0.9563,0.0,0.0,0.0,0.0,0.0,0.0,0.0,-1.1545,-1.2815,-1.3593,-1.3593,-1.4075,-1.4048,-1.3198,-1.3245,-1.2938,-1.2004,-1.1265,-1.0605,-1.0033,-0.8788,0.0,0.0,0.0,0.0,0.0,0.0,0.0,0.0,0.0,0.0,0.0,0.0,0.0,0.0,0.0,0.0,0.0,0.0,0.0,0.0,0.0,0.0,0.0,0.0,0.0,0.0,0.0,0.0,0.0,-0.6861,-0.7603,-0.8702,-0.8464,-0.7877,0.0,0.0,0.0,0.0,0.0,0.0,0.0,0.0,0.0,-1.059,-1.2087,-1.2889,-1.2889,-1.3605,-1.436,-1.5241,-1.5241,-1.5594,-1.6281,-1.5938,-1.5805,-1.5805,-1.5805,-1.542,-1.4684,-1.3151,-1.1644,-1.0306,0.0,0.0,0.0,0.0,-0.9839,-1.0283,-1.0283,-1.0283,0.0,-1.1267,0.0,0.0,0.0,0.0,0.0,0.0,0.0,0.0,0.0,0.0,0.0,-1.4487,-1.4563,-1.4486,-1.4219,-1.3765,-1.2957,0.0,-1.0688,-0.9955,-0.9229,0.0,0.0,0.0,0.0,-1.0793,-1.1775,-1.3157,-1.3925,-1.3615,-1.3799,-1.367,-1.3004,-1.2752,-1.2506,-1.2204,-1.1773,-1.143,-1.1191,-0.9878,-0.8767,0.0,0.0,0.0,0.0,0.0,0.0,0.0,0.0,0.0,0.0,0.0,0.0,0.0,0.0,0.0,0.0,0.0,0.0,0.0,0.0,0.0,0.0,0.0,0.0,0.0,0.0,0.0,0.0,-0.7601,-0.8644,-1.072,-1.0311,-0.9213,0.0,0.0,0.0,0.0,0.0,0.0,-1.0123,-1.1233,-1.1876,-1.1876,-1.3314,-1.4093,-1.4093,-1.4093,-1.4667,-1.5805,-1.5805,-1.5805,-1.5805,-1.5805,-1.5805,-1.5805,-1.5805,-1.5805,-1.5711,-1.4564,-1.3211,-1.1876,-1.1876,-1.2114,-1.2394,-1.2,-1.1876,-1.1876,-1.1876,-1.1876,-1.2029,-1.3143,0.0,-1.3228,-1.1756,0.0,0.0,0.0,0.0,-1.3664,-1.3214,-1.3953,-1.4897,-1.5147,-1.5342,-1.5389,-1.5031,-1.4767,-1.4161,0.0,-1.1752,-1.1013,-1.0484,0.0,0.0,0.0,0.0,-1.1578,-1.2289,-1.3508,-1.4093,-1.3568,-1.3543,-1.33,-1.2712,-1.2307,-1.2168,-1.2347,-1.2162,-1.1976,-1.1794,-1.0663,-0.9652,-0.8839,0.0,0.0,0.0,0.0,0.0,0.0,0.0,0.0,0.0,0.0,0.0,0.0,0.0,0.0,0.0,0.0,0.0,0.0,0.0,0.0,0.0,0.0,0.0,0.0,0.0,0.0,0.0,0.0,0.0,-1.304,-1.268,0.0,0.0,0.0,0.0,-1.1078,-1.1181,-1.1808,-1.3202,-1.3357,-1.3399,-1.3399,-1.4881,-1.5685,-1.5685,-1.5685,-1.572,-1.5805,-1.5805,-1.5805,-1.5805,-1.5805,-1.5805,-1.5805,-1.5805,-1.5805,-1.5797,-1.572,-1.4786,-1.3399,-1.3399,-1.3399,-1.3429,-1.3391,-1.3399,-1.3399,-1.3399,-1.3399,-1.3408,-1.3485,-1.3511,-1.3228,-1.1756,-1.2218,0.0,0.0,-1.2927,-1.357,-1.3432,-1.4196,-1.5044,-1.5182,-1.5468,-1.5676,-1.5656,-1.4951,-1.4122,0.0,-1.2839,-1.2329,-1.1802,0.0,-1.1164,-1.1787,-1.2012,-1.2513,-1.3563,-1.3882,-1.3846,-1.3374,-1.338,-1.3014,-1.2042,-1.2046,-1.212,-1.221,-1.2031,-1.1616,-1.0994,-1.0572,-0.9818,-0.8645,-0.7899,0.0,0.0,0.0,0.0,0.0,0.0,0.0,0.0,0.0,0.0,0.0,0.0,0.0,0.0,0.0,0.0,0.0,0.0,0.0,0.0,0.0,0.0,0.0,0.0,0.0,0.0,0.0,0.0,-1.2657,-1.298,0.0,-1.131,-1.0754,-1.1096,-1.2595,-1.2714,-1.2946,-1.3476,-1.3511,-1.3964,-1.4949,-1.5514,-1.5805,-1.5805,-1.5805,-1.6285,-1.7205,-1.7205,-1.7205,-1.7205,-1.7205,-1.7205,-1.7145,-1.6216,-1.5805,-1.5805,-1.5805,-1.548,-1.4983,-1.4983,-1.4983,-1.4983,-1.4983,-1.4983,-1.4983,-1.4983,-1.4983,-1.4821,-1.3827,-1.3511,-1.3408,-1.2877,-1.3776,-1.4726,-1.3468,-1.3737,-1.4303,-1.3732,-1.4364,-1.5157,-1.531,-1.5577,-1.5743,-1.5449,-1.5134,-1.4771,-1.4361,-1.3484,-1.2725,-1.2537,-1.2152,-1.1974,-1.2225,-1.2616,-1.3076,-1.3553,-1.3993,-1.3972,-1.3251,-1.3234,-1.2903,-1.1978,-1.2016,-1.212,-1.221,-1.1969,-1.173,-1.149,-1.0705,-1.0044,-0.9578,-0.8563,-0.7772,0.0,0.0,0.0,0.0,0.0,0.0,0.0,0.0,0.0,0.0,0.0,0.0,0.0,0.0,0.0,0.0,0.0,0.0,0.0,0.0,0.0,0.0,0.0,0.0,0.0,0.0,-1.2196,-1.2906,-1.3519,-1.3708,-1.3211,-1.2743,-1.2966,-1.4187,-1.4281,-1.4281,-1.4281,-1.4281,-1.4983,-1.6507,-1.6559,-1.6559,-1.6559,-1.6559,-1.7017,-1.8,-1.8,-1.8,-1.8,-1.8,-1.8,-1.794,-1.6987,-1.6559,-1.6559,-1.6559,-1.6559,-1.6507,-1.6002,-1.5805,-1.5805,-1.5805,-1.5805,-1.5805,-1.5805,-1.5805,-1.5634,-1.4615,-1.4281,-1.4281,-1.4281,-1.4872,-1.5326,-1.4298,-1.4426,-1.4683,-1.407,-1.4478,-1.5083,-1.5088,-1.5342,-1.5477,-1.5154,-1.4977,-1.4873,-1.473,-1.3947,-1.3323,-1.3369,-1.302,-1.2764,-1.2865,-1.3205,-1.3529,-1.3643,-1.4026,-1.401,-1.3302,-1.3188,-1.2879,-1.2159,-1.2107,-1.2095,-1.2095,-1.1844,-1.1576,-1.1305,-1.0731,-1.0188,-0.9744,-0.8815,-0.8237,-0.8027,0.0,0.0,0.0,0.0,0.0,0.0,0.0,0.0,0.0,0.0,0.0,0.0,0.0,0.0,0.0,0.0,0.0,0.0,0.0,0.0,0.0,0.0,0.0,-1.1353,-1.234,-1.3352,-1.4067,-1.4504,-1.4777,-1.4726,-1.4718,-1.5018,-1.5745,-1.5805,-1.5822,-1.5874,-1.5874,-1.6533,-1.7948,-1.8,-1.8,-1.8,-1.8,-1.8,-1.8,-1.8,-1.8,-1.8,-1.8,-1.8,-1.8,-1.7951,-1.7959,-1.7959,-1.791,-1.7919,-1.7774,-1.6402,-1.584,-1.5805,-1.5805,-1.5805,-1.5805,-1.5805,-1.5805,-1.5805,-1.5805,-1.5805,-1.5805,-1.5805,-1.5446,-1.501,-1.501,-1.4881,-1.4639,-1.438,-1.4564,-1.4727,-1.4549,-1.4686,-1.4893,-1.4893,-1.4581,-1.4355,-1.4467,-1.4288,-1.4159,-1.4264,-1.3896,-1.3644,-1.3763,-1.3787,0.0,-1.3962,-1.3997,-1.3863,-1.3528,-1.3259,-1.2931,-1.253,-1.2252,-1.2041,-1.1918,-1.1647,-1.1129,-1.0356,-1.0621,-1.0232,-0.9042,-0.8623,-0.8521,-0.8718,0.0,0.0,0.0,0.0,0.0,0.0,0.0,0.0,0.0,0.0,0.0,0.0,0.0,0.0,0.0,0.0,0.0,0.0,0.0,0.0,0.0,-1.2151,-1.3455,-1.2528,-1.3656,-1.4786,-1.5274,-1.5908,-1.6096,-1.5548,-1.5497,-1.5583,-1.5788,-1.5805,-1.6276,-1.7325,-1.7385,-1.7572,-1.7983,-1.8,-1.8,-1.8,-1.8,-1.8,-1.8,-1.8,-1.8,-1.8,-1.8,-1.8,-1.7959,-1.7343,-1.7066,-1.7017,-1.6368,-1.6121,-1.6206,-1.7065,-1.6718,-1.5805,-1.5805,-1.5805,-1.5805,-1.5805,-1.5805,-1.5805,-1.5805,-1.5805,-1.5805,-1.5805,-1.5703,-1.5583,-1.5583,-1.5334,-1.4983,-1.4681,-1.4617,-1.4644,-1.4599,-1.4599,-1.4627,-1.4627,-1.4505,-1.4489,-1.4626,-1.4524,-1.4282,-1.3987,-1.375,-1.361,-1.3644,-1.3644,0.0,-1.3716,-1.3716,-1.3619,-1.3383,-1.3119,-1.2828,-1.253,-1.2252,-1.2041,-1.1918,-1.1414,-1.1041,-1.0827,-1.0568,-1.0178,-0.9591,-0.9131,-0.8985,0.0,0.0,0.0,0.0,0.0,0.0,0.0,0.0,0.0,0.0,0.0,0.0,0.0,0.0,0.0,0.0,0.0,0.0,0.0,0.0,0.0,0.0,-1.4555,-1.5326,-1.447,-1.4992,-1.566,-1.6208,-1.6653,-1.671,-1.631,-1.6268,-1.6396,-1.6713,-1.6701,-1.7086,-1.7948,-1.8,-1.8,-1.8,-1.8,-1.8,-1.8,-1.8,-1.8,-1.8,-1.8,-1.8,-1.8,-1.8,-1.8,0.0,-1.6689,-1.6162,-1.6121,-1.559,-1.5389,0.0,0.0,0.0,0.0,0.0,-1.5675,-1.5292,-1.5292,-1.5292,-1.5292,-1.5292,-1.5292,-1.5363,-1.5691,-1.5805,-1.5805,-1.5805,-1.5634,-1.5377,-1.5,-1.49,-1.4769,-1.4477,-1.4347,-1.4287,-1.4118,-1.4082,-1.4142,-1.43,-1.4225,0.0,-1.3844,-1.3755,-1.3679,-1.3546,-1.3515,-1.3539,-1.3586,-1.3597,-1.3611,-1.3591,-1.3312,-1.3019,-1.2762,-1.2456,0.0,0.0,0.0,-1.0936,-1.096,-1.0526,0.0,0.0,0.0,0.0,0.0,0.0,0.0,0.0,-0.9439,-0.9625,0.0,0.0,0.0,0.0,0.0,0.0,0.0,0.0,0.0,0.0,0.0,0.0,0.0,0.0,0.0,0.0,-1.6405,-1.6778,-1.6636,-1.6251,-1.6233,-1.6901,-1.7021,-1.7009,-1.7009,-1.7009,-1.7282,-1.7948,-1.8,-1.8,-1.8,0.0,0.0,0.0,0.0,-1.8,-1.8,-1.8,-1.8,-1.8,-1.7919,-1.7838,-1.7838,-1.7838,-1.7789,-1.7635,-1.6079,-1.5389,-1.5389,-1.5389,-1.5389,-1.5431,-1.5839,-1.6004,-1.6004,-1.6004,-1.5442,-1.4697,-1.4697,0.0,0.0,-1.4588,-1.4569,-1.4748,-1.5505,-1.5804,-1.5838,-1.5778,-1.5796,-1.5771,-1.5377,-1.5215,-1.5052,-1.4375,-1.4161,-1.3999,-1.3648,-1.3536,-1.3541,-1.3731,-1.3706,-1.366,-1.3731,-1.3817,-1.3761,-1.3488,-1.3425,-1.3467,-1.3597,-1.3604,-1.3692,-1.3939,0.0,0.0,-1.3147,-1.2773,-1.2316,-1.1774,-1.1187,-1.0902,-1.0961,-1.066,-1.0737,-1.1302,-1.089,-1.0775,-1.0938,-1.0938,-1.1077,-1.1288,-1.0806,-1.073,0.0,0.0,0.0,0.0,0.0,0.0,0.0,0.0,0.0,0.0,0.0,0.0,0.0,0.0,0.0,-1.5394,-1.6251,-1.6721,-1.7081,-1.7179,-1.7239,-1.7385,-1.7629,-1.7786,-1.7786,-1.7786,-1.7846,-1.7991,-1.8,-1.8,-1.8,-1.8,-1.8,-1.8,-1.8,-1.8,-1.8,-1.8,-1.8,-1.7991,0.0,0.0,-1.6935,-1.6935,-1.6574,-1.588,-1.5548,-1.5389,-1.5389,-1.5389,-1.5389,-1.5431,-1.5514,-1.5555,-1.5555,-1.5555,-1.5393,-1.5253,-1.5253,-1.5253,-1.5115,-1.4416,-1.4389,-1.4677,-1.5169,-1.5674,0.0,-1.5606,-1.5815,-1.6103,-1.578,-1.5454,-1.5172,-1.5035,-1.4538,-1.4076,-1.3999,-1.3733,-1.3511,-1.3541,-1.3768,-1.3827,-1.3516,-1.3571,-1.3666,-1.3722,-1.3635,-1.3621,-1.3746,-1.3679,-1.3668,-1.3821,-1.3482,-1.3277,-1.3346,-1.3031,-1.2561,-1.1973,-1.1529,-1.1307,-1.1384,-1.1482,-1.1441,-1.1297,-1.1211,-1.1377,-1.1849,-1.1849,-1.2277,-1.3078,-1.1744,-1.1483,0.0,0.0,0.0,0.0,0.0,0.0,0.0,0.0,0.0,0.0,0.0,-0.9761,-1.0763,0.0,-1.3825,-1.5339,-1.6316,-1.7013,-1.7368,-1.7586,-1.7709,-1.763,-1.7751,-1.787,-1.7991,-1.8,-1.7829,-1.7383,-1.7749,-1.8,-1.8,-1.8,-1.8,-1.8,-1.8,-1.8,-1.8,-1.8,-1.8,-1.7991,-1.7098,-1.6451,-1.6038,-1.6038,-1.5797,-1.5389,-1.5389,-1.5389,-1.5389,-1.5389,-1.5389,-1.5389,-1.5389,-1.5389,-1.5389,-1.5389,-1.5389,-1.5389,-1.5389,-1.5389,-1.5321,-1.4907,-1.4767,-1.4897,-1.5298,-1.5855,-1.6233,-1.5855,-1.6024,-1.6259,-1.5899,-1.5651,-1.5463,-1.5266,-1.4795,-1.4341,-1.4136,-1.3785,-1.3511,-1.3511,-1.364,-1.37,-1.3478,-1.352,-1.3566,-1.3587,-1.3482,-1.3461,-1.3588,-1.3475,-1.3491,-1.3692,-1.3577,-1.3461,-1.3363,-1.2765,-1.225,-1.1874,-1.1566,-1.1459,-1.1586,-1.1727,-1.1768,-1.1698,-1.1962,-1.2226,-1.2498,-1.2739,-1.3119,-1.359,-1.2878,-1.2878,0.0,0.0,0.0,0.0,0.0,0.0,0.0,-0.708,-0.7582,-0.8725,-0.9507,-1.0271,-1.1166,-1.2712,-1.4177,-1.5241,-1.6358,-1.7171,-1.7367,-1.7618,-1.7726,-1.7557,-1.76,-1.7659,-1.7749,-1.7757,-1.7465,-1.6738,-1.7424,-1.7919,-1.8,-1.8,-1.7959,-1.7878,-1.7708,-1.7627,-1.7627,-1.7627,-1.7627,-1.7635,-1.6935,-1.6162,-1.5389,-1.5389,-1.5389,-1.5389,-1.5389,-1.5389,-1.5389,-1.5389,-1.5389,-1.5389,-1.5389,-1.5389,-1.5389,-1.5389,-1.5389,-1.5389,-1.5389,-1.5389,-1.5416,-1.5433,-1.5292,-1.5187,-1.5582,-1.6089,-1.6411,-1.6121,-1.6252,-1.6398,-1.5917,-1.5805,-1.572,-1.5403,-1.5,-1.4598,-1.4281,-1.3845,-1.3511,-1.3511,-1.3511,-1.3511,-1.3511,-1.3511,-1.3483,-1.3496,-1.3299,-1.3216,-1.3346,-1.3204,-1.3204,-1.342,-1.3621,-1.364,-1.3387,-1.2573,-1.1994,-1.1819,-1.1692,-1.1716,-1.1875,-1.2046,-1.2212,-1.2383,-1.2808,-1.3084,-1.3187,-1.3578,-1.3788,-1.3891,-1.4027,-1.4219,-0.717,-0.7345,-0.7668,-0.7644,-0.7656,-0.7798,0.0,-0.8444,-0.8835,-0.9672,-1.0494,-1.1337,-1.2417,-1.3161,-1.4057,-1.5275,-1.596,-1.646,-1.6921,-1.6996,-1.7005,-1.7013,-1.7239,-1.727,-1.6894,-1.6853,-1.6812,-1.6697,-1.7188,-1.7635,-1.8,-1.8,-1.7838,-1.7473,-1.6697,-1.6294,-1.6294,-1.6294,-1.6294,-1.6294,-1.6211,-1.588,-1.5389,-1.5389,-1.5389,-1.5389,-1.5389,-1.5389,-1.5389,-1.5389,-1.5389,-1.5389,-1.5389,-1.5389,-1.5389,-1.5389,-1.5389,-1.5389,-1.5389,-1.5389,-1.5421,-1.5534,-1.5543,-1.5541,-1.5661,-1.6231,-1.6674,-1.5964,-1.6267,-1.6696,-1.5985,-1.5805,-1.5788,-1.5745,-1.5197,-1.4675,-1.4632,-1.4033,-1.3511,-1.3511,-1.3511,-1.3511,-1.3511,-1.3511,-1.3575,-1.3737,-1.3323,-1.3068,-1.3204,-1.2953,-1.2798,-1.2876,-1.3334,-1.3624,-1.3572,-1.3037,-1.2528,-1.217,-1.2362,-1.247,-1.2491,-1.3023,-1.3351,-1.342,-1.3478,-1.3762,-1.4224,-1.427,-1.4522,-1.4936,-1.5071,-1.4874,-0.7922,-0.8205,-0.8608,-0.8608,-0.8848,-0.9107,-0.9277,-0.9395,-0.9674,-1.0413,-1.1125,-1.1887,-1.2798,-1.3608,-1.4421,-1.5412,-1.5925,-1.6382,-1.7005,-1.6746,-1.6398,-1.604,-1.6037,-1.6093,-1.6214,-1.6252,-1.6294,-1.6451,-1.6779,-1.7139,-1.7465,-1.7595,-1.7595,-1.7514,-1.682,-1.6211,-1.5714,-1.5673,-1.5673,-1.5673,-1.5673,-1.5597,-1.5389,-1.5389,-1.5389,-1.5389,-1.5389,-1.5389,-1.5389,-1.5389,-1.5389,-1.5431,-1.5541,-1.5575,-1.5582,-1.5423,-1.5389,-1.5389,-1.5389,-1.5389,-1.545,-1.5584,-1.5743,-1.5932,-1.6221,-1.6717,-1.7052,-1.643,-1.6564,-1.6747,-1.5994,-1.5805,-1.5805,-1.5805,-1.5232,-1.4684,-1.4684,-1.4067,-1.3511,-1.3511,-1.3511,-1.3511,-1.3511,-1.3511,-1.3541,-1.3601,-1.3386,-1.3161,-1.3004,-1.2834,-1.2836,-1.3007,-1.3218,-1.3372,-1.3372,-1.2952,-1.2605,-1.24,-1.2453,-1.2615,-1.2883,-1.3215,-1.3451,-1.3593,-1.3923,-1.4188,-1.4396,-1.4672,-1.4913,-1.5108,-1.5085,-1.5012,-0.8783,-0.9077,-0.9401,-0.9548,-0.9972,-1.0294,-1.0294,-1.0349,-1.0612,-1.1289,-1.1738,-1.2276,-1.3205,-1.3822,-1.4493,-1.5411,-1.5755,-1.6133,-1.6731,-1.6324,-1.5764,-1.5387,-1.5127,-1.5191,-1.5643,-1.5662,-1.5782,-1.6113,-1.6368,-1.6648,-1.6886,-1.7098,-1.7229,-1.7261,-1.6771,-1.6203,-1.5506,-1.5423,-1.5389,-1.5389,-1.5389,-1.5389,-1.5389,-1.5389,-1.5389,-1.5389,-1.5389,-1.5389,-1.5389,-1.5389,-1.5389,-1.5431,-1.5616,-1.5741,-1.5782,-1.5707,-1.5631,-1.5597,-1.5597,-1.5597,-1.5631,-1.5824,-1.6072,-1.6327,-1.6689,-1.7139,-1.7381,-1.6896,-1.6843,-1.6773,-1.6114,-1.5874,-1.5805,-1.5805,-1.5309,-1.4829,-1.4829,-1.4221,-1.3673,-1.3673,-1.3579,-1.3511,-1.3511,-1.3511,-1.3511,-1.3511,-1.3466,-1.3263,-1.2754,-1.2617,-1.2701,-1.3055,-1.3074,-1.3084,-1.3088,-1.2815,-1.2573,-1.2411,-1.254,-1.2805,-1.3224,-1.3516,-1.3775,-1.4006,-1.4396,-1.4591,-1.4591,-1.4936,-1.5108,-1.5108,-1.496,-1.4983,-0.983,-1.0066,-1.0206,-1.0708,-1.1099,-1.1352,-1.1268,-1.152,-1.1903,-1.2439,-1.2418,-1.2657,-1.386,-1.3777,-1.3927,-1.5203,-1.5317,-1.5416,-1.5861,-1.5544,-1.521,-1.5195,-1.4896,-1.4857,0.0,-1.5028,-1.5161,-1.567,-1.5955,-1.6203,-1.6394,-1.6607,-1.6648,-1.6435,-1.6245,-1.5997,-1.5692,-1.5506,-1.5389,-1.5389,-1.5389,-1.5389,-1.5389,-1.5389,-1.5389,-1.5389,-1.5389,-1.5389,-1.5389,-1.5389,-1.5389,-1.5431,-1.5616,-1.5865,-1.6128,-1.6319,-1.6245,-1.6087,-1.6087,-1.6087,-1.6128,-1.6312,-1.6525,-1.673,-1.7017,-1.7375,-1.7624,-1.7262,-1.7047,-1.6824,-1.6385,-1.6026,-1.5805,-1.5805,-1.5489,-1.5163,-1.5163,-1.4607,-1.4076,-1.4076,-1.3768,-1.3511,-1.3511,-1.3511,-1.3511,-1.3511,-1.3502,-1.322,-1.2511,-1.2139,-1.215,-1.2749,-1.2754,-1.274,-1.2812,-1.2745,-1.2522,-1.2144,-1.2781,-1.3305,-1.3575,-1.4214,-1.4709,-1.5039,-1.5073,-1.5085,-1.5085,-1.5096,-1.5108,-1.5108,-1.496,-1.4823,-1.0972,-1.1656,-1.2258,-1.2593,-1.3096,-1.3391,-1.3,-1.2886,-1.2807,-1.2676,-1.2891,-1.3227,-1.3636,-1.3998,-1.4447,-1.5057,-1.5048,-1.5135,-1.5504,-1.5238,-1.498,-1.4954,-1.4523,0.0,0.0,0.0,0.0,-1.567,-1.5782,-1.5955,-1.6203,-1.6286,-1.6286,-1.6203,-1.6167,-1.6007,-1.5692,-1.572,-1.56,-1.5389,-1.5389,-1.5498,-1.571,-1.571,-1.5862,-1.6038,-1.584,-1.571,-1.5738,-1.5629,-1.575,-1.6042,-1.6365,-1.68,-1.7227,-1.7201,-1.7289,-1.7298,-1.6694,-1.6492,-1.6533,-1.6763,-1.7017,-1.7229,-1.7416,-1.77,-1.7834,-1.7499,-1.7171,-1.6824,-1.6394,-1.6071,-1.5805,-1.5805,-1.5506,-1.5215,-1.5215,-1.4829,-1.441,-1.4144,-1.4053,-1.3973,-1.3752,-1.3761,-1.3821,-1.3821,-1.3296,-1.2841,-1.27,-1.2313,-1.2175,-1.2559,-1.2569,-1.2578,-1.2608,-1.2569,-1.2511,-1.2368,-1.2802,-1.3304,-1.3836,-1.4252,-1.4685,-1.5085,-1.5108,-1.5108,-1.5108,-1.5108,-1.5108,-1.5108,-1.4914,-1.4811,-1.2061,-1.2733,-1.3368,-1.3726,-1.4209,-1.4448,-1.3827,-1.3537,-1.3285,-1.2885,-1.288,-1.3047,-1.3382,-1.3738,-1.4136,-1.4576,-1.4714,-1.4889,-1.517,-1.5133,-1.5046,-1.5028,-1.4611,-1.4538,0.0,0.0,0.0,-1.556,-1.5686,-1.5844,-1.6019,-1.6124,-1.6227,-1.6227,-1.6258,-1.618,-1.5965,-1.5905,-1.571,-1.5389,-1.5506,-1.5673,-1.5921,-1.6023,-1.6184,-1.6404,-1.6162,-1.6074,-1.606,-1.6104,-1.6305,-1.6629,-1.7052,-1.7572,-1.8035,-1.7891,-1.8012,-1.8079,-1.7228,-1.6943,-1.6984,-1.7139,-1.7343,-1.7546,-1.7659,-1.7821,-1.7948,-1.774,-1.7406,-1.703,-1.6607,-1.6268,-1.5968,-1.5831,-1.5608,-1.542,-1.542,-1.5137,-1.4795,-1.4547,-1.4409,-1.4235,-1.4022,-1.3978,-1.401,-1.401,-1.3394,-1.2934,-1.2876,-1.2508,-1.2257,-1.2342,-1.2357,-1.2357,-1.2357,-1.2357,-1.2357,-1.2357,-1.2647,-1.3122,-1.3836,-1.4106,-1.4524,-1.5085,-1.5108,-1.5108,-1.5108,-1.5108,-1.5108,-1.5108,-1.4914,-1.4811,-1.3078,-1.3346,-1.3596,-1.4134,-1.4428,-1.4485,-1.3854,-1.3544,-1.3301,-1.3004,-1.2372,-1.214,-1.3098,-1.3056,-1.3115,-1.3823,-1.4253,-1.4582,-1.4856,-1.5185,-1.5396,-1.5411,-1.5126,-1.5061,-1.5403,0.0,0.0,-1.5433,0.0,-1.5943,-1.5943,-1.6213,-1.6411,-1.6411,-1.6426,-1.6426,-1.6411,-1.6082,-1.5782,-1.544,-1.5789,-1.595,-1.5972,-1.6265,-1.6448,-1.6463,-1.6448,-1.6441,-1.6441,-1.6742,-1.6963,-1.7226,-1.7664,-1.8159,-1.8568,-1.8423,-1.8481,-1.8521,-1.7745,-1.7449,-1.7432,-1.7432,-1.7546,-1.774,-1.774,-1.787,-1.8,-1.8,-1.7766,-1.7428,-1.7038,-1.669,-1.6295,-1.5908,-1.5814,-1.5805,-1.5805,-1.5506,-1.5206,-1.518,-1.4705,-1.4313,-1.4345,-1.4175,-1.404,-1.404,-1.3799,-1.349,-1.3076,-1.2743,-1.2413,-1.2149,-1.211,-1.2101,-1.2101,-1.2101,-1.2101,-1.2101,-1.2348,-1.2813,-1.3549,-1.3836,-1.4328,-1.5062,-1.5062,-1.5085,-1.5085,-1.5085,-1.5085,-1.5108,-1.496,-1.4834,-1.3976,-1.4238,-1.4518,-1.4859,-1.5133,-1.514,-1.4334,-1.3777,-1.3143,-1.216,-1.1617,-1.1391,-1.1636,-1.2157,-1.2695,-1.3161,-1.3948,-1.4582,-1.4856,-1.5185,-1.5476,-1.5717,-1.5462,-1.5484,-1.6074,-1.5928,0.0,0.0,-1.6206,-1.625,-1.625,-1.6367,-1.6411,-1.6411,-1.6646,-1.6661,-1.6419,-1.6338,-1.6213,-1.6133,-1.6213,-1.6382,-1.6661,-1.6741,-1.6857,-1.7069,-1.7017,-1.7011,-1.6989,-1.7238,-1.7585,-1.8034,-1.8362,-1.8917,-1.951,-1.923,-1.9092,-1.8965,-1.8455,-1.8108,-1.7838,-1.7838,-1.787,-1.791,-1.791,-1.7951,-1.8,-1.8,-1.7766,-1.7488,-1.7355,-1.6879,-1.6364,-1.6216,-1.5994,-1.5805,-1.5805,-1.572,-1.5566,-1.5274,-1.4844,-1.4613,-1.4853,-1.4611,-1.4357,-1.4357,-1.4325,-1.4078,-1.3508,-1.2986,-1.2626,-1.2551,-1.2275,-1.2101,-1.2101,-1.2101,-1.2101,-1.2101,-1.2348,-1.273,-1.329,-1.3552,-1.3988,-1.4558,-1.4685,-1.4754,-1.4789,-1.4892,-1.5006,-1.5108,-1.496,-1.5096,-1.4247,-1.4304,-1.4351,-1.4624,-1.479,-1.4706,-1.3893,-1.3208,-1.2455,-1.1457,-1.0785,-1.0509,-1.0829,-1.1409,-1.2081,-1.2674,-1.3423,-1.4125,-1.467,-1.5056,-1.5422,-1.5834,-1.587,-1.5979,-1.6382,-1.6345,-1.6396,0.0,-1.6631,-1.6631,-1.6631,-1.6711,-1.6784,-1.6784,-1.6967,-1.6908,-1.6631,-1.6631,-1.6558,-1.6411,-1.6558,-1.6719,-1.6903,-1.7004,-1.7157,-1.7318,0.0,-1.7491,-1.7606,-1.7922,-1.8404,-1.8888,-1.913,-1.957,-2.0022,-1.965,-1.9467,-1.9367,-1.8982,-1.8596,-1.8213,-1.8051,-1.8,-1.8,-1.8,-1.8,-1.8,-1.8,-1.7837,-1.768,-1.7548,-1.7196,-1.6793,-1.6422,-1.6182,-1.5994,-1.584,-1.5805,-1.5721,-1.5488,-1.5312,-1.5204,-1.5095,-1.4919,-1.4708,-1.4543,-1.4515,-1.4394,-1.403,-1.3542,-1.3157,-1.2983,-1.2606,-1.2358,-1.2358,-1.2202,-1.2101,-1.2101,-1.2298,-1.267,-1.3254,-1.3495,-1.3906,-1.4559,-1.4703,-1.4909,-1.5152,-1.5309,-1.5525,-1.575,-1.5667,-1.5803,-1.3972,-1.3785,-1.3581,-1.3701,-1.3689,-1.3479,-1.2843,-1.2123,-1.139,-1.0687,-0.9887,-0.9537,-1.0234,-1.0716,-1.1299,-1.2132,-1.2696,-1.3357,-1.4188,-1.4708,-1.5218,-1.5806,-1.6199,-1.6492,-1.6536,-1.68,-1.6961,-1.6961,-1.6961,-1.6961,-1.6961,-1.7179,-1.7279,-1.7279,-1.7279,-1.7194,-1.6969,-1.6961,-1.6822,-1.6499,-1.6829,-1.6961,-1.6969,-1.7248,-1.7333,-1.738,-1.7675,0.0,-1.8226,-1.8689,-1.9142,-1.9646,-1.9837,-2.0065,-2.0249,-1.9888,-1.9742,-1.9648,-1.9367,-1.8956,-1.8528,-1.817,-1.8034,-1.8,-1.8,-1.8,-1.8,-1.8,-1.8,-1.7923,-1.7629,-1.7548,-1.7342,-1.669,-1.6495,-1.6332,-1.5978,-1.5902,-1.5869,-1.5822,-1.5918,-1.5843,-1.5345,-1.5212,-1.5047,-1.4653,-1.4588,-1.457,-1.4515,-1.4148,-1.3782,-1.3406,-1.302,-1.2772,-1.2772,-1.2459,-1.2266,-1.2266,-1.2391,-1.2742,-1.3401,-1.3574,-1.3973,-1.47,-1.4851,-1.5164,-1.565,-1.588,-1.6196,-1.6598,-1.6598,-1.6633,-1.3255,-1.2923,-1.2602,-1.2379,-1.2135,-1.1776,-1.1146,-1.0482,-0.9827,-0.9267,-0.8765,-0.8551,-0.8967,-0.9663,-1.0382,-1.0842,-1.1701,-1.2508,-1.3158,-1.4026,-1.4873,-1.5657,-1.6355,-1.6917,-1.7135,-1.7216,0.0,0.0,-1.7245,-1.7245,-1.7245,-1.725,-1.7279,-1.7279,-1.7279,-1.7304,-1.7245,-1.7245,-1.7216,-1.7118,-1.7223,-1.7245,-1.7245,-1.7505,-1.7628,-1.7675,-1.8148,0.0,-1.8689,-1.9004,-1.9417,-1.9837,-1.9882,-2.0065,-2.0283,-2.0223,-2.0001,-1.9691,-1.9623,-1.9179,-1.8579,-1.8511,-1.8288,-1.8,-1.8,-1.8,-1.8,-1.8,-1.8,-1.7983,-1.7914,-1.7706,-1.7471,-1.7342,-1.692,-1.6555,-1.6486,-1.6332,-1.6254,-1.6409,-1.6208,-1.6023,-1.6096,-1.5817,-1.545,-1.5056,-1.5001,-1.4882,-1.4552,-1.4148,-1.3883,-1.3782,-1.3451,-1.3213,-1.3213,-1.3121,-1.3085,-1.3085,-1.3219,-1.3416,-1.3643,-1.3794,-1.3973,-1.4228,-1.445,-1.4835,-1.5371,-1.5687,-1.6106,-1.6598,-1.6598,-1.6853,-1.2929,-1.254,-1.2111,-1.1717,-1.1414,-1.1009,-1.0373,-0.9767,-0.9205,-0.8731,-0.8314,-0.8141,-0.8474,-0.9006,-0.9604,-1.0324,-1.0847,-1.1599,-1.2818,-1.3645,-1.4517,-1.5647,-1.6341,-1.6844,-1.725,-1.7192,-1.72,-1.7286,-1.7192,-1.72,-1.7279,-1.7279,-1.7279,-1.7279,-1.7279,-1.7279,-1.7279,-1.7279,-1.7279,-1.7279,-1.7279,-1.7279,-1.7333,-1.7574,-1.7768,-1.7947,-1.8419,0.0,-1.9234,-1.9463,-1.9791,-2.011,-2.011,-2.0201,-2.0292,-2.0292,-2.018,-2.0026,-2.0026,-1.953,-1.8888,-1.8888,-1.8502,-1.8,-1.8,-1.8,-1.8,-1.8,-1.8,-1.8,-1.8,-1.7903,-1.7715,-1.7557,-1.6968,-1.6403,-1.6213,-1.6103,-1.6035,-1.6026,-1.5974,-1.585,-1.5767,-1.5639,-1.548,-1.515,-1.5002,-1.4896,-1.4806,-1.446,-1.4203,-1.4203,-1.3846,-1.3598,-1.3598,-1.3415,-1.3296,-1.3296,-1.335,-1.3524,-1.3784,-1.3867,-1.4026,-1.4308,-1.4628,-1.5111,-1.5823,-1.6153,-1.6675,-1.7389,-1.7389,-1.7515,-1.2524,-1.2248,-1.1875,-1.1287,-1.0937,-1.0526,-0.9854,-0.9205,-0.8663,-0.8312,-0.7978,-0.7838,-0.8097,-0.8439,-0.8963,-0.9854,-1.0108,-1.0764,-1.2475,-1.3276,-1.4181,-1.549,-1.6069,-1.6522,-1.7016,-1.6918,0.0,-1.7044,-1.6918,0.0,-1.7239,-1.7286,-1.7279,-1.7239,-1.7279,-1.7279,-1.7239,-1.7279,-1.7279,-1.7279,-1.7279,-1.7279,-1.7333,-1.7574,-1.7815,-1.804,-1.8458,0.0,0.0,-1.9509,-1.9745,-1.9973,-2.0065,-2.011,-2.0155,-2.0201,-2.0246,-2.0292,-2.0246,-1.9766,-1.9152,-1.9067,-1.8573,-1.8,-1.8,-1.8,-1.8,-1.8,-1.8,-1.8,-1.8,-1.8,-1.792,-1.7575,-1.693,-1.63,-1.5891,-1.5726,-1.5611,-1.5355,-1.5444,-1.5449,-1.5136,-1.5266,-1.535,-1.5151,-1.5062,-1.5052,-1.5208,-1.4955,-1.4735,-1.4643,-1.4268,-1.402,-1.402,-1.3736,-1.3552,-1.3552,-1.3552,-1.369,-1.403,-1.402,-1.4176,-1.4476,-1.4832,-1.5391,-1.6226,-1.657,-1.72,-1.8002,-1.8057,-1.8084,-1.1838,-1.1855,-1.1796,-1.0879,-1.0332,-0.9817,-0.9141,-0.834,-0.7672,-0.7451,-0.7342,-0.7277,-0.7297,-0.7829,-0.8419,-0.8948,-0.9453,-1.0228,-1.1526,-1.2801,-1.3925,-1.4776,-1.5421,-1.5901,-1.6257,-1.6285,-1.6292,-1.6285,-1.6285,0.0,-1.6979,-1.72,-1.72,-1.7026,-1.7192,-1.7192,-1.7026,-1.7192,-1.7279,-1.7279,-1.7279,-1.7279,-1.7333,-1.7574,-1.7721,-1.7768,-1.804,0.0,0.0,-1.8635,-1.8727,-1.8966,-1.9188,-1.9463,-1.9691,-1.9882,-2.011,-2.0246,-2.0019,-1.9532,-1.8963,-1.8667,-1.8322,-1.8,-1.8,-1.8,-1.8,-1.8,-1.8,-1.8,-1.8,-1.8,-1.794,-1.76,-1.7145,-1.6661,-1.5961,-1.5515,-1.5125,-1.4752,-1.4708,-1.47,-1.4668,-1.4961,-1.5207,-1.518,-1.5424,-1.5608,-1.5647,-1.5606,-1.5441,-1.5084,-1.4689,-1.4451,-1.4451,-1.4423,-1.4405,-1.4405,-1.4405,-1.4414,-1.4451,-1.4451,-1.4469,-1.4515,-1.4832,-1.5313,-1.5931,-1.64,-1.6994,-1.7739,-1.7854,-1.7991,-1.1468,-1.1424,-1.1221,-1.0365,-0.9889,-0.9425,-0.8794,-0.8066,-0.7494,-0.7328,-0.7082,-0.6957,-0.7173,-0.7421,-0.7786,-0.8388,-0.8787,-0.9487,-1.08,-1.1927,-1.3061,-1.4183,-1.4663,-1.516,0.0,0.0,-1.5725,-1.5704,-1.5622,0.0,-1.6015,-1.6433,-1.6622,-1.6534,-1.6622,-1.6622,-1.6534,-1.677,-1.7005,-1.7279,-1.7279,-1.7279,-1.7279,-1.7426,-1.7481,-1.7481,-1.7567,0.0,0.0,-1.777,-1.7824,-1.7917,-1.8203,-1.8619,-1.9171,-1.9371,-1.9837,-2.0246,-1.9828,-1.9179,-1.8495,-1.8225,-1.7827,-1.7499,-1.7613,-1.7635,-1.7595,-1.7505,-1.7465,-1.7465,-1.7465,-1.7546,-1.7582,-1.7333,-1.6813,-1.62,-1.556,-1.4957,-1.4418,-1.4021,-1.3949,-1.3949,-1.3949,-1.4274,-1.4621,-1.4803,-1.4938,-1.5121,-1.5377,-1.528,-1.5206,-1.5118,-1.4978,-1.4772,-1.4533,-1.4515,-1.4515,-1.4515,-1.4515,-1.4515,-1.4515,-1.4515,-1.4515,-1.4515,-1.4704,-1.5069,-1.5613,-1.5989,-1.6616,-1.739,-1.7567,-1.7826,-1.0987,-1.097,-1.0845,-1.0155,-0.9785,-0.9378,-0.8751,-0.8016,-0.7403,-0.7203,-0.6855,-0.6684,-0.6986,-0.7124,-0.7421,-0.8099,-0.8516,-0.9164,-1.0296,-1.1341,-1.2392,-1.3477,-1.3861,-1.4329,-1.5016,-1.5065,-1.4999,-1.4937,-1.4813,0.0,-1.4956,-1.533,-1.5669,-1.5954,-1.5906,-1.5906,-1.5954,-1.6251,-1.6629,-1.7099,-1.7099,-1.7099,-1.7099,-1.6998,-1.6951,-1.6951,-1.6904,0.0,0.0,-1.6835,-1.6835,-1.6882,-1.7225,-1.7785,-1.838,-1.8773,-1.9279,-1.9791,-1.9325,-1.8607,-1.7879,-1.7651,-1.7299,-1.6997,-1.6933,-1.7056,-1.7131,-1.6886,-1.6755,-1.6714,-1.6796,-1.6927,-1.6968,-1.6763,-1.625,-1.5598,-1.4945,-1.4325,-1.3704,-1.3251,-1.3163,-1.3163,-1.3163,-1.3484,-1.3876,-1.4238,-1.4348,-1.4581,-1.4955,-1.5002,-1.5032,-1.5118,-1.523,-1.516,-1.4891,-1.4854,-1.4808,-1.4689,-1.4689,-1.4689,-1.4689,-1.4689,-1.4744,-1.4854,-1.4877,-1.5072,-1.5458,-1.5712,-1.6208,-1.695,-1.7234,-1.7684,-1.0232,-1.059,-1.0885,-1.034,-1.0027,-0.9705,-0.8957,-0.8069,-0.7295,-0.6887,-0.6528,-0.639,-0.6651,-0.6971,-0.7421,-0.8099,-0.8751,-0.942,-1.0016,-1.1193,-1.2144,-1.2571,-1.303,-1.3467,-1.3889,-1.411,-1.4149,-1.3932,0.0,0.0,-1.3902,-1.3902,-1.4382,-1.5391,-1.5194,-1.5194,-1.5391,-1.5683,-1.6069,-1.6636,-1.6636,-1.6636,-1.6588,-1.6339,-1.619,0.0,0.0,0.0,0.0,-1.5825,-1.5825,-1.5872,-1.6393,-1.6911,-1.7372,-1.7893,-1.8411,-1.8735,-1.8272,-1.7753,-1.7267,-1.6899,-1.679,-1.6666,-1.6016,-1.6225,-1.6617,-1.6214,-1.5918,-1.5786,-1.6049,-1.6098,-1.6047,-1.5862,-1.5505,-1.4966,-1.4115,-1.3606,-1.3106,-1.2432,-1.2305,-1.2305,-1.2305,-1.2636,-1.3039,-1.3462,-1.3781,-1.4142,-1.4565,-1.4966,-1.5196,-1.5215,-1.5503,-1.5704,-1.5675,-1.568,-1.5515,-1.512,-1.5093,-1.5093,-1.5093,-1.5093,-1.5276,-1.567,-1.542,-1.5401,-1.5607,-1.5674,-1.5912,-1.6312,-1.6803,-1.761,-0.9242,-0.9394,-0.945,-0.8963,-0.8699,-0.8492,-0.8082,-0.7367,-0.6747,-0.662,-0.6155,-0.5913,-0.6464,-0.6649,-0.6919,-0.7553,-0.8179,-0.8806,-0.9399,-1.057,-1.1592,-1.2114,-1.2705,-1.322,0.0,0.0,-1.336,-1.3613,0.0,0.0,-1.363,-1.3335,-1.3528,-1.4334,-1.4334,-1.4334,-1.4382,-1.4627,-1.5057,-1.5575,-1.5575,-1.5575,-1.5581,-1.5302,-1.5159,0.0,0.0,0.0,0.0,-1.4777,-1.4777,-1.4825,-1.5159,-1.5724,-1.6325,-1.6662,-1.7217,-1.7731,-1.7232,-1.6709,-1.621,-1.5933,-1.577,-1.5659,-1.5332,-1.5667,-1.601,-1.5335,-1.5061,-1.5103,-1.5519,-1.5602,-1.5621,-1.555,-1.5161,-1.4666,-1.4258,-1.361,-1.3016,-1.2694,-1.2445,-1.2305,-1.2305,-1.2526,-1.2783,-1.3039,-1.3295,-1.355,-1.3804,-1.4266,-1.4728,-1.5153,-1.5661,-1.589,-1.5711,-1.5689,-1.5634,-1.5515,-1.5505,-1.5505,-1.5505,-1.5505,-1.556,-1.5689,-1.5633,-1.5601,-1.5655,-1.5776,-1.6175,-1.687,-1.7703,-1.8528,-0.8381,-0.8445,-0.8398,-0.81,-0.7937,-0.7808,-0.7489,-0.6896,-0.6402,-0.6294,-0.5753,-0.5507,-0.6161,-0.627,-0.646,-0.7038,-0.7619,-0.8189,-0.8756,-0.9865,-1.096,-1.1846,-1.2421,0.0,0.0,-1.3095,-1.2981,-1.3227,0.0,0.0,-1.3201,-1.2958,-1.3001,-1.348,-1.3474,-1.3576,-1.3769,-1.3913,-1.425,-1.4819,-1.4819,-1.4819,-1.4771,-1.4634,-1.4544,0.0,0.0,0.0,0.0,-1.4298,-1.4298,-1.4346,-1.4592,-1.5016,-1.5575,-1.5812,-1.6237,-1.6702,-1.6292,-1.5866,-1.5527,-1.535,-1.5155,-1.4968,-1.4916,-1.5008,-1.4954,-1.4269,-1.4104,-1.4188,-1.465,-1.4768,-1.4776,-1.4901,-1.4642,-1.4351,-1.411,-1.362,-1.313,-1.2862,-1.2636,-1.2438,-1.2318,-1.2415,-1.2526,-1.2636,-1.2783,-1.29,-1.3046,-1.3593,-1.4238,-1.4903,-1.5586,-1.6034,-1.6151,-1.6147,-1.6083,-1.5936,-1.5927,-1.5927,-1.5927,-1.5927,-1.5991,-1.6147,-1.6001,-1.5927,-1.5927,-1.5965,-1.636,-1.7055,-1.8051,-1.8843,0.0,-0.7709,-0.7717,-0.7632,-0.7608,-0.7535,-0.7133,-0.6625,0.0,-0.5932,-0.54,-0.5162,-0.5773,-0.5894,-0.6073,-0.6605,-0.7165,-0.7691,-0.8178,-0.9238,-1.0467,-1.1782,-1.219,0.0,-1.2624,-1.2871,-1.297,0.0,0.0,0.0,-1.2813,-1.2813,-1.2813,-1.2813,-1.2813,-1.3055,-1.3491,-1.3491,-1.3727,-1.425,-1.425,-1.425,-1.425,-1.425,-1.425,0.0,0.0,0.0,0.0,-1.4298,-1.4298,-1.4346,-1.4592,-1.4838,-1.5083,-1.5248,-1.5486,-1.5683,-1.5391,-1.5207,-1.5035,-1.5035,-1.481,-1.4589,-1.4651,-1.425,-1.371,-1.3236,-1.3113,-1.3222,-1.361,-1.3695,-1.3779,-1.4039,-1.4088,-1.4015,-1.3693,-1.362,-1.344,-1.2958,-1.2811,-1.2697,-1.2378,-1.2318,-1.2305,-1.2305,-1.2305,-1.2305,-1.2305,-1.2973,-1.3775,-1.4466,-1.5294,-1.6053,-1.6795,-1.6874,-1.6752,-1.6386,-1.6325,-1.6325,-1.6325,-1.6325,-1.6532,-1.6899,-1.6517,-1.6325,-1.6325,-1.6276,-1.6498,-1.6955,-1.7907,-1.8615,-0.6382,0.0,-0.7182,-0.6797,-0.6809,-0.6877,0.0,-0.6145,-0.5744,-0.5689,-0.5228,-0.502,-0.5572,-0.5791,-0.6068,-0.6617,-0.7328,-0.7975,-0.8502,-0.982,-1.1166,-1.2282,-1.2199,-1.2252,-1.29,-1.2714,-1.2649,0.0,0.0,-1.2813,-1.2813,-1.2813,-1.2813,-1.2813,-1.2953,-1.3098,-1.3195,-1.3195,-1.3346,-1.3684,-1.3684,-1.3684,-1.3684,-1.3684,-1.3781,0.0,0.0,0.0,-1.4298,-1.4298,-1.4298,-1.4298,-1.4394,-1.4442,-1.449,-1.4538,-1.4586,-1.4627,-1.458,-1.4538,-1.449,-1.449,-1.4453,-1.4361,-1.4394,-1.403,-1.353,-1.3424,-1.3385,-1.3392,-1.3652,-1.3864,-1.3997,-1.4088,-1.4088,-1.4068,-1.4001,-1.376,-1.356,-1.342,-1.306,-1.2764,-1.269,-1.2452,-1.2305,-1.2305,-1.2305,-1.2305,-1.2305,-1.2863,-1.3477,-1.4078,-1.4867,-1.563,-1.6377,-1.6735,-1.6872,-1.6771,-1.6771,-1.6771,-1.6771,-1.6771,-1.6807,-1.6908,-1.6817,-1.6771,-1.6771,-1.6738,-1.6853,-1.7148,-1.7773,-1.8282,-0.589,-0.6223,-0.6509,-0.6153,-0.6231,-0.6335,-0.6119,-0.5766,-0.5464,-0.5464,-0.5164,-0.5049,-0.5556,-0.5819,-0.6106,-0.6629,-0.7346,-0.8137,-0.8985,-1.01,-1.1118,-1.1929,-1.2013,-1.222,0.0,-1.2649,-1.2624,0.0,0.0,-1.2861,-1.291,-1.2953,-1.3007,-1.3104,-1.3249,-1.3195,-1.3098,-1.3195,-1.3346,-1.3491,-1.3491,-1.3491,-1.3491,-1.3642,-1.3738,0.0,0.0,0.0,-1.4298,-1.4298,-1.4298,-1.4298,-1.4298,-1.4298,-1.4298,-1.4298,-1.4298,-1.4298,-1.4298,-1.4298,-1.4298,-1.4298,-1.4394,-1.4465,-1.4467,-1.4172,-1.3793,-1.3667,-1.361,-1.36,-1.3685,-1.3822,-1.3955,-1.4088,-1.4088,-1.4088,-1.4088,-1.3961,-1.3766,-1.3626,-1.338,-1.3105,-1.2831,-1.265,-1.2496,-1.2325,-1.2305,-1.2305,-1.2305,-1.2746,-1.3258,-1.3716,-1.4446,-1.524,-1.6017,-1.6412,-1.67,-1.6874,-1.6908,-1.6908,-1.6908,-1.6908,-1.6908,-1.6908,-1.6908,-1.6908,-1.6908,-1.6908,-1.7003,-1.7201,-1.7579,-1.7988,-0.5777,-0.5927,-0.6044,-0.5798,-0.5933,-0.6044,-0.5841,-0.5593,-0.5416,-0.5416,-0.522,-0.5182,-0.5663,-0.5922,-0.6221,-0.6736,-0.7508,-0.8452,-0.9534,-1.0266,-1.0839,-1.1354,-1.1806,0.0,-1.2441,-1.2646,0.0,0.0,0.0,-1.291,-1.3098,-1.3147,-1.3249,-1.3491,-1.3539,-1.3443,-1.3195,-1.3443,-1.3588,-1.363,-1.363,-1.363,-1.3636,-1.3883,-1.3979,-1.3973,0.0,0.0,-1.4298,-1.4298,-1.4298,-1.4298,-1.4298,-1.4298,-1.4298,-1.4298,-1.4298,-1.4298,-1.4298,-1.4298,-1.4298,-1.4346,-1.4496,-1.4736,-1.4783,-1.4608,-1.427,-1.4039,-1.3899,-1.3777,-1.3711,-1.3737,-1.3822,-1.4039,-1.4088,-1.4088,-1.4088,-1.4088,-1.4015,-1.372,-1.3633,-1.3427,-1.2951,-1.2857,-1.275,-1.2418,-1.2412,-1.2438,-1.2438,-1.2739,-1.3073,-1.3426,-1.408,-1.4848,-1.5621,-1.6053,-1.6456,-1.6874,-1.6908,-1.6908,-1.6908,-1.6908,-1.6908,-1.6908,-1.6908,-1.6908,-1.6908,-1.6908,-1.7003,-1.7166,-1.7323,-1.7666,-0.5922,-0.6264,-0.6495,-0.6055,-0.6275,-0.6543,-0.6336,-0.6089,-0.5889,-0.5889,-0.5561,-0.54,-0.5856,-0.617,-0.6557,-0.7175,-0.8447,-0.9513,-1.0105,-1.0616,-1.1182,-1.1905,0.0,-1.2267,-1.2716,-1.2791,0.0,0.0,0.0,-1.305,-1.3098,-1.3298,-1.3443,-1.3491,-1.3738,-1.3835,-1.3786,-1.3835,-1.3925,-1.4154,-1.4154,-1.4154,-1.4154,-1.4202,-1.425,-1.425,0.0,-1.4298,-1.4298,-1.4298,-1.4298,-1.4298,-1.4298,-1.4298,-1.4298,-1.4298,-1.4298,-1.4298,-1.4298,-1.4298,-1.4346,-1.4544,-1.4688,-1.4783,-1.5261,-1.5117,-1.4891,-1.4835,-1.4268,-1.3704,-1.3701,-1.387,-1.4039,-1.4088,-1.4088,-1.4088,-1.4088,-1.4088,-1.4075,-1.4028,-1.3773,-1.3493,-1.32,-1.314,-1.3033,-1.2764,-1.2899,-1.3073,-1.3073,-1.3031,-1.3051,-1.3316,-1.3859,-1.4489,-1.5232,-1.5815,-1.6342,-1.6874,-1.6908,-1.6908,-1.6908,-1.6908,-1.6908,-1.6908,-1.6908,-1.6908,-1.6908,-1.6908,-1.6908,-1.6943,-1.6978,-1.7151,-0.5809,-0.6066,-0.6307,-0.6245,-0.665,-0.7031,-0.6821,-0.6681,-0.6595,-0.6595,-0.632,-0.62,-0.6677,-0.6961,-0.751,-0.8576,-0.9335,-0.9927,-1.0412,-1.0885,-1.1354,0.0,0.0,-1.2429,-1.292,0.0,0.0,0.0,0.0,0.0,-1.3539,-1.3636,-1.3781,-1.3919,-1.4064,-1.4112,-1.4112,-1.4112,-1.416,-1.4298,-1.4298,-1.4298,-1.4298,-1.4298,-1.4298,-1.4298,0.0,-1.4298,-1.4298,-1.4298,-1.4298,-1.4298,-1.4298,-1.4298,-1.4298,-1.4298,-1.4298,-1.4298,-1.4298,-1.4394,-1.4544,-1.464,-1.4879,-1.5166,-1.5445,-1.5384,-1.5193,-1.5044,-1.4562,-1.4104,-1.3952,-1.3997,-1.4088,-1.4088,-1.4088,-1.4088,-1.4088,-1.4088,-1.4088,-1.4088,-1.3975,-1.3741,-1.3287,-1.33,-1.3287,-1.2857,-1.3013,-1.3213,-1.3213,-1.3158,-1.3081,-1.3026,-1.3755,-1.453,-1.5146,-1.5819,-1.6422,-1.6883,-1.6908,-1.6908,-1.6908,-1.6908,-1.6908,-1.6908,-1.6908,-1.6908,-1.6908,-1.6908,-1.6908,-1.6908,-1.7128,-1.7335,-0.5766,-0.5884,-0.6082,-0.6466,-0.6977,-0.7346,-0.7214,-0.7257,-0.7344,-0.729,-0.7112,-0.709,-0.7508,-0.7898,-0.8522,-0.9723,-0.9975,-1.0195,-1.0613,-1.1043,-1.1413,-1.1747,-1.2148,-1.2583,-1.3071,0.0,0.0,0.0,0.0,0.0,-1.3883,-1.3979,-1.407,-1.4298,-1.4298,-1.4298,-1.4298,-1.4298,-1.4298,-1.4298,-1.4298,-1.4298,-1.4298,-1.4298,-1.4298,-1.4298,-1.4298,-1.4298,-1.4298,-1.4298,-1.4298,-1.4298,-1.4298,-1.4298,-1.4298,-1.4394,-1.4394,-1.4394,-1.4496,-1.464,-1.479,-1.4879,-1.5166,-1.5493,-1.554,-1.5484,-1.5351,-1.5169,-1.485,-1.4543,-1.4182,-1.4088,-1.4088,-1.4088,-1.4088,-1.4088,-1.4088,-1.4088,-1.4088,-1.4088,-1.4088,-1.3921,-1.34,-1.3513,-1.3567,-1.3079,-1.322,-1.3414,-1.3414,-1.3393,-1.3332,-1.3174,-1.3998,-1.485,-1.5591,-1.6317,-1.6855,-1.7176,-1.7009,-1.6908,-1.6908,-1.6908,-1.6908,-1.6908,-1.6908,-1.6954,-1.7046,-1.7046,-1.7092,-1.7202,-1.7504,-1.7723,-0.5938,-0.5985,-0.6162,-0.6864,-0.7219,-0.7389,-0.7373,-0.7758,-0.8041,-0.779,-0.7736,-0.7801,-0.8084,-0.8684,-0.9281,-0.983,-1.0254,-1.063,-1.0923,0.0,-1.1477,-1.2013,-1.2283,-1.2579,0.0,0.0,0.0,0.0,0.0,0.0,-1.3883,-1.416,-1.4298,-1.4298,-1.4298,-1.4298,-1.4298,-1.4298,-1.4298,-1.4298,-1.4298,-1.4298,-1.4298,-1.4298,-1.4298,-1.4298,-1.4298,-1.4298,-1.4298,-1.4298,-1.4298,-1.4298,-1.4298,-1.4298,-1.4346,-1.4592,-1.4688,-1.4694,-1.4939,-1.5083,-1.5131,-1.5356,-1.5493,-1.554,-1.5737,-1.5578,-1.5391,-1.5371,-1.5157,-1.4847,-1.4235,-1.4088,-1.4088,-1.4088,-1.4088,-1.4088,-1.4088,-1.4088,-1.4088,-1.4088,-1.4088,-1.3988,-1.3626,-1.3861,-1.3948,-1.3586,-1.3834,-1.4028,-1.4028,-1.398,-1.3994,-1.4175,-1.469,-1.5589,-1.6934,-1.7617,-1.7989,-1.7999,-1.7321,-1.6908,-1.6908,-1.6908,-1.6908,-1.6908,-1.6908,-1.7092,-1.7449,-1.7449,-1.7651,-1.7999,-1.8027,-1.8082,-0.5825,-0.5809,-0.5943,-0.6514,-0.7031,-0.7498,-0.7817,-0.814,-0.8393,-0.8479,-0.8495,-0.8517,-0.8609,-0.909,-0.9593,-1.0078,-1.0383,-1.0731,-1.1118,-1.1418,-1.1678,-1.1986,-1.2419,-1.2813,0.0,0.0,0.0,0.0,0.0,0.0,-1.3927,-1.4009,-1.3978,-1.3815,-1.3809,-1.3809,-1.3809,-1.3972,-1.4051,-1.4057,-1.422,-1.4298,-1.4298,-1.4298,-1.4298,-1.4298,-1.4298,-1.4298,-1.4298,-1.4298,-1.4298,-1.4298,-1.4298,-1.4394,-1.4544,-1.464,-1.479,-1.4981,-1.5083,-1.5226,-1.5356,-1.5452,-1.5588,-1.5683,-1.5784,-1.5752,-1.5625,-1.5444,-1.5317,-1.5137,-1.478,-1.4496,-1.4355,-1.4355,-1.4215,-1.4088,-1.4088,-1.4088,-1.4088,-1.4088,-1.4088,-1.3988,-1.3653,-1.3895,-1.3988,-1.3646,-1.3895,-1.4088,-1.4088,-1.4309,-1.4489,-1.465,-1.5874,-1.6935,-1.7714,-1.8219,-1.8385,-1.81,-1.7798,-1.766,-1.766,-1.766,-1.766,-1.766,-1.766,-1.7734,-1.7889,-1.7889,-1.7963,-1.8091,-1.8375,-1.8485,-0.5852,-0.5755,-0.5853,-0.6455,-0.6977,-0.7471,-0.8155,-0.8506,-0.8775,-0.8971,-0.9068,-0.9122,-0.9122,-0.9452,-0.9846,-1.0326,-1.0495,-1.0764,-1.1241,-1.1532,-1.175,-1.1999,-1.249,0.0,0.0,0.0,0.0,0.0,0.0,0.0,0.0,-1.3779,-1.3701,-1.3519,-1.3513,-1.3513,-1.3513,-1.3694,-1.3827,-1.3912,-1.4087,-1.4214,-1.4298,-1.4298,-1.4298,-1.4298,-1.4298,-1.4298,-1.4298,-1.4298,-1.4298,-1.4298,-1.4394,-1.4544,-1.4736,-1.4879,-1.5077,-1.522,-1.5315,-1.5458,-1.5588,-1.5588,-1.5689,-1.5784,-1.5784,-1.5784,-1.5744,-1.5585,-1.5531,-1.5484,-1.5291,-1.4877,-1.4522,-1.4522,-1.4302,-1.4088,-1.4088,-1.4088,-1.4088,-1.4088,-1.4088,-1.4021,-1.3814,-1.3955,-1.4015,-1.3773,-1.3955,-1.4088,-1.4088,-1.4412,-1.4899,-1.5607,-1.6908,-1.7874,-1.8245,-1.8674,-1.8779,-1.8513,-1.8495,-1.8347,-1.81,-1.8091,-1.8091,-1.8091,-1.8091,-1.8145,-1.8274,-1.8274,-1.8338,-1.8504,-1.877,-1.8898,-0.6066,-0.5857,-0.5939,-0.6879,-0.7117,-0.7343,-0.8301,-0.8872,-0.9206,-0.9211,-0.941,-0.9619,-0.9619,-0.9771,-1.0045,-1.0517,-1.0597,-1.0764,-1.1241,-1.1527,-1.1788,-1.1976,-1.2503,0.0,0.0,0.0,0.0,0.0,0.0,0.0,0.0,-1.3513,-1.3507,-1.3507,-1.3507,-1.3507,-1.3507,-1.3507,-1.364,-1.39,-1.39,-1.4039,-1.4298,-1.4298,-1.4298,-1.4298,-1.4298,-1.4298,-1.4298,-1.4298,-1.4298,-1.4346,-1.4592,-1.4688,-1.4783,-1.5302,-1.5493,-1.554,-1.573,-1.5784,-1.5784,-1.5784,-1.5784,-1.5784,-1.5784,-1.5784,-1.5784,-1.5784,-1.5784,-1.5784,-1.5784,-1.5184,-1.4529,-1.4522,-1.4302,-1.4088,-1.4088,-1.4088,-1.4088,-1.4088,-1.4088,-1.4088,-1.4088,-1.4088,-1.4088,-1.4088,-1.4088,-1.4088,-1.4088,-1.4328,-1.5269,-1.7196,-1.7781,-1.8201,-1.866,-1.9073,-1.9301,-1.9301,-1.9301,-1.8944,-1.8127,-1.81,-1.81,-1.81,-1.81,-1.833,-1.8715,-1.8715,-1.8916,-1.9301,-1.9301,-1.9301,-0.6066,-0.6194,-0.653,-0.6972,-0.749,-0.8025,-0.8652,-0.899,-0.9351,-0.9863,-1.003,-1.0083,-1.0083,-1.0272,-1.0431,-1.0571,-1.0772,-1.1035,-1.1526,-1.1656,-1.1851,-1.2259,0.0,0.0,0.0,0.0,0.0,0.0,0.0,0.0,0.0,-1.3242,-1.3145,-1.2952,-1.2946,-1.2946,-1.2946,-1.3139,-1.3278,-1.3357,-1.3544,-1.3863,-1.4298,-1.4298,-1.4298,-1.4298,-1.4298,-1.4298,-1.4298,-1.4298,-1.4394,-1.4592,-1.4688,-1.4927,-1.5255,-1.5445,-1.5588,-1.5737,-1.5784,-1.5784,-1.5784,-1.5784,-1.5784,-1.5784,-1.5784,-1.5784,-1.5784,-1.5784,-1.5784,-1.5784,-1.5784,-1.5484,-1.509,-1.4883,-1.4609,-1.4335,-1.4128,-1.4088,-1.4088,-1.4088,-1.4088,-1.4088,-1.4088,-1.4088,-1.4088,-1.4088,-1.4088,-1.4088,-1.4088,-1.4699,-1.5809,-1.7619,-1.8465,-1.8984,-1.9112,-1.9231,-1.9301,-1.9301,-1.9301,-1.9191,-1.8962,-1.8953,-1.8953,-1.8953,-1.8953,-1.9008,-1.9127,-1.9127,-1.9191,-1.9301,-1.9301,-1.9301,-0.6296,-0.6629,-0.7095,-0.7548,-0.8144,-0.8776,-0.9416,-0.9604,-0.9787,-1.032,-1.0433,-1.0433,-1.0433,-1.0501,-1.0624,-1.0756,-1.0974,-1.1279,-1.1666,-1.1866,-1.2075,-1.2363,0.0,0.0,0.0,0.0,0.0,0.0,0.0,0.0,0.0,-1.2958,-1.288,-1.2711,-1.2705,-1.2705,-1.2705,-1.2874,-1.2969,-1.3083,-1.3239,-1.358,-1.399,-1.4093,-1.4141,-1.4147,-1.425,-1.4298,-1.4298,-1.4394,-1.4544,-1.4736,-1.4927,-1.5213,-1.5493,-1.5588,-1.5683,-1.5784,-1.5784,-1.5784,-1.5784,-1.5784,-1.5784,-1.5784,-1.5784,-1.5784,-1.5784,-1.5784,-1.5784,-1.5784,-1.5784,-1.5698,-1.5491,-1.5204,-1.491,-1.4649,-1.4476,-1.4342,-1.4262,-1.4262,-1.4168,-1.4088,-1.4088,-1.4088,-1.4088,-1.4088,-1.4088,-1.4088,-1.4088,-1.458,-1.5809,-1.8264,-1.8984,-1.9301,-1.9301,-1.9301,-1.9301,-1.9301,-1.9301,-1.9301,-1.9301,-1.9301,-1.9301,-1.9301,-1.9301,-1.9301,-1.9301,-1.9301,-1.9301,-1.9301,-1.9301,-1.9301,-0.6613,-0.7058,-0.7616,-0.8312,-0.8877,-0.9513,-1.0415,-1.0503,-1.0417,-1.0587,-1.063,-1.0635,-1.0697,-1.0702,-1.0772,-1.1066,-1.1224,-1.1475,-1.1752,-1.2118,-1.2406,-1.2448,0.0,0.0,0.0,0.0,0.0,0.0,0.0,0.0,0.0,-1.2705,-1.2705,-1.2705,-1.2705,-1.2705,-1.2705,-1.2705,-1.2831,-1.3041,-1.3041,-1.3212,-1.3453,-1.3743,-1.3882,-1.3918,-1.4183,-1.4298,-1.4346,-1.4592,-1.4736,-1.4831,-1.5302,-1.5493,-1.554,-1.573,-1.5784,-1.5784,-1.5784,-1.5784,-1.5784,-1.5784,-1.5784,-1.5784,-1.5784,-1.5784,-1.5784,-1.5784,-1.5784,-1.5784,-1.5784,-1.5784,-1.5718,-1.5498,-1.5211,-1.5042,-1.5015,-1.4736,-1.4536,-1.4536,-1.4295,-1.4095,-1.4135,-1.4108,-1.4088,-1.4088,-1.4088,-1.4173,-1.4334,-1.4419,-1.5684,-1.8935,-1.9301,-1.9301,-1.9301,-1.9301,-1.9301,-1.9301,-1.9301,-1.9301,-1.9301,-1.9301,-1.9301,-1.9301,-1.9301,-1.9301,-1.9301,-1.9301,-1.9301,-1.9301,-1.9301,-1.9301,-0.6353,-0.7085,-0.7806,-0.8176,-0.9001,-0.9965,-1.0735,-1.0869,-1.0848,-1.0902,-1.0907,-1.1008,-1.142,-1.1453,-1.1512,-1.1733,-1.1829,-1.1932,-1.2192,-1.2326,-1.2448,0.0,0.0,0.0,0.0,0.0,0.0,0.0,0.0,0.0,-1.2705,-1.2705,-1.2705,-1.2705,-1.2705,-1.2705,-1.2705,-1.2705,-1.2735,0.0,-1.2795,-1.2825,-1.2898,-1.3381,-1.3713,-1.3918,-1.4183,-1.4442,-1.464,-1.4694,-1.4927,-1.535,-1.5445,-1.5588,-1.573,-1.5784,-1.5784,-1.5784,-1.5784,-1.5784,-1.5784,-1.5784,-1.5784,-1.5784,-1.5784,-1.5784,-1.5784,-1.5784,-1.5784,-1.5784,-1.5784,-1.5784,-1.5764,-1.5752,-1.5518,-1.5244,-1.5062,-1.4834,-1.4636,-1.4636,-1.4342,-1.4188,-1.4539,-1.4289,-1.4088,-1.4088,-1.4088,-1.4587,-1.5948,-1.6722,-1.7691,-1.9143,-1.9301,-1.9301,-1.9301,-1.9301,-1.9301,-1.9301,-1.9301,-1.9301,-1.9301,-1.9301,-1.9301,-1.9301,-1.9301,-1.9301,-1.9301,-1.9301,-1.9301,-1.9301,-1.9301,-1.9301,-0.6363,-0.7165,-0.7989,-0.8797,-0.9637,-1.039,-1.0999,-1.1242,-1.1372,-1.1457,-1.1415,-1.1416,-1.1634,-1.1785,-1.1871,-1.2,-1.2123,-1.2246,-1.2363,-1.2491,-1.2577,0.0,0.0,0.0,0.0,0.0,0.0,0.0,0.0,-1.2705,-1.2705,-1.2705,-1.2705,-1.2705,-1.2705,-1.2705,-1.2705,-1.2705,-1.2705,-1.2705,-1.2705,-1.2705,-1.2717,-1.3139,-1.3471,-1.3725,-1.4003,-1.4284,-1.4543,-1.4725,-1.5085,-1.5493,-1.5588,-1.573,-1.5784,-1.5784,-1.5784,-1.5784,-1.5784,-1.5784,-1.5784,-1.5784,-1.5784,-1.5784,-1.5784,-1.5784,-1.5784,-1.5784,-1.5784,-1.5784,-1.5784,-1.5784,-1.5784,-1.5784,-1.5712,-1.5565,-1.5411,-1.5297,-1.5224,-1.5224,-1.4609,-1.4242,-1.4774,-1.4409,-1.4088,-1.4088,-1.5382,-1.7026,-1.8845,-1.9494,-1.9633,-1.9344,-1.9301,-1.9301,-1.9301,-1.9301,-1.9301,-1.9301,-1.9301,-1.9301,-1.9301,-1.9301,-1.9301,-1.9301,-1.9301,-1.9301,-1.9301,-1.9301,-1.9301,-1.9301,-1.9301,-1.9301,-0.6339,-0.7224,-0.8242,-0.9583,-1.025,-1.073,-1.1208,-1.1483,-1.1735,-1.1946,-1.1871,-1.1785,-1.1823,-1.1952,-1.208,-1.2123,-1.2332,-1.2448,-1.2448,-1.2619,-1.2705,0.0,0.0,0.0,0.0,0.0,0.0,0.0,0.0,-1.2705,-1.2705,-1.2705,-1.2705,-1.2705,-1.2705,-1.2705,-1.2705,-1.2705,-1.2705,-1.2705,-1.2705,-1.2705,-1.2711,-1.299,-1.3244,-1.3492,-1.3773,-1.4083,-1.4471,-1.483,-1.5231,-1.5588,-1.573,-1.5784,-1.5784,-1.5784,-1.5784,-1.5784,-1.5784,-1.5784,-1.5784,-1.5784,-1.5784,-1.5784,-1.5784,-1.5784,-1.5784,-1.5784,-1.5784,-1.5784,-1.5784,-1.5784,-1.5784,-1.5784,-1.5784,-1.5784,-1.5784,-1.5784,-1.5784,-1.5784,-1.5314,-1.5057,-1.5562,-1.4974,-1.4518,-1.4855,-1.728,-1.9691,-2.1463,-2.1696,-2.1174,-1.987,-1.9714,-1.9714,-1.9714,-1.9714,-1.9714,-1.9714,-1.9457,-1.9301,-1.9301,-1.9301,-1.9301,-1.9301,-1.9301,-1.9301,-1.9301,-1.9301,-1.9301,-1.9301,-1.9301,-1.9301,-0.5894,-0.7219,-0.8662,-0.9669,-1.0247,-1.0727,-1.117,-1.1464,-1.1679,-1.1955,-1.2,-1.2037,-1.224,-1.232,-1.2412,-1.2577,-1.2619,-1.2662,-1.2662,-1.2662,-1.2705,0.0,0.0,0.0,0.0,0.0,0.0,0.0,-1.2705,-1.2705,-1.2705,-1.2705,-1.2705,-1.2705,-1.2705,-1.2705,-1.2705,-1.2705,-1.2705,-1.2705,-1.2705,-1.2705,-1.2705,-1.2961,-1.3256,-1.3529,-1.3777,-1.4266,-1.4922,-1.4968,-1.5278,-1.5778,-1.5778,-1.5784,-1.5784,-1.5784,-1.5784,-1.5784,-1.5784,-1.5784,-1.5784,-1.5784,-1.5784,-1.5784,-1.5784,-1.5784,-1.5784,-1.5784,-1.5784,-1.5784,-1.5784,-1.5784,-1.5784,-1.5784,-1.5784,-1.5784,-1.5784,-1.5784,-1.5784,-1.5784,-1.7094,-1.8208,-1.8302,-1.6757,-1.6151,-1.7903,-1.9248,-2.0473,-2.1553,-2.1696,-2.1604,-2.1394,-2.1366,-2.1366,-2.1366,-2.1366,-2.1366,-2.1366,-2.0081,-1.9301,-1.9301,-1.9301,-1.9301,-1.9301,-1.9301,-1.9301,-1.9301,-1.9301,-1.9301,-1.9301,-1.9301,-1.9301,-0.6307,-0.7445,-0.8566,-0.9574,-1.0219,-1.0711,-1.1329,-1.1629,-1.1927,-1.2316,-1.2369,-1.2369,-1.2406,-1.2491,-1.2619,-1.2705,-1.2705,-1.2705,-1.2705,-1.2705,-1.2705,0.0,0.0,0.0,0.0,0.0,0.0,0.0,-1.2705,-1.2705,-1.2705,-1.2705,-1.2705,-1.2705,-1.2705,-1.2705,-1.2705,-1.2705,-1.2705,-1.2705,-1.2705,-1.2705,-1.2705,-1.2966,-1.3163,-1.3281,-1.3629,-1.4148,-1.4774,-1.4917,-1.5325,-1.5784,-1.5784,-1.5784,-1.5784,-1.5784,-1.5784,-1.5784,-1.5784,-1.5784,-1.5784,-1.5784,-1.5784,-1.5784,-1.5784,-1.5784,-1.5784,-1.5784,-1.5784,-1.5784,-1.5784,-1.5784,-1.5784,-1.5784,-1.5784,-1.5784,-1.5784,-1.5784,-1.6473,-1.8688,-1.9812,-2.0419,-2.0419,-1.9666,-1.943,-2.0275,-2.0781,-2.1239,-2.1651,-2.1696,-2.1696,-2.1696,-2.1696,-2.1696,-2.1696,-2.1696,-2.1696,-2.1696,-2.1019,-2.0625,-2.0625,-2.0625,-2.0237,-1.932,-1.9301,-1.9301,-1.9301,-1.9301,-1.9301,-1.9301,-1.9301,-1.9301,-0.6565,-0.7447,-0.8274,-0.9147,-0.9762,-1.0344,-1.1114,-1.1513,-1.1881,-1.2482,-1.2608,-1.2584,-1.2479,-1.2619,-1.2705,-1.2705,-1.2705,-1.2705,-1.2705,-1.2705,-1.2705,0.0,0.0,0.0,0.0,0.0,0.0,0.0,-1.2705,-1.2705,-1.2705,-1.2705,-1.2705,-1.2705,-1.2705,-1.2705,-1.2705,-1.2705,-1.2705,-1.2705,-1.2705,-1.2705,-1.2705,-1.2966,-1.3094,-1.3137,-1.3525,-1.4024,-1.4582,-1.4885,-1.5264,-1.5732,-1.5751,-1.5784,-1.5784,-1.5784,-1.5784,-1.5784,-1.5784,-1.5784,-1.5784,-1.5784,-1.5784,-1.5784,-1.5784,-1.5784,-1.5784,-1.5784,-1.5784,-1.5784,-1.5784,-1.5784,-1.5784,-1.5784,-1.5784,-1.5784,-1.5784,-1.6015,-1.7264,-2.0997,-2.1696,-2.1597,-2.1374,-2.1553,-2.1696,-2.1696,-2.1696,-2.1696,-2.1696,-2.1696,-2.1696,-2.1696,-2.1696,-2.1696,-2.1696,-2.1696,-2.1696,-2.1696,-2.1696,-2.1696,-2.1696,-2.1696,-2.1119,-1.9943,-1.9916,-1.9714,-1.9301,-1.9301,-1.9301,-1.9301,-1.9301,-1.9301,-0.6208,-0.6971,-0.7724,-0.8097,-0.8733,-0.9444,-1.0207,-1.0683,-1.1209,-1.2133,-1.233,-1.2409,-1.2656,-1.2705,-1.2705,-1.2705,-1.2705,-1.2705,-1.2705,-1.2705,-1.2705,0.0,0.0,0.0,0.0,0.0,0.0,0.0,-1.2705,-1.2705,-1.2705,-1.2705,-1.2705,-1.2705,-1.2705,-1.2705,-1.2705,-1.2705,-1.2705,-1.2705,-1.2705,-1.2705,-1.2705,-1.2966,-1.3094,-1.3137,-1.3525,-1.3992,-1.4519,-1.485,-1.5189,-1.5444,-1.5718,-1.5784,-1.5784,-1.5784,-1.5784,-1.5784,-1.5784,-1.5784,-1.5784,-1.5784,-1.5784,-1.5784,-1.5784,-1.5784,-1.5784,-1.5784,-1.5784,-1.5784,-1.5784,-1.5784,-1.5784,-1.5784,-1.5784,-1.5784,-1.5784,-1.6534,-1.811,-2.1141,-2.1696,-2.1419,-2.0518,-2.1105,-2.1696,-2.1696,-2.1696,-2.1696,-2.1696,-2.1696,-2.1696,-2.1696,-2.1696,-2.1696,-2.1696,-2.1696,-2.1696,-2.1696,-2.1696,-2.1696,-2.1696,-2.1696,-2.165,-2.1568,-2.1568,-2.0799,-1.9301,-1.9301,-1.9301,-1.9301,-1.9301,-1.9301,-0.5967,-0.647,-0.696,-0.7444,-0.8001,-0.8646,-0.9421,-1.008,-1.0826,-1.1816,-1.2198,-1.2397,-1.2656,-1.2705,-1.2705,-1.2705,-1.2705,-1.2705,-1.2705,-1.2705,-1.2705,0.0,0.0,0.0,0.0,0.0,0.0,0.0,0.0,-1.2705,-1.2705,-1.2705,-1.2705,-1.2705,-1.2705,-1.2705,-1.2705,-1.2705,-1.2705,-1.2705,-1.2705,-1.2705,-1.2705,-1.2966,-1.3222,-1.3519,-1.3977,-1.4193,-1.4348,-1.4592,-1.4963,-1.5404,-1.5511,-1.5665,-1.5784,-1.5784,-1.5784,-1.5784,-1.5784,-1.5784,-1.5784,-1.5784,-1.5784,-1.5784,-1.5784,-1.5784,-1.5784,-1.5784,-1.5784,-1.5784,-1.5784,-1.6298,-1.6763,-1.6763,-1.6763,-1.6581,-1.592,-1.6574,-1.8156,-2.1141,-2.1195,-2.0699,-2.0382,-2.0564,-2.1015,-2.1607,-2.1696,-2.1696,-2.1696,-2.1696,-2.1696,-2.1696,-2.1696,-2.1696,-2.1696,-2.1696,-2.1696,-2.1696,-2.1696,-2.1696,-2.1696,-2.1696,-2.1696,-2.1696,-2.1696,-2.1403,-2.0817,-2.0817,-2.0817,-2.0808,-2.0328,-2.0365,-0.5736,-0.6085,-0.6401,-0.6864,-0.7389,-0.8006,-0.8747,-0.9462,-1.0284,-1.139,-1.1826,-1.2155,-1.2506,-1.2644,-1.2705,-1.2705,-1.2705,-1.2705,-1.2705,-1.2705,-1.2705,0.0,0.0,0.0,0.0,0.0,0.0,0.0,0.0,0.0,-1.2705,-1.2705,-1.2705,-1.2705,-1.2705,-1.2705,-1.2705,-1.279,-1.2833,-1.2833,-1.2833,-1.2833,-1.2833,-1.3009,-1.3313,-1.3737,-1.4349,-1.4569,-1.4566,-1.4798,-1.5136,-1.5549,-1.5551,-1.5658,-1.5832,-1.5879,-1.5879,-1.5832,-1.5879,-1.5879,-1.5832,-1.5927,-1.5927,-1.5927,-1.5967,-1.5872,-1.5784,-1.5784,-1.554,-1.535,-1.573,-1.7037,-1.8295,-1.8295,-1.8295,-1.811,-1.7451,-1.7559,-1.8488,-2.0781,-2.0744,-2.0292,-2.0292,-2.0292,-2.0518,-2.115,-2.1239,-2.1239,-2.1239,-2.1239,-2.1239,-2.1239,-2.1239,-2.1239,-2.1239,-2.1239,-2.1239,-2.1239,-2.1239,-2.1239,-2.1239,-2.1239,-2.1239,-2.1239,-2.1553,-2.1696,-2.1696,-2.1696,-2.1696,-2.1678,-2.1138,-2.1174,0.0,0.0,0.0,-0.6229,-0.6881,-0.7598,-0.8122,-0.88,-0.9643,-1.0833,-1.1317,-1.1679,-1.2204,-1.2518,-1.2693,-1.2693,-1.2699,-1.2705,-1.2705,-1.2705,-1.2705,0.0,0.0,0.0,0.0,0.0,0.0,0.0,-1.2705,-1.2705,-1.2705,-1.2705,-1.2705,-1.2705,-1.2705,-1.2705,-1.2705,-1.2966,-1.31,-1.3137,-1.3137,-1.3137,-1.3137,-1.3137,-1.3355,-1.3822,-1.4629,-1.5113,-1.5281,-1.5518,-1.5659,-1.5807,-1.5759,-1.5778,-1.5832,-1.6123,-1.6028,-1.5832,-1.6123,-1.6028,-1.5879,-1.6123,-1.6224,-1.6265,-1.6298,-1.6109,-1.5825,-1.5825,-1.5112,-1.4586,-1.5683,-1.811,-2.0292,-2.0292,-2.0292,-2.0292,-2.0292,-1.9517,-1.9142,-2.011,-2.0292,-2.0292,-2.0292,-2.0292,-2.0292,-2.0292,-2.0292,-2.0292,-2.0292,-2.0292,-2.0292,-2.0292,-2.0292,-2.0292,-2.0292,-2.0292,-2.0292,-2.0292,-2.0292,-2.0292,-2.0292,-2.0292,-2.0292,-2.0292,-2.1195,-2.1687,-2.1696,-2.1696,-2.1696,-2.1696,-2.1696,-2.1696,-0.58,0.0,0.0,0.0,0.0,0.0,0.0,-0.8072,-0.9258,-1.0597,-1.1284,-1.1751,-1.2172,-1.2451,-1.2588,-1.2421,-1.2578,-1.2705,-1.2705,-1.2705,0.0,0.0,0.0,0.0,0.0,0.0,0.0,0.0,-1.2705,-1.2705,-1.2705,-1.2705,-1.2705,-1.2705,-1.2705,-1.279,-1.3009,-1.3222,-1.3392,-1.3525,-1.3525,-1.3652,-1.3828,-1.361,-1.4019,-1.4936,-1.5352,-1.6012,-1.6701,-1.5843,-1.5578,-1.572,-1.5159,-1.5175,-1.5642,-1.6258,-1.6312,-1.6123,-1.6407,-1.6305,-1.6123,-1.64,-1.6864,-1.738,-1.7372,-1.7138,-1.6911,-1.6911,-1.615,-1.5954,-1.8427,-1.9683,-2.0292,-2.0292,-2.0292,-2.0292,-2.0292,-2.0065,-1.9973,-2.0246,-2.0292,-2.0292,-2.0292,-2.0292,-2.0292,-2.0292,-2.0292,-2.0292,-2.0292,-2.0292,-2.0292,-2.0292,-2.0292,-2.0292,-2.0292,-2.0292,-2.0292,-2.0292,-2.0292,-2.0292,-2.0292,-2.0292,-2.0292,-2.0292,-2.0564,-2.1015,-2.1696,-2.1696,-2.1696,-2.1696,-2.1696,-2.1696,-0.6207,-0.626,-0.6231,-0.5943,0.0,0.0,-0.6871,-0.7772,-0.8877,0.0,-1.0776,-1.1268,-1.1626,-1.1916,-1.2016,-1.1811,-1.2035,-1.233,-1.2656,-1.2705,-1.2747,0.0,0.0,0.0,0.0,-1.3009,-1.2966,-1.2881,-1.2881,-1.2881,-1.2881,-1.2881,-1.2881,-1.2881,-1.2747,-1.2833,-1.3094,-1.3561,-1.3942,-1.411,-1.4391,-1.4601,-1.4776,-1.4601,-1.5012,-1.585,-1.6263,-1.6944,-1.7798,-1.6871,-1.6396,-1.6223,-1.5391,-1.5443,-1.6015,-1.6676,-1.677,-1.6683,-1.6817,-1.6777,-1.6683,-1.6817,-1.738,-1.7986,-1.8311,-1.8311,-1.8172,-1.8488,-1.811,-1.8064,-1.9828,-2.0292,-2.0292,-2.0292,-2.0292,-2.0292,-2.0292,-2.0292,-2.0292,-2.0292,-2.0292,-2.0292,-2.0292,-2.0292,-2.0292,-2.0292,-2.0292,-2.0292,-2.0292,-2.0292,-2.0292,-2.0292,-2.0292,-2.0292,-2.0292,-2.0292,-2.0292,-2.0292,-2.0292,-2.0292,-2.0292,-2.0292,-2.0292,-2.0292,-2.0292,-2.0564,-2.1105,-2.1517,-2.1696,-2.1696,-2.1696,-2.1508,-0.6811,-0.6868,-0.6829,-0.6863,-0.7009,0.0,-0.7101,-0.7691,-0.8502,0.0,-0.9939,-1.0413,-1.0804,-1.1123,-1.1261,-1.1058,-1.1276,-1.1715,-1.2506,-1.2644,-1.279,0.0,0.0,0.0,-1.3353,-1.3379,-1.3313,-1.3137,-1.3094,-1.31,-1.3137,-1.3137,-1.3137,-1.3137,-1.2881,-1.2918,-1.3222,-1.4062,-1.4608,-1.4859,-1.5462,-1.5786,-1.5827,-1.5786,-1.6049,-1.6558,-1.7163,-1.7863,-1.8516,-1.8178,-1.7708,-1.7066,-1.6298,-1.6298,-1.677,-1.7279,-1.7466,-1.7419,-1.7466,-1.7466,-1.7419,-1.7466,-1.78,-1.8365,-1.9158,-1.9433,-1.9525,-2.011,-2.0292,-2.0292,-2.0292,-2.0292,-2.0292,-2.0292,-2.0292,-2.0292,-2.0292,-2.0292,-2.0292,-2.0292,-2.0292,-2.0292,-2.0292,-2.0292,-2.0292,-2.0292,-2.0292,-2.0292,-2.0292,-2.0292,-2.0292,-2.0292,-2.0292,-2.0292,-2.0292,-2.0292,-2.0292,-2.0292,-2.0292,-2.0292,-2.0292,-2.0292,-2.0292,-2.0292,-2.0292,-2.0292,-2.0292,-2.115,-2.1553,-2.1553,-2.1553,-2.1105,-0.7981,-0.7865,-0.7616,-0.7402,0.0,0.0,-0.7083,-0.7524,-0.8152,0.0,-0.9418,-0.9866,-1.0019,-1.0463,-1.0776,-1.0566,-1.0929,-1.1434,-1.1962,-1.2423,-1.2688,0.0,0.0,0.0,-1.3086,-1.3264,-1.3313,-1.3137,-1.3094,-1.3185,-1.3307,-1.3355,-1.3355,-1.3355,-1.3307,-1.3561,-1.4146,-1.4685,-1.5235,-1.5839,-1.6105,-1.6345,-1.6517,-1.6345,-1.6599,-1.7245,-1.7639,-1.8145,-1.8722,-1.855,-1.8324,-1.8064,-1.7304,-1.721,-1.7552,-1.8241,-1.838,-1.8203,-1.8427,-1.838,-1.8203,-1.8427,-1.8711,-1.9142,-1.9882,-2.011,-2.011,-2.0246,-2.0292,-2.0292,-2.0292,-2.0292,-2.0292,-2.0292,-2.0292,-2.0292,-2.0292,-2.0292,-2.0292,-2.0292,-2.0292,-2.0292,-2.0292,-2.0292,-2.0292,-2.0292,-2.0292,-2.0292,-2.0292,-2.0292,-2.0292,-2.0292,-2.0292,-2.0292,-2.0292,-2.0292,-2.0292,-2.0292,-2.0292,-2.0292,-2.0292,-2.0292,-2.0292,-2.0292,-2.0292,-2.0292,-2.0292,-2.0473,-2.0564,-2.0564,-2.0564,-2.0473,-0.9,-0.8764,-0.8389,-0.8109,0.0,0.0,0.0,-0.7375,-0.7869,-0.847,-0.8938,-0.9323,-0.9554,-0.9836,-0.9999,-0.9843,-1.0135,-1.0585,-1.1088,-1.2008,-1.2704,0.0,0.0,0.0,-1.3528,-1.3528,-1.3461,-1.3385,-1.3398,-1.3483,-1.3737,-1.3948,-1.4104,-1.4223,-1.4356,-1.4601,-1.5047,-1.5628,-1.6131,-1.6566,-1.6976,-1.7253,-1.7343,-1.7261,-1.7482,-1.7994,-1.8171,-1.8617,-1.9252,-1.9165,-1.9216,-1.9225,-1.811,-1.7924,-1.8303,-1.8804,-1.8996,-1.9012,-1.8996,-1.8996,-1.9004,-1.8996,-1.9225,-1.9654,-2.0155,-2.0292,-2.0292,-2.0292,-2.0292,-2.0292,-2.0292,-2.0292,-2.0292,-2.0292,-2.0292,-2.0292,-2.0292,-2.0292,-2.0292,-2.0292,-2.09,-2.1461,-2.1461,-2.1461,-2.1461,-2.1461,-2.1461,-2.1461,-2.1461,-2.1461,-2.1461,-2.1461,-2.1461,-2.1161,-2.036,-2.0292,-2.0292,-2.0292,-2.0292,-2.0292,-2.0292,-2.0292,-2.0292,-2.0292,-2.0292,-2.0292,-2.0292,-2.0292,-2.0292,-2.0292,-2.0292,-2.0292,0.0,-0.9667,-0.9253,0.0,0.0,-0.7674,0.0,0.0,0.0,-0.8214,-0.8524,0.0,0.0,0.0,0.0,0.0,0.0,0.0,0.0,-1.1291,0.0,0.0,0.0,0.0,-1.3888,-1.3706,-1.355,-1.3603,-1.3661,-1.3827,-1.4127,-1.4587,-1.4943,-1.5228,-1.5428,-1.5636,-1.5869,-1.6453,-1.6862,-1.7164,-1.7708,-1.8,-1.8,-1.8068,-1.8305,-1.8596,-1.8742,-1.9162,-1.9708,-1.9776,-2.0026,-2.0201,-1.9004,-1.8781,-1.9104,-1.9325,-1.9571,-1.9716,-1.9471,-1.9571,-1.9716,-1.9471,-1.9646,-2.0019,-2.0246,-2.0292,-2.0292,-2.0292,-2.0292,-2.0292,-2.0292,-2.0292,-2.0292,-2.0292,-2.0292,-2.0292,-2.0292,-2.0523,-2.0728,-2.0728,-2.1762,-2.2594,-2.2594,-2.2594,-2.2594,-2.2594,-2.2594,-2.2594,-2.2594,-2.2594,-2.2594,-2.2594,-2.2594,-2.1985,-2.042,-2.0292,-2.0292,-2.0292,-2.0292,-2.0292,-2.0292,-2.0292,-2.0292,-2.0292,-2.0292,-2.0292,-2.0292,-2.0292,-2.0292,-2.0292,-2.0292,-2.0292,0.0,0.0,0.0,0.0,-0.9329,0.0,0.0,0.0,-0.7872,-0.7945,0.0,0.0,0.0,0.0,0.0,0.0,0.0,0.0,-0.9312,-1.0199,-1.1161,-1.2055,0.0,0.0,0.0,-1.3311,-1.3303,-1.3247,-1.3466,-1.381,-1.4253,-1.4959,-1.5436,-1.5609,-1.5891,-1.618,-1.6566,-1.6837,-1.7204,-1.761,-1.787,-1.8,-1.8008,-1.8374,-1.8545,-1.8622,-1.9272,-1.9614,-1.9725,-2.0095,-2.0249,-2.0292,-2.011,-2.0065,-2.011,-2.0155,-2.0201,-2.0201,-2.0201,-2.0201,-2.0201,-2.0201,-2.0201,-2.0246,-2.0292,-2.0292,-2.0292,-2.0292,-2.0292,-2.0292,-2.0292,-2.0292,-2.0292,-2.0292,-2.0292,-2.0292,-2.0292,-2.1393,-2.2345,-2.2345,-2.2482,-2.2594,-2.2594,-2.2594,-2.2594,-2.2594,-2.2594,-2.2594,-2.2594,-2.2594,-2.2594,-2.2594,-2.2594,-2.1985,-2.042,-2.0292,-2.0292,-2.0292,-2.0292,-2.0292,-2.0292,-2.0292,-2.0292,-2.0292,-2.0292,-2.0292,-2.0292,-2.0292,-2.0292,-2.0292,-2.0292,-2.0292,0.0,0.0,0.0,0.0,0.0,0.0,-0.8153,0.0,-0.7999,0.0,0.0,0.0,0.0,0.0,0.0,0.0,-0.8691,0.0,0.0,0.0,-0.9853,0.0,0.0,0.0,0.0,0.0,0.0,0.0,-1.3029,-1.3635,-1.4388,-1.5653,-1.6476,-1.6689,-1.7009,-1.7294,-1.7465,-1.7546,-1.7668,-1.787,-1.7951,-1.8102,-1.8357,-1.8519,-1.8828,-1.9273,-1.9563,-1.9819,-2.0069,-2.0223,-2.0292,-2.0292,-2.0292,-2.0292,-2.0292,-2.0292,-2.0292,-2.0292,-2.0292,-2.0292,-2.0292,-2.0292,-2.0292,-2.0292,-2.0292,-2.0292,-2.0292,-2.0292,-2.0292,-2.0292,-2.0292,-2.0292,-2.0292,-2.0292,-2.0292,-2.0292,-2.0292,-2.153,-2.2594,-2.2594,-2.2594,-2.2594,-2.2594,-2.2594,-2.2594,-2.2594,-2.2594,-2.2594,-2.2594,-2.2594,-2.2594,-2.2594,-2.2594,-2.1985,-2.042,-2.0292,-2.0292,-2.0292,-2.0292,-2.0292,-2.0292,-2.0292,-2.0292,-2.0292,-2.0292,-2.0292,-2.0292,-2.0292,-2.0292,-2.0292,-2.0292,-2.0292,-1.2645,0.0,0.0,0.0,0.0,0.0,0.0,0.0,0.0,0.0,0.0,0.0,0.0,0.0,0.0,-0.8751,0.0,-0.8342,0.0,0.0,0.0,0.0,0.0,0.0,0.0,0.0,0.0,0.0,0.0,-1.3673,-1.4709,-1.6206,-1.7155,-1.7465,-1.7838,-1.8,-1.8,-1.8,-1.8,-1.8,-1.8,-1.8188,-1.8588,-1.8699,-1.911,-1.9708,-1.9802,-2.0043,-2.0292,-2.0292,-2.0292,-2.0292,-2.0292,-2.0292,-2.0292,-2.0292,-2.0292,-2.0292,-2.0292,-2.0292,-2.0292,-2.0292,-2.0292,-2.0292,-2.0292,-2.0292,-2.0292,-2.0292,-2.0292,-2.0292,-2.0292,-2.0292,-2.0292,-2.0292,-2.0609,-2.0908,-2.0908,-2.1822,-2.2594,-2.2594,-2.2594,-2.2594,-2.2594,-2.2594,-2.2594,-2.2594,-2.2594,-2.2594,-2.2594,-2.2594,-2.2594,-2.2594,-2.2225,-2.153,-2.0386,-2.0292,-2.0292,-2.0292,-2.0292,-2.0292,-2.0292,-2.0292,-2.0292,-2.0292,-2.0292,-2.0292,-2.0292,-2.0292,-2.0292,-2.0292,-2.0292,-2.0292,0.0,0.0,0.0,-1.1541,0.0,0.0,0.0,0.0,-0.9336,0.0,0.0,0.0,0.0,0.0,-0.9024,-0.8509,-0.8409,0.0,0.0,0.0,0.0,0.0,0.0,0.0,0.0,0.0,0.0,0.0,0.0,0.0,-1.5319,-1.6289,-1.7092,-1.7691,-1.787,-1.8,-1.8,-1.8,-1.8,-1.8,-1.8,-1.8188,-1.8596,-1.8982,-1.9367,-1.9717,-2.0121,-2.0283,-2.0292,-2.0292,-2.0292,-2.0292,-2.0292,-2.0292,-2.0292,-2.0292,-2.0292,-2.0292,-2.0292,-2.0292,-2.0292,-2.0292,-2.0292,-2.0292,-2.0292,-2.0292,-2.0292,-2.0292,-2.0292,-2.0292,-2.0292,-2.0292,-2.0292,-2.0292,-2.1453,-2.2525,-2.2525,-2.256,-2.2594,-2.2594,-2.2594,-2.2594,-2.2594,-2.2594,-2.2594,-2.2594,-2.2594,-2.2594,-2.2594,-2.2594,-2.2594,-2.2594,-2.1234,-2.0343,-2.0292,-2.0292,-2.0292,-2.0292,-2.0292,-2.0292,-2.0292,-2.0292,-2.0292,-2.0292,-2.0292,-2.0292,-2.0292,-2.0292,-2.0292,-2.0292,-2.0292,-2.0292,0.0,0.0,-1.3735,-1.2761,0.0,0.0,0.0,0.0,0.0,0.0,0.0,0.0,0.0,-1.1157,-1.06,-1.0028,-0.937,-0.8702,0.0,0.0,0.0,0.0,0.0,0.0,0.0,0.0,0.0,0.0,-1.2393,0.0,0.0,-1.6392,-1.7195,-1.7893,-1.7951,-1.8,-1.8,-1.8,-1.8,-1.8,-1.8,-1.8365,-1.9024,-1.9162,-1.9521,-2.0112,-2.024,-2.0292,-2.0292,-2.0292,-2.0292,-2.0292,-2.0292,-2.0292,-2.0292,-2.0292,-2.0292,-2.0292,-2.0292,-2.0292,-2.0292,-2.0292,-2.0292,-2.0292,-2.0292,-2.0292,-2.0292,-2.0292,-2.0292,-2.0292,-2.0292,-2.0292,-2.0292,-2.0292,-2.1496,-2.2594,-2.2594,-2.2594,-2.2594,-2.2594,-2.2594,-2.2594,-2.2594,-2.2594,-2.2594,-2.2594,-2.2594,-2.2594,-2.2594,-2.2594,-2.2594,-2.2594,-2.2139,-2.1427,-2.0377,-2.1255,-2.1401,-2.0352,-2.0292,-2.0292,-2.0292,-2.0292,-2.0292,-2.0292,-2.0292,-2.0292,-2.0292,-2.0292,-2.0292,-2.0292,-2.0292,-2.0292,-1.5946,-1.5613,0.0,-1.4371,-1.3607,0.0,-1.1762,0.0,0.0,0.0,0.0,0.0,0.0,0.0,-1.2058,-1.1354,-1.0238,-0.9178,0.0,-0.8066,0.0,0.0,0.0,0.0,0.0,0.0,-1.1338,-1.1859,-1.2274,0.0,0.0,0.0,-1.6867,-1.7572,-1.7854,-1.8,-1.8,-1.8128,-1.8188,-1.8188,-1.8188,-1.8631,-1.9376,-1.9239,-1.9581,-2.0292,-2.0292,-2.0292,-2.0292,-2.0292,-2.0292,-2.0292,-2.0292,-2.0292,-2.0292,-2.0292,-2.0292,-2.0292,-2.0292,-2.0292,-2.0292,-2.0292,-2.0292,-2.0292,-2.0292,-2.0292,-2.0292,-2.0292,-2.0292,-2.0292,-2.0292,-2.0292,-2.0292,-2.0292,-2.1496,-2.2594,-2.2594,-2.2594,-2.2594,-2.2594,-2.2594,-2.2594,-2.2594,-2.2594,-2.2594,-2.2594,-2.2594,-2.2594,-2.2594,-2.2594,-2.2594,-2.2594,-2.2594,-2.2208,-2.1221,-2.2036,-2.2182,-2.1204,-2.0591,-2.0292,-2.0292,-2.0292,-2.0292,-2.0292,-2.0292,-2.0292,-2.0292,-2.0292,-2.0292,-2.0292,-2.0292,-2.0292]},{"header":{"parameterUnit":"m.s-1","parameterCategory":1,"la1":30.6,"la2":29.2853,"lo1":-89.7004,"lo2":-87.6739,"dy":0.0162,"dx":0.0183,"nx":112,"ny":82,"refTime":"2026-05-03T12:00:00:Z","depth":0,"parameterNumber":3,"parameterNumberName":"V-component_of_WINDS"},"data":[0.0,0.0,0.0,0.0,0.0,0.0,0.0,0.0,0.0,0.0,0.0,0.0,0.0,0.0,0.0,0.0,0.0,0.0,0.0,0.0,0.0,0.0,0.0,0.0,0.0,0.0,0.0,0.0,0.0,0.0,0.0,0.0,0.0,0.0,0.0,0.0,0.0,0.0,0.0,0.0,0.0,0.0,0.0,0.0,0.0,0.0,0.0,0.0,0.0,0.0,0.0,0.0,0.0,0.0,0.0,0.0,0.0,0.0,0.0,0.0,0.0,0.0,0.0,0.0,0.0,0.0,0.0,0.0,0.0,0.0,0.0,0.0,0.0,0.0,0.0,0.0,0.0,0.0,0.0,0.0,0.0,0.0,0.0,0.0,0.0,0.0,0.0,0.0,0.0,0.0,1.4408,1.7312,2.004,2.11,1.9696,1.8799,1.7029,1.4003,0.0,0.0,0.0,0.0,0.0,0.0,0.0,0.0,0.0,0.0,0.0,0.0,0.0,0.0,0.0,0.0,0.0,0.0,0.0,0.0,0.0,0.0,0.0,0.0,0.0,0.0,0.0,0.0,0.0,0.0,0.0,0.0,0.0,0.0,0.0,0.0,0.0,0.0,0.0,0.0,0.0,0.0,0.0,0.0,0.0,0.0,0.0,0.0,0.0,0.0,0.0,0.0,0.0,0.0,0.0,0.0,0.0,0.0,0.0,0.0,0.0,0.0,0.0,0.0,0.0,0.0,0.0,0.0,0.0,0.0,0.0,0.0,0.0,0.0,0.0,0.0,0.0,0.0,0.0,0.0,0.0,0.0,0.0,0.0,0.0,0.0,0.0,0.0,0.0,0.0,0.0,0.0,0.0,0.0,0.0,0.0,0.0,0.0,0.0,0.0,0.0,0.0,0.0,0.0,1.5747,1.9576,2.1167,2.1389,2.0045,1.8976,1.709,1.4086,0.0,0.0,0.0,0.0,0.0,0.0,0.0,0.0,0.0,0.0,0.0,0.0,0.0,0.0,0.0,0.0,0.0,0.0,0.0,0.0,0.0,0.0,0.0,0.0,0.0,0.0,0.0,0.0,0.0,0.0,0.0,0.0,0.0,0.0,0.0,0.0,0.0,0.0,0.0,0.0,0.0,0.0,0.0,0.0,0.0,0.0,0.0,0.0,0.0,0.0,0.0,0.0,0.0,0.0,0.0,0.0,0.0,0.0,0.0,0.0,0.0,0.0,0.0,0.0,0.0,0.0,0.0,0.0,0.0,0.0,0.0,0.0,0.0,0.0,0.0,0.0,0.0,0.0,0.0,0.0,0.0,0.0,0.0,0.0,0.0,0.0,0.0,0.0,0.0,0.0,0.0,0.0,0.0,0.0,0.0,0.0,0.0,0.0,0.0,0.0,0.0,0.0,0.0,1.5089,1.7723,1.9778,2.1036,2.1002,1.9183,1.8167,1.6311,1.3225,1.1612,0.0,0.0,0.0,0.0,0.0,0.0,0.0,0.0,0.0,0.0,0.0,0.0,0.0,0.0,0.0,0.0,0.0,0.0,0.0,0.0,0.0,0.0,0.0,0.0,0.0,0.0,0.0,0.0,0.0,0.0,0.0,0.0,0.0,0.0,0.0,0.0,0.0,0.0,0.0,0.0,0.0,0.0,0.0,0.0,0.0,0.0,0.0,0.0,0.0,0.0,0.0,0.0,0.0,0.0,0.0,0.0,0.0,0.0,0.0,0.0,0.0,0.0,0.0,0.0,0.0,0.0,0.0,0.0,0.0,0.0,0.0,0.0,0.0,0.0,0.0,0.0,0.0,0.0,0.0,0.0,0.0,0.0,0.0,0.0,0.0,0.0,0.0,0.0,0.0,0.0,0.0,0.0,0.0,0.0,0.0,0.0,0.0,0.0,0.0,0.0,0.0,0.0,1.7305,1.9117,1.9729,2.0698,2.0486,1.846,1.7495,1.5658,1.2514,1.1175,0.0,0.0,0.0,0.0,0.0,0.0,0.0,0.0,0.0,0.0,0.0,0.0,0.0,0.0,0.0,0.0,0.0,0.0,0.0,0.0,0.0,0.0,0.0,0.0,0.0,0.0,0.0,0.0,0.0,0.0,0.0,0.0,0.0,0.0,0.0,0.0,0.0,0.0,0.0,0.0,0.0,0.0,0.0,0.0,0.0,0.0,0.0,0.0,0.0,0.0,0.0,0.0,0.0,0.0,0.0,0.0,0.0,0.0,0.0,0.0,0.0,0.0,0.0,0.0,0.0,0.0,0.0,0.0,0.0,0.0,0.0,0.0,0.0,0.0,0.0,0.0,0.0,0.0,0.0,0.0,0.0,0.0,0.0,0.0,0.0,0.0,0.0,0.0,0.0,0.0,0.0,0.0,0.0,0.0,0.0,0.0,0.0,0.0,0.0,0.0,0.0,0.0,1.7345,1.9061,2.0234,2.0593,2.0157,1.8708,1.7611,1.5693,1.2586,1.1201,0.0,0.0,0.0,0.0,0.0,0.0,0.0,0.0,0.0,0.0,0.0,0.0,0.0,0.0,0.0,0.0,0.0,0.0,0.0,0.0,0.0,0.0,0.0,0.0,0.0,0.0,0.0,0.0,0.0,0.0,0.0,0.0,0.0,0.0,0.0,0.0,0.0,0.0,0.0,0.0,0.0,0.0,0.0,0.0,0.0,0.0,0.0,0.0,0.0,0.0,0.0,0.0,0.0,0.0,0.0,0.0,0.0,0.0,0.0,0.0,0.0,0.0,0.0,0.0,0.0,0.0,0.0,0.0,0.0,0.0,0.0,0.0,0.0,0.0,0.0,0.0,0.0,0.0,0.0,0.0,0.0,0.0,0.0,0.0,0.0,0.0,0.0,0.0,0.0,0.0,0.0,0.0,0.0,0.0,0.0,0.0,0.0,0.0,0.0,0.0,0.0,0.0,1.7427,1.8924,0.0,1.9971,1.9373,1.7506,1.6105,1.4176,1.1508,0.0,0.0,0.0,0.0,0.0,0.0,0.0,0.0,0.0,0.0,0.0,0.0,0.0,0.0,0.0,0.0,0.0,0.0,0.0,0.0,0.0,0.0,0.0,0.0,0.0,0.0,0.0,0.0,0.0,0.0,0.0,0.0,0.0,0.0,0.0,0.0,0.0,0.0,0.0,0.0,0.0,0.0,0.0,0.0,0.0,0.0,0.0,0.0,0.0,0.0,0.0,0.0,0.0,0.0,0.0,0.0,0.0,0.0,0.0,0.0,0.0,0.0,0.0,0.0,0.0,0.0,0.0,0.0,0.0,0.0,0.0,0.0,0.0,0.0,0.0,0.0,0.0,0.0,0.0,0.0,0.0,0.0,0.0,0.0,0.0,0.0,0.0,0.0,0.0,0.0,0.0,0.0,0.0,0.0,0.0,0.0,0.0,0.0,0.0,0.0,0.0,0.0,1.5126,1.7208,1.8625,0.0,1.9343,1.8741,1.6803,1.5359,1.3473,1.0871,0.0,0.0,0.0,0.0,0.0,0.0,0.0,0.0,0.0,0.0,0.0,0.0,0.0,0.0,0.0,0.0,0.0,0.0,0.0,0.0,0.0,0.0,0.0,0.0,0.0,0.0,0.0,0.0,0.0,0.0,0.0,0.0,0.0,0.0,0.0,0.0,0.0,0.0,0.0,0.0,0.0,0.0,0.0,0.0,0.0,0.0,0.0,0.0,0.0,0.0,0.0,0.0,0.0,0.0,0.0,0.0,0.0,0.0,0.0,0.0,0.0,0.0,0.0,0.0,0.0,0.0,0.0,0.0,0.0,0.0,0.0,0.0,0.0,0.0,0.0,0.0,0.0,0.0,0.0,0.0,0.0,0.0,0.0,0.0,0.0,0.0,0.0,0.0,0.0,0.0,0.0,0.0,0.0,0.0,0.0,0.0,0.0,0.0,0.0,0.0,0.0,0.0,1.463,1.6727,1.8149,1.8569,1.8786,1.8315,1.6821,1.5782,1.3922,0.0,0.0,0.0,0.0,0.0,0.0,0.0,0.0,0.0,0.0,0.0,0.0,0.0,0.0,0.0,0.0,0.0,0.0,0.0,0.0,0.0,0.0,0.0,0.0,0.0,0.0,0.0,0.0,0.0,0.0,0.0,0.0,0.0,0.0,0.0,0.0,0.0,0.0,0.0,0.0,0.0,0.0,0.0,0.0,0.0,0.0,0.0,0.0,0.0,0.0,0.0,0.0,0.0,0.0,0.0,0.0,0.0,0.0,0.0,0.0,0.0,0.0,0.0,0.0,0.0,0.0,0.0,0.0,0.0,0.0,0.0,0.0,0.0,0.0,0.0,0.0,0.0,0.0,0.0,0.0,0.0,0.0,0.0,0.0,0.0,0.0,0.0,0.0,0.0,0.0,0.0,0.0,0.0,0.0,0.0,0.0,0.0,0.0,0.0,0.0,0.0,0.0,0.0,1.477,1.68,1.8294,1.8896,1.9129,1.864,1.7119,1.6025,1.4273,1.1569,0.0,0.0,0.0,0.0,0.0,0.0,0.0,0.0,0.0,0.0,0.0,0.0,0.0,0.0,0.0,0.0,0.0,0.0,0.0,0.0,0.0,0.0,0.0,0.0,0.0,0.0,0.0,0.0,0.0,0.0,0.0,0.0,0.0,0.0,0.0,0.0,0.0,0.0,0.0,0.0,0.0,0.0,0.0,0.0,0.0,0.0,0.0,0.0,0.0,0.0,0.0,0.0,0.0,0.0,0.0,0.0,0.0,0.0,0.0,0.0,0.0,0.0,0.0,0.0,0.0,0.0,0.0,0.0,0.0,0.0,0.0,0.0,0.0,0.0,0.0,0.0,0.0,0.0,0.0,0.0,0.0,0.0,0.0,0.0,0.0,0.0,0.0,0.0,0.0,0.0,0.0,0.0,0.0,0.0,0.0,0.0,0.0,0.0,0.0,0.0,0.0,0.0,1.4417,1.6748,1.8361,1.8696,1.9297,1.9033,1.7443,1.651,1.4828,1.2,0.0,0.0,0.0,0.0,0.0,0.0,0.0,0.0,0.0,0.0,0.0,0.0,0.0,0.0,0.0,0.0,0.0,0.0,0.0,0.0,0.0,0.0,0.0,0.0,0.0,0.0,0.0,0.0,0.0,0.0,0.0,0.0,0.0,0.0,0.0,0.0,0.0,0.0,0.0,0.0,0.0,0.0,0.0,0.0,0.0,0.0,0.0,0.0,0.0,0.0,0.0,0.0,0.0,0.0,0.0,0.0,0.0,0.0,0.0,0.0,0.0,0.0,0.0,0.0,0.0,0.0,0.0,0.0,0.0,0.0,0.0,0.0,0.0,0.0,0.0,0.0,0.0,0.0,0.0,0.0,0.0,0.0,0.0,0.0,0.0,0.0,0.0,0.0,0.0,0.0,0.0,0.0,0.0,0.0,0.0,0.0,0.0,0.0,0.0,0.0,0.0,0.0,1.3849,1.6601,1.8361,1.8238,1.9373,1.9465,1.779,1.7175,1.5492,1.2318,0.0,0.0,0.0,0.0,0.0,0.0,0.0,0.0,0.0,0.0,0.0,0.0,0.0,0.0,0.0,0.0,0.0,0.0,0.0,0.0,0.0,0.0,0.0,0.0,0.0,0.0,0.0,0.0,0.0,0.0,0.0,0.0,0.0,0.0,0.0,0.0,0.0,0.0,0.0,0.0,0.0,0.0,0.0,0.0,0.0,0.0,0.0,0.0,0.0,0.0,0.0,0.0,0.0,0.0,0.0,0.0,0.0,0.0,0.0,0.0,1.3372,0.0,0.0,0.0,0.0,0.0,0.0,0.0,0.0,0.0,0.0,0.0,0.0,0.0,0.0,0.0,0.0,0.0,0.0,0.0,0.0,0.0,0.0,0.0,0.0,0.0,0.0,0.0,0.0,0.0,0.0,0.0,0.0,0.0,0.0,0.0,0.0,0.0,0.0,0.0,0.0,0.0,1.4112,1.6741,1.8499,1.8514,1.9603,1.9685,1.8047,1.7522,1.6057,1.3206,1.1151,0.0,0.0,0.0,0.0,0.0,0.0,0.0,0.0,0.0,0.0,0.0,0.0,0.0,0.0,0.0,0.0,0.0,0.0,0.0,0.0,0.0,0.0,0.0,0.0,0.0,0.0,0.0,0.0,0.0,0.0,0.0,0.0,0.0,0.0,0.0,0.0,0.0,0.0,0.0,0.0,0.0,0.0,0.0,0.0,0.0,0.0,0.0,0.0,0.0,0.0,0.0,0.0,0.0,0.0,0.0,0.0,0.0,0.0,0.0,0.0,1.6764,0.0,0.0,0.0,0.0,0.0,0.0,0.0,0.0,0.0,0.0,0.0,0.0,0.0,0.0,0.0,0.0,0.0,0.0,0.0,0.0,0.0,0.0,0.0,0.0,0.0,0.0,0.0,0.0,0.0,0.0,0.0,0.0,0.0,0.0,0.0,0.0,0.0,0.0,0.0,0.0,1.4303,1.6907,1.8604,1.865,1.9531,1.9591,1.8346,1.7637,1.6323,1.4164,1.2248,0.0,0.0,0.0,0.0,0.0,0.0,0.0,0.0,0.0,0.0,0.0,0.0,0.0,0.0,0.0,0.0,0.0,0.0,0.0,0.0,0.0,0.0,0.0,0.0,0.0,0.0,0.0,0.0,0.0,0.0,0.0,0.0,0.0,0.0,0.0,0.0,0.0,0.0,0.0,0.0,0.0,0.0,0.0,0.0,0.0,0.0,0.0,0.0,0.0,0.0,0.0,0.0,0.0,2.3491,2.3784,2.4298,2.4354,2.4124,2.3528,2.1117,2.1433,2.3344,2.0298,0.0,0.0,0.0,0.0,0.0,0.0,0.0,0.0,0.0,0.0,0.0,0.0,0.0,0.0,0.0,0.0,0.0,0.0,0.0,0.0,0.0,0.0,0.0,0.0,1.764,1.6811,0.0,0.0,0.0,0.0,0.0,0.0,0.0,0.0,0.0,0.0,0.0,0.0,1.4782,1.7158,1.8708,1.8708,1.9372,1.9405,1.842,1.7604,1.6478,1.4962,1.3336,1.2203,0.0,0.0,0.0,0.0,0.0,0.0,0.0,0.0,0.0,0.0,0.0,0.0,0.0,0.0,0.0,0.0,0.0,0.0,0.0,0.0,0.0,0.0,0.0,0.0,0.0,0.0,0.0,0.0,0.0,0.0,0.0,0.0,1.3156,1.3553,0.0,0.0,0.0,0.0,0.0,0.0,0.0,0.0,0.0,0.0,0.0,0.0,0.0,2.1635,2.1965,2.4674,2.6268,2.6678,2.6678,2.8075,3.061,3.0958,3.1076,3.0991,3.0606,0.0,2.6801,2.3718,0.0,0.0,0.0,0.0,0.0,0.0,0.0,0.0,0.0,0.0,0.0,0.0,0.0,0.0,0.0,0.0,0.0,0.0,0.0,0.0,0.0,0.0,2.1168,2.1097,2.0446,1.9747,0.0,1.77,1.5927,1.4618,1.369,0.0,0.0,0.0,0.0,0.0,0.0,0.0,1.626,1.7801,1.8708,1.8708,1.9372,1.9247,1.7836,1.7458,1.6635,1.5159,1.3545,1.239,1.1799,1.0473,0.0,0.0,0.0,0.0,0.0,0.0,0.0,0.0,0.0,0.0,0.0,0.0,0.0,0.0,0.0,0.0,0.0,0.0,0.0,0.0,0.0,0.0,0.0,0.0,0.0,0.0,0.0,0.0,0.0,1.3075,1.4604,1.7311,1.6884,1.5671,0.0,0.0,0.0,0.0,0.0,0.0,0.0,0.0,0.0,2.0952,2.3916,2.5502,2.5502,2.6847,2.8413,3.0156,3.0156,3.0853,3.2126,3.2319,3.2406,3.2406,3.2406,3.1616,3.0106,2.6964,2.3874,2.1072,0.0,0.0,0.0,0.0,1.9843,2.1083,2.1083,2.1083,0.0,2.3102,0.0,0.0,0.0,0.0,0.0,0.0,0.0,0.0,0.0,0.0,0.0,2.296,2.2587,2.2148,2.1739,2.0846,1.9483,0.0,1.5808,1.4724,1.3682,0.0,0.0,0.0,0.0,1.5308,1.6623,1.8276,1.9167,1.874,1.8993,1.8773,1.7735,1.7194,1.6597,1.5869,1.4668,1.3865,1.3606,1.1904,1.0542,0.0,0.0,0.0,0.0,0.0,0.0,0.0,0.0,0.0,0.0,0.0,0.0,0.0,0.0,0.0,0.0,0.0,0.0,0.0,0.0,0.0,0.0,0.0,0.0,0.0,0.0,0.0,0.0,1.4759,1.7056,2.1978,2.12,1.8889,0.0,0.0,0.0,0.0,0.0,0.0,2.0813,2.3032,2.4283,2.4283,2.7297,2.8895,2.8895,2.8895,3.0071,3.2406,3.2406,3.2406,3.2406,3.2406,3.2406,3.2406,3.2406,3.2406,3.2213,2.986,2.7087,2.4283,2.4283,2.4165,2.4,2.42,2.4283,2.4283,2.4283,2.4283,2.4664,2.6946,0.0,2.7122,2.4037,0.0,0.0,0.0,0.0,2.465,2.3178,2.3629,2.4429,2.4298,2.4199,2.3983,2.3424,2.3013,2.1963,0.0,1.7798,1.6718,1.5991,0.0,0.0,0.0,0.0,1.669,1.7551,1.8938,1.9576,1.8847,1.8769,1.839,1.7537,1.6939,1.6557,1.6423,1.5531,1.4956,1.4827,1.3079,1.1787,1.1063,0.0,0.0,0.0,0.0,0.0,0.0,0.0,0.0,0.0,0.0,0.0,0.0,0.0,0.0,0.0,0.0,0.0,0.0,0.0,0.0,0.0,0.0,0.0,0.0,0.0,0.0,0.0,0.0,0.0,2.6736,2.5998,0.0,0.0,0.0,0.0,2.2651,2.2861,2.4142,2.7069,2.7385,2.7473,2.7473,3.051,3.216,3.216,3.216,3.223,3.2406,3.2406,3.2406,3.2406,3.2406,3.2406,3.2406,3.2406,3.2406,3.2388,3.223,3.0317,2.7473,2.7473,2.7473,2.7458,2.7455,2.7473,2.7473,2.7473,2.7473,2.749,2.7648,2.7701,2.7122,2.4037,2.505,0.0,0.0,2.5439,2.5589,2.4932,2.5091,2.5412,2.533,2.5179,2.5027,2.4994,2.3868,2.2382,0.0,1.9771,1.9031,1.8348,0.0,1.7273,1.7892,1.7977,1.8464,1.9781,1.9964,1.9728,1.9056,1.8933,1.833,1.6961,1.6694,1.6567,1.6501,1.5608,1.4868,1.4361,1.3502,1.2455,1.1215,1.0531,0.0,0.0,0.0,0.0,0.0,0.0,0.0,0.0,0.0,0.0,0.0,0.0,0.0,0.0,0.0,0.0,0.0,0.0,0.0,0.0,0.0,0.0,0.0,0.0,0.0,0.0,0.0,0.0,2.5879,2.6613,0.0,2.319,2.2048,2.2751,2.5823,2.6068,2.6542,2.7631,2.7701,2.8631,3.065,3.1809,3.2406,3.2406,3.2406,3.3389,3.5374,3.5374,3.5374,3.5374,3.5374,3.5374,3.5251,3.3248,3.2406,3.2406,3.2406,3.1739,3.072,3.072,3.072,3.072,3.072,3.072,3.072,3.072,3.072,3.0387,2.8351,2.7701,2.749,2.6402,2.8245,3.0194,2.7613,2.7328,2.7476,2.61,2.6048,2.6319,2.6252,2.6118,2.5881,2.5397,2.4879,2.4163,2.3039,2.1422,2.0169,1.9918,1.926,1.8841,1.9005,1.938,1.9803,2.0236,2.0599,2.0377,1.919,1.8988,1.8385,1.691,1.6691,1.6567,1.6501,1.5705,1.515,1.494,1.3794,1.2972,1.2567,1.1546,1.0528,0.0,0.0,0.0,0.0,0.0,0.0,0.0,0.0,0.0,0.0,0.0,0.0,0.0,0.0,0.0,0.0,0.0,0.0,0.0,0.0,0.0,0.0,0.0,0.0,0.0,0.0,2.48,2.6388,2.7719,2.8105,2.7087,2.6055,2.6511,2.9088,2.9281,2.9281,2.9281,2.9281,3.072,3.3845,3.395,3.395,3.395,3.395,3.4987,3.7007,3.7007,3.7007,3.7007,3.7007,3.7007,3.6884,3.4828,3.395,3.395,3.395,3.395,3.3845,3.2809,3.2406,3.2406,3.2406,3.2406,3.2406,3.2406,3.2406,3.2055,2.9966,2.9281,2.9281,2.9281,3.0492,3.1423,2.9316,2.9014,2.8972,2.7465,2.723,2.728,2.6942,2.6775,2.6539,2.605,2.5746,2.5376,2.4758,2.2927,2.1477,2.1448,2.0837,2.0329,2.0242,2.0628,2.0883,2.0809,2.1141,2.0918,1.9675,1.9233,1.8521,1.7284,1.6818,1.661,1.661,1.5824,1.5292,1.5105,1.4144,1.3428,1.3078,1.1967,1.1132,1.0556,0.0,0.0,0.0,0.0,0.0,0.0,0.0,0.0,0.0,0.0,0.0,0.0,0.0,0.0,0.0,0.0,0.0,0.0,0.0,0.0,0.0,0.0,0.0,2.3212,2.523,2.73,2.8842,2.9737,3.0213,3.0194,3.0176,3.0791,3.2283,3.2406,3.2441,3.2546,3.2546,3.3898,3.6902,3.7007,3.7007,3.7007,3.7007,3.7007,3.7007,3.7007,3.7007,3.7007,3.7007,3.7007,3.7007,3.7009,3.7027,3.7027,3.7029,3.7046,3.6747,3.3723,3.2476,3.2406,3.2406,3.2406,3.2406,3.2406,3.2406,3.2406,3.2406,3.2406,3.2406,3.2406,3.1668,3.086,3.086,3.051,2.9932,2.908,2.866,2.8291,2.7435,2.7119,2.7006,2.7006,2.6441,2.5897,2.5767,2.4316,2.3049,2.2938,2.2293,2.1783,2.1708,2.1693,0.0,2.1603,2.1604,2.1296,2.0487,1.961,1.877,1.7978,1.7098,1.6649,1.6785,1.5994,1.5283,1.4756,1.4518,1.3859,1.2647,1.1841,1.1334,1.1133,0.0,0.0,0.0,0.0,0.0,0.0,0.0,0.0,0.0,0.0,0.0,0.0,0.0,0.0,0.0,0.0,0.0,0.0,0.0,0.0,0.0,2.4844,2.7511,2.5616,2.7999,3.0317,3.1317,3.2616,3.3003,3.1879,3.1774,3.1949,3.2371,3.2406,3.3371,3.562,3.5742,3.6129,3.6972,3.7007,3.7007,3.7007,3.7007,3.7007,3.7007,3.7007,3.7007,3.7007,3.7007,3.7007,3.7027,3.7298,3.7447,3.7448,3.7757,3.7863,3.7721,3.6285,3.4372,3.2406,3.2406,3.2406,3.2406,3.2406,3.2406,3.2406,3.2406,3.2406,3.2406,3.2406,3.2195,3.1949,3.1949,3.144,3.072,2.9934,2.9158,2.851,2.8269,2.7674,2.7151,2.7151,2.6994,2.6825,2.6729,2.5802,2.4613,2.3336,2.2383,2.1781,2.1783,2.1783,0.0,2.1738,2.1738,2.1429,2.0559,1.968,1.884,1.7978,1.7098,1.6649,1.6785,1.6113,1.5659,1.5499,1.4989,1.4236,1.3262,1.251,1.206,0.0,0.0,0.0,0.0,0.0,0.0,0.0,0.0,0.0,0.0,0.0,0.0,0.0,0.0,0.0,0.0,0.0,0.0,0.0,0.0,0.0,0.0,2.9843,3.1423,2.9667,3.0738,3.2107,3.3231,3.4144,3.4355,3.3441,3.3354,3.3617,3.4266,3.4337,3.5128,3.6902,3.7007,3.7007,3.7007,3.7007,3.7007,3.7007,3.7007,3.7007,3.7007,3.7007,3.7007,3.7007,3.7007,3.7007,0.0,3.7595,3.7846,3.7863,3.8106,3.8209,0.0,0.0,0.0,0.0,0.0,3.3808,3.2608,3.2608,3.2608,3.2608,3.2608,3.2608,3.2574,3.244,3.2406,3.2406,3.2406,3.2055,3.1528,3.0756,3.0131,2.9541,2.8879,2.831,2.7815,2.7485,2.7415,2.7384,2.7324,2.6613,0.0,2.4594,2.3293,2.2267,2.189,2.184,2.1825,2.1796,2.1812,2.1573,2.1029,2.0208,1.9348,1.8483,1.7625,0.0,0.0,0.0,1.5875,1.5835,1.5138,0.0,0.0,0.0,0.0,0.0,0.0,0.0,0.0,1.115,1.1146,0.0,0.0,0.0,0.0,0.0,0.0,0.0,0.0,0.0,0.0,0.0,0.0,0.0,0.0,0.0,0.0,3.3634,3.4495,3.4108,3.3318,3.3283,3.4653,3.4898,3.497,3.497,3.497,3.5532,3.6902,3.7007,3.7007,3.7007,0.0,0.0,0.0,0.0,3.7007,3.7007,3.7007,3.7007,3.7007,3.7046,3.7085,3.7085,3.7085,3.7087,3.7182,3.7881,3.8209,3.8209,3.8209,3.8209,3.8192,3.8003,3.7934,3.7934,3.7934,3.6051,3.35,3.35,0.0,0.0,3.3057,3.2916,3.2836,3.2507,3.2493,3.2563,3.244,3.2476,3.2335,3.1528,3.1281,3.0861,2.9474,2.9035,2.8702,2.7982,2.7754,2.7686,2.7615,2.6971,2.638,2.6167,2.4609,2.313,2.2337,2.2124,2.203,2.1973,2.1877,2.1753,2.1619,0.0,0.0,1.9309,1.8499,1.7794,1.7171,1.6508,1.6087,1.6024,1.533,1.5157,1.5592,1.5023,1.4696,1.4648,1.4648,1.4666,1.4677,1.3616,1.3075,0.0,0.0,0.0,0.0,0.0,0.0,0.0,0.0,0.0,0.0,0.0,0.0,0.0,0.0,0.0,3.1563,3.3318,3.4284,3.5021,3.5125,3.5248,3.5547,3.6145,3.6568,3.6568,3.6568,3.6691,3.6989,3.7007,3.7007,3.7007,3.7007,3.7007,3.7007,3.7007,3.7007,3.7007,3.7007,3.7007,3.6989,0.0,0.0,3.7485,3.7485,3.7667,3.7986,3.8123,3.8209,3.8209,3.8209,3.8209,3.8192,3.8158,3.8141,3.8141,3.8141,3.7743,3.7168,3.7168,3.7168,3.6717,3.3962,3.2995,3.2868,3.2622,3.314,0.0,3.2719,3.2879,3.3108,3.2353,3.1686,3.1107,3.0826,2.9808,2.886,2.8702,2.8157,2.7701,2.7686,2.7465,2.7063,2.6454,2.5323,2.4403,2.4192,2.3498,2.3009,2.2934,2.2267,2.1768,2.1694,2.096,2.0395,2.0163,1.941,1.8667,1.8003,1.7337,1.6922,1.6799,1.659,1.6189,1.562,1.5466,1.5659,1.616,1.616,1.6743,1.7754,1.5065,1.4023,0.0,0.0,0.0,0.0,0.0,0.0,0.0,0.0,0.0,0.0,0.0,2.3566,2.4902,0.0,2.9067,3.2801,3.4111,3.4881,3.5511,3.6057,3.641,3.6448,3.6802,3.7048,3.6989,3.7007,3.7068,3.7279,3.7106,3.7007,3.7007,3.7007,3.7007,3.7007,3.7007,3.7007,3.7007,3.7007,3.7007,3.6989,3.7411,3.7721,3.7898,3.7898,3.8021,3.8209,3.8209,3.8209,3.8209,3.8209,3.8209,3.8209,3.8209,3.8209,3.8209,3.8209,3.8209,3.8209,3.8209,3.8209,3.792,3.6212,3.5001,3.4159,3.3959,3.4392,3.4712,3.3617,3.3407,3.3336,3.2599,3.209,3.1703,3.13,3.0334,2.9404,2.8983,2.8263,2.7701,2.7701,2.7659,2.7477,2.7107,2.6606,2.5922,2.4959,2.4013,2.3374,2.33,2.2482,2.1855,2.1753,2.1363,2.0927,2.0479,1.9423,1.864,1.8372,1.764,1.7149,1.7016,1.6943,1.6652,1.6101,1.6465,1.6828,1.7162,1.7494,1.8015,1.8662,1.7051,1.6335,0.0,0.0,0.0,0.0,0.0,0.0,0.0,2.0636,2.1412,2.4301,2.5513,2.6413,2.755,2.8975,3.0929,3.3835,3.4783,3.5303,3.5707,3.6324,3.6749,3.6808,3.7004,3.7127,3.7106,3.7124,3.7241,3.7594,3.726,3.7046,3.7007,3.7007,3.7027,3.7066,3.7126,3.7164,3.7164,3.7164,3.7164,3.7182,3.7485,3.7846,3.8209,3.8209,3.8209,3.8209,3.8209,3.8209,3.8209,3.8209,3.8209,3.8209,3.8209,3.8209,3.8209,3.8209,3.8209,3.8209,3.8209,3.8209,3.8156,3.7959,3.6919,3.5671,3.5308,3.5509,3.5598,3.4376,3.3882,3.3529,3.2634,3.2406,3.223,3.1581,3.0756,2.993,2.9281,2.8386,2.7701,2.7701,2.7701,2.7701,2.7701,2.7701,2.7192,2.5651,2.4494,2.3781,2.3709,2.2755,2.203,2.1899,2.1797,2.1462,2.0812,1.9548,1.8782,1.8732,1.8047,1.7494,1.7197,1.7244,1.7199,1.7004,1.7588,1.7967,1.8109,1.8646,1.8977,1.9119,1.9044,1.8656,2.1985,2.2606,2.3775,2.37,2.3737,2.3999,0.0,2.4875,2.5299,2.7033,2.8542,2.9728,3.0351,3.1099,3.2138,3.3713,3.4128,3.4605,3.5575,3.5734,3.5752,3.5769,3.6656,3.7353,3.7503,3.7522,3.754,3.7613,3.7391,3.7182,3.7007,3.7007,3.7085,3.7259,3.7613,3.7811,3.7811,3.7811,3.7811,3.7811,3.7846,3.7986,3.8209,3.8209,3.8209,3.8209,3.8209,3.8209,3.8209,3.8209,3.8209,3.8209,3.8209,3.8209,3.8209,3.8209,3.8209,3.8209,3.8209,3.8209,3.8048,3.7157,3.6729,3.6391,3.5487,3.5616,3.5757,3.4234,3.42,3.4231,3.2774,3.2406,3.2371,3.2283,3.1159,3.0088,3.0001,2.8772,2.7701,2.7701,2.7701,2.7701,2.7701,2.7701,2.7604,2.7328,2.5938,2.4904,2.4833,2.3369,2.2335,2.2245,2.1974,2.1749,2.1667,2.0965,2.0246,1.9618,1.9312,1.8752,1.7839,1.83,1.8546,1.8471,1.855,1.8899,1.9578,1.9641,1.9988,2.0557,2.0507,1.9605,2.4472,2.5346,2.6591,2.6591,2.7334,2.8133,2.8447,2.8491,2.8913,3.0457,3.1201,3.19,3.3016,3.3262,3.3768,3.5234,3.5455,3.5741,3.6572,3.6326,3.5776,3.4995,3.5704,3.6684,3.7739,3.7828,3.7811,3.7721,3.7576,3.7392,3.7241,3.7201,3.7201,3.7239,3.7558,3.7846,3.8055,3.8072,3.8072,3.8072,3.8072,3.8124,3.8209,3.8209,3.8209,3.8209,3.8209,3.8209,3.8209,3.8209,3.8209,3.8192,3.8105,3.807,3.8088,3.8174,3.8209,3.8209,3.8209,3.8209,3.8121,3.7623,3.7429,3.7307,3.6756,3.6683,3.6464,3.4836,3.4534,3.4337,3.2792,3.2406,3.2406,3.2406,3.123,3.0106,3.0106,2.8842,2.7701,2.7701,2.7701,2.7701,2.7701,2.7701,2.7686,2.7657,2.663,2.5692,2.518,2.4012,2.292,2.2192,2.1998,2.1928,2.1928,2.1292,2.0772,2.0485,1.9832,1.9195,1.8613,1.8786,1.8858,1.8708,1.912,1.9483,1.9815,2.0194,2.0526,2.0794,2.0811,2.038,2.6636,2.7526,2.8509,2.8955,3.0131,3.1218,3.1218,3.1385,3.1832,3.2902,3.2807,3.2943,3.4178,3.3997,3.4247,3.5979,3.6341,3.6666,3.7469,3.6881,3.6039,3.5074,3.5315,3.6115,3.7535,3.7696,3.7752,3.7845,3.7757,3.7613,3.7485,3.7411,3.7372,3.7336,3.7558,3.7828,3.814,3.8174,3.8209,3.8209,3.8209,3.8209,3.8209,3.8209,3.8209,3.8209,3.8209,3.8209,3.8209,3.8209,3.8209,3.8192,3.8053,3.8002,3.7984,3.8037,3.8089,3.8124,3.8124,3.8124,3.8089,3.7967,3.7863,3.7775,3.7595,3.7392,3.6957,3.5522,3.492,3.4389,3.3038,3.2546,3.2406,3.2406,3.1388,3.0404,3.0404,2.9158,2.8035,2.8035,2.7841,2.7701,2.7701,2.7701,2.7701,2.7701,2.7157,2.6385,2.5373,2.4237,2.3151,2.2163,2.2084,2.2101,2.2053,2.1647,2.1291,2.1069,2.0514,1.9956,1.9422,1.9529,1.9491,1.9277,1.9815,2.0083,2.0083,2.0557,2.0794,2.0794,2.0877,2.086,2.8447,2.913,2.9536,3.1099,3.2121,3.2736,3.2724,3.3339,3.3847,3.3716,3.2994,3.2547,3.3051,3.2556,3.2811,3.5069,3.5976,3.6762,3.7825,3.7068,3.6382,3.6346,3.5963,3.5979,0.0,3.6964,3.729,3.7947,3.7933,3.7828,3.7703,3.7631,3.7613,3.7685,3.781,3.7916,3.8001,3.814,3.8209,3.8209,3.8209,3.8209,3.8209,3.8209,3.8209,3.8209,3.8209,3.8209,3.8209,3.8209,3.8209,3.8192,3.8053,3.795,3.7881,3.7757,3.781,3.7899,3.7899,3.7899,3.7881,3.7739,3.7667,3.7577,3.7448,3.7261,3.6949,3.6191,3.5342,3.4495,3.3687,3.295,3.2406,3.2406,3.1756,3.1176,3.1176,2.9948,2.886,2.886,2.8228,2.7701,2.7701,2.7701,2.7701,2.7701,2.7683,2.7104,2.5581,2.3889,2.2672,2.2251,2.2315,2.2346,2.2192,2.2298,2.2021,2.1247,2.1645,2.1396,2.0221,2.0779,2.1007,2.0747,2.0747,2.0763,2.0763,2.0778,2.0794,2.0794,2.0877,2.0974,2.8215,2.9877,3.1319,3.2384,3.3676,3.4546,3.4089,3.4237,3.4142,3.3022,3.2413,3.213,3.2319,3.2483,3.3225,3.5153,3.6217,3.711,3.8015,3.7364,3.6731,3.6552,3.5609,0.0,0.0,0.0,0.0,3.7947,3.7984,3.7933,3.7828,3.7793,3.7793,3.7828,3.8437,3.8526,3.8001,3.8665,3.8734,3.8209,3.8209,3.848,3.9006,3.9006,3.926,3.9695,3.9206,3.9006,3.8952,3.8322,3.8378,3.8849,3.8672,3.8868,3.9151,3.8521,3.8268,3.8178,3.7828,3.7703,3.7685,3.7541,3.7448,3.7372,3.7242,3.7108,3.687,3.6078,3.5303,3.4495,3.3705,3.295,3.2406,3.2406,3.1791,3.1194,3.1194,3.0404,2.9544,2.9,2.8654,2.8257,2.7735,2.76,2.7569,2.7569,2.674,2.5897,2.5335,2.3779,2.2659,2.2426,2.2443,2.246,2.2398,2.2443,2.2341,2.2085,2.2062,2.1763,2.1103,2.1179,2.1119,2.0811,2.0794,2.0794,2.0794,2.0794,2.0794,2.0794,2.0957,2.1054,2.9758,3.1614,3.319,3.3973,3.5168,3.5872,3.4879,3.4699,3.4273,3.2605,3.1386,3.083,3.143,3.1596,3.2317,3.4339,3.5742,3.6852,3.7665,3.7575,3.7357,3.7196,3.6164,3.5983,0.0,0.0,0.0,3.8034,3.8341,3.8487,3.8436,3.8688,3.8815,3.8815,3.9373,3.9426,3.8902,3.9243,3.9006,3.8209,3.8499,3.8915,3.9405,3.9659,4.0057,4.0474,4.0003,3.9786,3.9749,3.912,3.9121,3.9536,3.9334,3.9468,3.9688,3.8809,3.8408,3.8225,3.7695,3.7503,3.7484,3.7392,3.7298,3.7203,3.7127,3.705,3.6902,3.6373,3.5688,3.4916,3.4144,3.3354,3.2739,3.2458,3.2002,3.1616,3.1616,3.1036,3.0334,2.9825,2.9218,2.8629,2.8124,2.7731,2.7496,2.7496,2.6429,2.5523,2.5202,2.3963,2.2992,2.2613,2.2582,2.2582,2.2582,2.2582,2.2582,2.2582,2.2354,2.2056,2.1615,2.1463,2.1182,2.0811,2.0794,2.0794,2.0794,2.0794,2.0794,2.0794,2.0957,2.1054,3.2885,3.4208,3.5074,3.5766,3.651,3.6656,3.5057,3.4717,3.4204,3.2389,3.0053,2.8774,3.0213,2.9848,3.0163,3.2664,3.4622,3.6091,3.6886,3.7701,3.8227,3.8263,3.7557,3.7393,3.8245,0.0,0.0,3.8317,0.0,3.946,3.946,4.013,4.0492,4.0492,4.0528,4.0528,4.0492,3.9804,3.9061,3.8336,3.9079,3.9478,3.9532,4.0256,4.0583,4.0619,4.0583,4.0564,4.0564,4.042,4.0328,4.0216,4.0026,3.9846,3.9593,3.8732,3.8315,3.8078,3.7519,3.7313,3.7278,3.7278,3.7203,3.7089,3.7089,3.7048,3.7007,3.7007,3.6426,3.5634,3.4934,3.4125,3.3318,3.2616,3.2423,3.2406,3.2406,3.1791,3.1264,3.1211,2.99,2.8786,2.8771,2.8047,2.7481,2.7481,2.6792,2.5984,2.5253,2.4414,2.3594,2.285,2.2716,2.2699,2.2699,2.2699,2.2699,2.2699,2.2565,2.2304,2.1842,2.1615,2.1292,2.0827,2.0827,2.0811,2.0811,2.0811,2.0811,2.0794,2.0877,2.099,3.3638,3.524,3.639,3.6548,3.6647,3.6327,3.4821,3.4099,3.2944,3.0097,2.8484,2.75,2.7248,2.796,2.9195,3.1099,3.3882,3.6091,3.6886,3.7701,3.8426,3.9024,3.839,3.8444,3.9786,3.9423,0.0,0.0,4.0111,4.022,4.022,4.0383,4.0492,4.0492,4.1071,4.1107,4.051,4.0311,4.013,3.993,4.013,4.0546,4.1107,4.1307,4.1723,4.2248,4.1595,4.1323,4.1269,4.0487,4.0444,4.0865,4.0762,4.0917,4.1135,4.0317,3.9581,3.8883,3.8154,3.7541,3.7085,3.7085,3.7048,3.7029,3.7029,3.7009,3.7007,3.7007,3.6426,3.5757,3.5583,3.4511,3.3459,3.3248,3.2792,3.2406,3.2406,3.223,3.1914,3.1317,2.9853,2.8679,2.8533,2.7845,2.736,2.736,2.7156,2.6757,2.6019,2.4683,2.3746,2.3543,2.3026,2.2699,2.2699,2.2699,2.2699,2.2699,2.2565,2.2329,2.1955,2.1794,2.154,2.1183,2.1119,2.1071,2.1023,2.0926,2.0844,2.0794,2.0877,2.1212,3.5152,3.6664,3.763,3.7126,3.6955,3.6399,3.4495,3.3212,3.162,2.8717,2.6861,2.5687,2.5512,2.6475,2.795,2.9948,3.281,3.5181,3.6309,3.75,3.8532,3.9314,3.9278,3.955,4.042,4.0456,4.0582,0.0,4.1035,4.1035,4.1035,4.1361,4.1542,4.1542,4.1995,4.185,4.1035,4.1035,4.0854,4.0492,4.0854,4.1252,4.1705,4.2085,4.2466,4.2864,0.0,4.2097,4.1985,4.1341,4.1214,4.1446,4.1378,4.1495,4.1626,4.0852,4.0246,3.9708,3.8918,3.8128,3.7446,3.7112,3.7007,3.7007,3.7007,3.7007,3.7007,3.7007,3.6673,3.625,3.588,3.5161,3.4336,3.367,3.3178,3.2792,3.2476,3.2406,3.2143,3.1234,3.0296,2.9363,2.8539,2.8058,2.7661,2.7351,2.7299,2.7142,2.6738,2.5604,2.4681,2.4353,2.3646,2.3181,2.3181,2.2888,2.2699,2.2699,2.2592,2.2565,2.2613,2.2515,2.2471,2.2473,2.2426,2.2313,2.2149,2.2017,2.1866,2.1728,2.1763,2.2003,3.7001,3.8132,3.8619,3.7643,3.7231,3.6413,3.3899,3.1999,3.0063,2.7571,2.5179,2.3679,2.4257,2.5093,2.6458,2.8756,3.1524,3.3909,3.545,3.7219,3.8634,3.9493,4.022,4.0691,4.08,4.1451,4.185,4.185,4.185,4.185,4.185,4.252,4.2901,4.2901,4.2901,4.2556,4.1868,4.185,4.1506,4.0836,4.1524,4.185,4.1868,4.2556,4.29,4.2881,4.2803,0.0,4.255,4.2348,4.2124,4.1892,4.1823,4.1714,4.1516,4.0889,4.059,4.0397,3.9708,3.8866,3.7988,3.7358,3.7077,3.7007,3.7007,3.7007,3.7007,3.7007,3.7007,3.6849,3.6145,3.588,3.5459,3.4125,3.3634,3.3301,3.2669,3.2424,3.2091,3.122,3.0907,3.0352,2.8937,2.861,2.8299,2.7558,2.7437,2.7402,2.7299,2.6609,2.5853,2.5212,2.4422,2.3957,2.3957,2.3371,2.3009,2.3009,2.2942,2.3106,2.3566,2.3511,2.3663,2.4046,2.3999,2.3803,2.3533,2.3378,2.3184,2.2898,2.2898,2.2946,3.836,3.8906,3.8929,3.8098,3.6801,3.5068,3.26,3.0226,2.7848,2.5289,2.3288,2.199,2.2055,2.3184,2.4683,2.6501,3.009,3.3232,3.4844,3.7022,3.8998,4.0392,4.1125,4.1741,4.2411,4.2611,0.0,0.0,4.2683,4.2683,4.2683,4.2829,4.2901,4.2901,4.2901,4.2828,4.2683,4.2683,4.2611,4.2502,4.2629,4.2683,4.2683,4.2788,4.2822,4.2803,4.2625,0.0,4.2348,4.2187,4.1998,4.1823,4.1801,4.1714,4.1587,4.1464,4.1007,4.0485,4.0344,3.9322,3.8093,3.7953,3.7496,3.7007,3.7007,3.7007,3.7007,3.7007,3.7007,3.6972,3.6831,3.6303,3.5722,3.5459,3.4404,3.3386,3.3246,3.2668,3.2073,3.1775,3.1219,3.0699,3.0352,2.9748,2.9058,2.8316,2.8213,2.7989,2.7368,2.6609,2.6042,2.5919,2.5232,2.4784,2.4784,2.4678,2.4609,2.4609,2.4537,2.4518,2.455,2.4443,2.4386,2.4397,2.4288,2.4032,2.3669,2.3532,2.3271,2.2898,2.2898,2.3196,3.878,3.9175,3.9003,3.7734,3.6479,3.4784,3.1808,2.9191,2.6638,2.4071,2.2164,2.0934,2.0843,2.1744,2.3187,2.5235,2.8075,3.0819,3.3176,3.5662,3.7942,3.9851,4.1089,4.2086,4.2829,4.2957,4.2975,4.2919,4.2957,4.2975,4.2901,4.2901,4.2901,4.2901,4.2901,4.2901,4.2901,4.2901,4.2901,4.2901,4.2901,4.2901,4.29,4.2823,4.2764,4.2668,4.2488,0.0,4.2082,4.1977,4.1845,4.1692,4.1692,4.1648,4.1604,4.1604,4.1376,4.106,4.106,4.0042,3.8725,3.8725,3.7935,3.7007,3.7007,3.7007,3.7007,3.7007,3.7007,3.7007,3.7007,3.6707,3.632,3.5897,3.4598,3.3353,3.2967,3.2564,3.2249,3.2232,3.1865,3.1446,3.1028,3.0611,3.0056,2.9259,2.8742,2.8313,2.7919,2.7195,2.6713,2.6713,2.604,2.5574,2.5574,2.5229,2.5005,2.5005,2.4976,2.5104,2.5453,2.5407,2.5565,2.5945,2.5789,2.5463,2.4957,2.4815,2.4491,2.3989,2.3989,2.4163,3.8687,3.9144,3.8994,3.7355,3.6196,3.4565,3.1134,2.8122,2.5337,2.2914,2.1059,1.9835,1.9731,2.0499,2.1909,2.4162,2.6162,2.8504,3.157,3.436,3.6942,3.9199,4.0923,4.2214,4.2922,4.3087,0.0,4.2995,4.3087,0.0,4.2938,4.2919,4.2901,4.2938,4.2901,4.2901,4.2938,4.2901,4.2901,4.2901,4.2901,4.2901,4.29,4.2823,4.2745,4.2629,4.245,0.0,0.0,4.1956,4.1866,4.1758,4.1714,4.1692,4.167,4.1648,4.1626,4.1604,4.1626,4.0752,3.9596,3.942,3.8292,3.7007,3.7007,3.7007,3.7007,3.7007,3.7007,3.7007,3.7007,3.7007,3.6742,3.5736,3.4617,3.3512,3.2581,3.2422,3.2456,3.2557,3.2471,3.2209,3.1644,3.1474,3.1128,3.0223,2.9481,2.8914,2.8678,2.8127,2.7713,2.754,2.6833,2.6368,2.6368,2.5833,2.5488,2.5488,2.5488,2.5747,2.6318,2.6368,2.6661,2.7297,2.7106,2.6725,2.6157,2.601,2.5621,2.5064,2.5025,2.5005,3.8126,3.8775,3.9038,3.7476,3.5886,3.3819,3.0373,2.6451,2.3013,2.1189,1.9378,1.8125,1.8117,1.9377,2.0971,2.2715,2.5032,2.7724,3.093,3.4123,3.6997,3.939,4.1109,4.2389,4.3194,4.3267,4.3286,4.3267,4.3267,0.0,4.3104,4.2975,4.2975,4.3086,4.2957,4.2957,4.3086,4.2957,4.2901,4.2901,4.2901,4.2901,4.29,4.2823,4.2783,4.2764,4.2629,0.0,0.0,4.2351,4.231,4.2225,4.2103,4.1977,4.187,4.1801,4.1692,4.1626,4.1736,4.1297,4.0551,3.9805,3.8413,3.7007,3.7007,3.7007,3.7007,3.7007,3.7007,3.7007,3.7007,3.7007,3.658,3.4917,3.4576,3.4161,3.2634,3.2437,3.2621,3.2749,3.2747,3.2729,3.2658,3.2546,3.2152,3.1211,3.0851,3.0386,2.9506,2.9351,2.9041,2.8368,2.7627,2.7178,2.7178,2.7126,2.7092,2.7092,2.7092,2.7109,2.7178,2.7178,2.7213,2.7299,2.7106,2.6792,2.6383,2.6118,2.5735,2.5275,2.5146,2.5048,3.7219,3.7661,3.7579,3.5998,3.4347,3.2204,2.8764,2.5103,2.1918,2.0134,1.839,1.7327,1.7809,1.8425,1.9394,2.1025,2.2966,2.5207,2.7863,3.1071,3.4025,3.6355,3.8577,4.0414,0.0,0.0,4.2913,4.344,4.3511,0.0,4.341,4.3232,4.316,4.3214,4.316,4.316,4.3214,4.3123,4.3031,4.2901,4.2901,4.2901,4.2901,4.2862,4.2861,4.2861,4.2805,0.0,0.0,4.2637,4.2635,4.2596,4.2496,4.2315,4.2068,4.2019,4.1823,4.1626,4.1805,4.1484,4.0938,4.0695,3.946,3.7957,3.7344,3.7182,3.7201,3.7222,3.7241,3.7241,3.7241,3.7203,3.6861,3.5637,3.5151,3.4641,3.356,3.3106,3.2961,3.3132,3.3162,3.3162,3.3162,3.3024,3.2743,3.2296,3.1674,3.1088,3.0591,3.0071,2.9604,2.9276,2.8468,2.7782,2.7333,2.7299,2.7299,2.7299,2.7299,2.7299,2.7299,2.7299,2.7299,2.7299,2.7153,2.6908,2.6573,2.6349,2.5957,2.5422,2.5323,2.5166,3.5936,3.6594,3.6611,3.4982,3.3299,3.1158,2.7755,2.4133,2.0978,1.9201,1.7515,1.6595,1.74,1.7744,1.8425,2.0047,2.1689,2.349,2.5563,2.87,3.156,3.3673,3.6228,3.8452,4.003,4.1532,4.2799,4.3689,4.3793,0.0,4.3744,4.3594,4.3494,4.339,4.3408,4.3408,4.339,4.3322,4.3178,4.2994,4.2994,4.2994,4.2994,4.3013,4.3032,4.3032,4.305,0.0,0.0,4.3014,4.3014,4.2996,4.2902,4.2673,4.2398,4.229,4.2061,4.1845,4.204,4.1915,4.1615,4.1457,4.0631,3.9443,3.8256,3.7644,3.7374,3.7485,3.7523,3.7541,3.7504,3.7467,3.7234,3.6361,3.5865,3.5344,3.4372,3.3851,3.3602,3.3531,3.3524,3.3524,3.3524,3.3375,3.3193,3.3039,3.2416,3.1904,3.1709,3.1102,3.0566,3.024,2.957,2.8814,2.8006,2.7937,2.7851,2.7627,2.7627,2.7627,2.7627,2.7627,2.773,2.7937,2.7615,2.7331,2.7114,2.6673,2.6191,2.567,2.5551,2.5432,3.4267,3.575,3.6599,3.4907,3.3186,3.1017,2.7668,2.36,2.0042,1.836,1.6678,1.5766,1.6566,1.7364,1.8425,2.0047,2.1658,2.3242,2.4791,2.7791,3.044,3.212,3.4621,3.6876,3.8551,4.1123,4.3067,4.402,0.0,0.0,4.4091,4.4091,4.3936,4.3614,4.3662,4.3662,4.3614,4.3531,4.341,4.3196,4.3196,4.3196,4.3214,4.3268,4.3303,0.0,0.0,0.0,0.0,4.3479,4.3479,4.3462,4.3268,4.3068,4.2863,4.267,4.247,4.2328,4.253,4.2728,4.2737,4.1959,4.1687,4.1379,3.9767,3.8456,3.7542,3.7739,3.7843,3.7877,3.7809,3.7809,3.7576,3.6699,3.6639,3.6356,3.4826,3.4651,3.4593,3.3927,3.3807,3.3807,3.3807,3.3684,3.353,3.3321,3.3169,3.3016,3.2811,3.2651,3.2221,3.1281,3.1009,3.049,2.9558,2.9489,2.9179,2.8437,2.8385,2.8385,2.8385,2.8385,2.873,2.9472,2.8698,2.8219,2.8084,2.708,2.6418,2.6104,2.5813,2.5863,3.1077,3.1969,3.242,3.0752,2.9017,2.714,2.4872,2.1549,1.8599,1.7417,1.588,1.5157,1.6514,1.6987,1.7678,1.9297,2.0898,2.2498,2.4091,2.7093,2.9713,3.1354,3.4908,3.8124,0.0,0.0,4.3359,4.4181,0.0,0.0,4.4237,4.4306,4.4248,4.3952,4.3952,4.3952,4.3936,4.3876,4.373,4.3528,4.3528,4.3528,4.3546,4.3666,4.3716,0.0,0.0,0.0,0.0,4.3846,4.3846,4.383,4.3716,4.3495,4.3231,4.3124,4.2884,4.2674,4.292,4.3105,4.3212,4.3044,4.2604,4.2021,4.1559,4.0157,3.8651,3.8315,3.8234,3.8218,3.8051,3.8017,3.7946,3.7658,3.729,3.6878,3.643,3.5571,3.4814,3.4642,3.4192,3.3807,3.3807,3.3726,3.3629,3.353,3.343,3.3327,3.3223,3.3006,3.2695,3.222,3.1933,3.1185,2.9627,2.9506,2.9403,2.9179,2.9161,2.9161,2.9161,2.9161,2.9265,2.9506,2.9248,2.911,2.9059,2.8682,2.8301,2.787,2.7325,2.734,2.8521,2.9092,2.9167,2.7789,2.6371,2.4857,2.3134,2.0389,1.7955,1.706,1.5594,1.4977,1.6588,1.6881,1.7394,1.9013,2.0651,2.2273,2.3895,2.6921,2.991,3.2436,3.5693,0.0,0.0,4.2337,4.3474,4.4298,0.0,0.0,4.4387,4.4458,4.4426,4.4262,4.4244,4.4233,4.4173,4.4128,4.402,4.3812,4.3812,4.3812,4.3828,4.3894,4.3945,0.0,0.0,0.0,0.0,4.4005,4.4005,4.3989,4.3929,4.3765,4.3528,4.3442,4.3285,4.3087,4.3286,4.3443,4.3545,4.3649,4.3096,4.2417,4.2415,4.1095,3.9469,3.8808,3.8618,3.8588,3.8415,3.8348,3.8366,3.8318,3.802,3.763,3.7366,3.6549,3.571,3.51,3.4601,3.4174,3.3844,3.3766,3.3726,3.3684,3.3629,3.3605,3.3549,3.3331,3.3039,3.2702,3.2403,3.1725,3.0455,3.0368,3.0248,2.9972,2.9955,2.9955,2.9955,2.9955,3.0075,3.0368,3.0093,2.9955,2.9955,2.9558,2.9139,2.8738,2.8471,2.8469,0.0,2.6885,2.6802,2.587,2.4981,2.3899,2.2285,1.9944,0.0,1.7168,1.574,1.5099,1.6706,1.7057,1.7636,1.925,2.0957,2.2656,2.4264,2.7411,3.1057,3.5086,3.6968,0.0,4.05,4.21,4.3437,0.0,0.0,0.0,4.4501,4.4501,4.4501,4.4501,4.4501,4.443,4.43,4.43,4.4207,4.402,4.402,4.402,4.402,4.402,4.402,0.0,0.0,0.0,0.0,4.4005,4.4005,4.3989,4.3929,4.3867,4.3804,4.3664,4.358,4.3531,4.3614,4.3699,4.382,4.382,4.3319,4.2673,4.2548,4.1385,3.9959,3.9275,3.9048,3.895,3.8837,3.8807,3.8777,3.8704,3.8707,3.8505,3.7749,3.7547,3.7052,3.5481,3.5078,3.4766,3.4009,3.3844,3.3807,3.3807,3.3807,3.3807,3.3807,3.3577,3.3256,3.2876,3.252,3.2197,3.1838,3.1818,3.1507,3.0817,3.0783,3.0783,3.0783,3.0783,3.1093,3.1783,3.1145,3.0783,3.0783,2.99,2.9309,2.9001,2.9365,2.9362,2.2349,0.0,2.4944,2.351,2.2896,2.2406,0.0,1.9197,1.7294,1.7127,1.5798,1.5167,1.6775,1.7628,1.8606,2.0214,2.2386,2.4455,2.607,3.0222,3.4364,3.7801,3.8689,3.992,4.2193,4.2922,4.3572,0.0,0.0,4.4501,4.4501,4.4501,4.4501,4.4501,4.444,4.4397,4.4368,4.4368,4.4344,4.424,4.424,4.424,4.424,4.424,4.4211,0.0,0.0,0.0,4.4005,4.4005,4.4005,4.4005,4.3974,4.3958,4.3942,4.3926,4.391,4.3876,4.3892,4.3926,4.3942,4.3942,4.3831,4.3553,4.2863,4.148,4.0145,3.9974,3.9431,3.8892,3.8822,3.8747,3.8719,3.8707,3.8707,3.8652,3.8469,3.7933,3.7382,3.6997,3.5881,3.4949,3.4747,3.4211,3.3807,3.3807,3.3807,3.3807,3.3807,3.3619,3.3357,3.3065,3.2718,3.2404,3.2055,3.1892,3.1731,3.1541,3.1541,3.1541,3.1541,3.1541,3.161,3.18,3.1627,3.1541,3.1541,3.1315,3.112,3.0936,3.0784,3.0576,2.0539,2.1703,2.2698,2.1459,2.1376,2.1386,2.0574,1.9008,1.7732,1.7732,1.6761,1.6388,1.8031,1.9033,2.0129,2.1767,2.4121,2.6718,2.9502,3.3164,3.6509,3.9018,4.0074,4.1255,0.0,4.3572,4.4026,0.0,0.0,4.4487,4.4473,4.444,4.4444,4.4416,4.4373,4.4368,4.4397,4.4368,4.4344,4.43,4.43,4.43,4.43,4.4274,4.4244,0.0,0.0,0.0,4.4005,4.4005,4.4005,4.4005,4.4005,4.4005,4.4005,4.4005,4.4005,4.4005,4.4005,4.4005,4.4005,4.4005,4.3974,4.3868,4.3394,4.2051,4.0633,4.0263,3.9808,3.9357,3.8914,3.8762,3.8735,3.8707,3.8707,3.8707,3.8707,3.8358,3.7951,3.7566,3.6762,3.5885,3.5133,3.4637,3.4215,3.3862,3.3807,3.3807,3.3807,3.3643,3.3444,3.3217,3.2928,3.2589,3.2214,3.2037,3.191,3.1818,3.18,3.18,3.18,3.18,3.18,3.18,3.18,3.18,3.18,3.18,3.1727,3.1598,3.1389,3.1157,2.0145,2.0671,2.1166,2.022,2.069,2.1166,2.037,1.9507,1.8887,1.8887,1.8131,1.7999,1.967,2.0652,2.1785,2.3588,2.6293,2.9476,3.325,3.5803,3.7955,3.9758,4.1173,0.0,4.3388,4.4102,0.0,0.0,0.0,4.4473,4.4397,4.4383,4.4373,4.43,4.4285,4.4314,4.4368,4.4314,4.427,4.4237,4.4237,4.4237,4.4255,4.4199,4.4169,4.415,0.0,0.0,4.4005,4.4005,4.4005,4.4005,4.4005,4.4005,4.4005,4.4005,4.4005,4.4005,4.4005,4.4005,4.4005,4.3989,4.3961,4.3881,4.3865,4.2728,4.1295,4.0486,4.008,3.973,3.8988,3.8792,3.8762,3.8704,3.8707,3.8707,3.8707,3.8707,3.8505,3.7823,3.7584,3.7015,3.5463,3.5206,3.4912,3.4119,3.41,3.4174,3.4174,3.3959,3.3727,3.3546,3.317,3.277,3.2386,3.2197,3.2036,3.1818,3.18,3.18,3.18,3.18,3.18,3.18,3.18,3.18,3.18,3.18,3.1727,3.1617,3.1576,3.1385,2.0652,2.1936,2.2743,2.1203,2.1973,2.2912,2.2098,2.1234,2.0621,2.0621,1.9394,1.8831,2.0508,2.1516,2.2867,2.523,2.9457,3.3175,3.524,3.7024,3.8995,4.1347,0.0,4.2605,4.4163,4.4426,0.0,0.0,0.0,4.4411,4.4397,4.4358,4.4314,4.43,4.4244,4.4214,4.4229,4.4214,4.4165,4.4051,4.4051,4.4051,4.4051,4.4036,4.402,4.402,0.0,4.4005,4.4005,4.4005,4.4005,4.4005,4.4005,4.4005,4.4005,4.4005,4.4005,4.4005,4.4005,4.4005,4.3989,4.3945,4.3897,4.3865,4.3701,4.2986,4.2051,4.1179,4.0013,3.8969,3.8825,3.8765,3.8704,3.8707,3.8707,3.8707,3.8707,3.8707,3.867,3.8542,3.797,3.7199,3.6266,3.6101,3.5807,3.4949,3.544,3.5917,3.5917,3.5205,3.4676,3.4575,3.3665,3.293,3.2571,3.2336,3.2073,3.1818,3.18,3.18,3.18,3.18,3.18,3.18,3.18,3.18,3.18,3.18,3.18,3.1781,3.1763,3.167,2.0258,2.1241,2.2086,2.1779,2.3288,2.4621,2.3787,2.3299,2.2999,2.2999,2.2041,2.171,2.3382,2.4377,2.6191,3.003,3.2555,3.462,3.631,3.7962,3.9596,0.0,0.0,4.3168,4.4327,0.0,0.0,0.0,0.0,0.0,4.4285,4.4255,4.4211,4.4147,4.4101,4.4085,4.4085,4.4085,4.407,4.4005,4.4005,4.4005,4.4005,4.4005,4.4005,4.4005,0.0,4.4005,4.4005,4.4005,4.4005,4.4005,4.4005,4.4005,4.4005,4.4005,4.4005,4.4005,4.4005,4.3974,4.3945,4.3913,4.3832,4.3734,4.3615,4.2995,4.2171,4.1332,4.0281,3.9283,3.886,3.8719,3.8707,3.8707,3.8707,3.8707,3.8707,3.8707,3.8707,3.8707,3.8395,3.7753,3.6505,3.6666,3.6505,3.5206,3.5752,3.6303,3.6303,3.5907,3.5457,3.4956,3.4697,3.4231,3.3428,3.3072,3.258,3.1836,3.18,3.18,3.18,3.18,3.18,3.18,3.18,3.18,3.18,3.18,3.18,3.18,3.2214,3.2347,2.0026,2.0521,2.1297,2.2548,2.4433,2.5831,2.5158,2.5308,2.5507,2.5319,2.4801,2.4828,2.6293,2.7542,2.972,3.3907,3.4932,3.5702,3.7167,3.8669,3.9965,4.0966,4.2192,4.3347,4.4303,0.0,0.0,0.0,0.0,0.0,4.4199,4.4169,4.4119,4.4005,4.4005,4.4005,4.4005,4.4005,4.4005,4.4005,4.4005,4.4005,4.4005,4.4005,4.4005,4.4005,4.4005,4.4005,4.4005,4.4005,4.4005,4.4005,4.4005,4.4005,4.4005,4.3974,4.3974,4.3974,4.3961,4.3913,4.3883,4.3832,4.3734,4.3599,4.3582,4.2979,4.2176,4.1535,4.0799,3.9955,3.8964,3.8707,3.8707,3.8707,3.8707,3.8707,3.8707,3.8707,3.8707,3.8707,3.8707,3.8248,3.6817,3.7254,3.7276,3.5811,3.6321,3.6853,3.6853,3.6674,3.6259,3.5589,3.5651,3.5305,3.4212,3.3829,3.3258,3.2388,3.199,3.18,3.18,3.18,3.18,3.18,3.18,3.1886,3.2059,3.2059,3.2145,3.2352,3.2921,3.3158,2.0708,2.0959,2.1579,2.3938,2.5278,2.5981,2.5925,2.7054,2.7928,2.7167,2.6979,2.7204,2.8078,3.0161,3.2367,3.4282,3.5908,3.7223,3.8094,0.0,4.019,4.1723,4.197,4.2636,0.0,0.0,0.0,0.0,0.0,0.0,4.4199,4.407,4.4005,4.4005,4.4005,4.4005,4.4005,4.4005,4.4005,4.4005,4.4005,4.4005,4.4005,4.4005,4.4005,4.4005,4.4005,4.4005,4.4005,4.4005,4.4005,4.4005,4.4005,4.4005,4.3989,4.3929,4.3897,4.3915,4.3853,4.3804,4.3788,4.3667,4.3599,4.3582,4.3532,4.2945,4.2286,4.2231,4.1644,4.0655,3.9111,3.8707,3.8707,3.8707,3.8707,3.8707,3.8707,3.8707,3.8707,3.8707,3.8707,3.8432,3.7566,3.8083,3.8322,3.7456,3.801,3.8542,3.8542,3.7769,3.718,3.7049,3.6132,3.522,3.4528,3.4206,3.4012,3.3941,3.2576,3.18,3.18,3.18,3.18,3.18,3.18,3.2145,3.2817,3.2817,3.3197,3.3941,3.3992,3.4007,2.0314,2.0258,2.0727,2.2717,2.4621,2.6255,2.7261,2.8387,2.927,2.9448,2.9504,2.9579,2.9899,3.1569,3.3456,3.5146,3.6359,3.758,3.8932,3.9821,4.0559,4.1121,4.2093,4.2913,0.0,0.0,0.0,0.0,0.0,0.0,4.3345,4.3277,4.302,4.2519,4.25,4.25,4.25,4.3002,4.3243,4.3262,4.3763,4.4005,4.4005,4.4005,4.4005,4.4005,4.4005,4.4005,4.4005,4.4005,4.4005,4.4005,4.4005,4.3974,4.3945,4.3913,4.3883,4.3818,4.3804,4.3754,4.3667,4.3634,4.3565,4.3531,4.3515,4.3277,4.2928,4.2433,4.2084,4.1589,4.0471,3.9827,3.9441,3.9441,3.9056,3.8707,3.8707,3.8707,3.8707,3.8707,3.8707,3.8432,3.7639,3.8175,3.8432,3.7621,3.8175,3.8707,3.8707,3.8272,3.7744,3.7073,3.6183,3.5504,3.5144,3.4906,3.4576,3.413,3.3561,3.3214,3.3214,3.3214,3.3214,3.3214,3.3214,3.3352,3.3645,3.3645,3.3783,3.4113,3.4559,3.4766,2.0408,1.9989,2.0327,2.2511,2.4332,2.6161,2.8322,2.9664,3.0603,3.1156,3.1494,3.1682,3.1682,3.2826,3.4339,3.601,3.6753,3.7692,3.9364,4.0052,4.0477,4.0669,4.1664,0.0,0.0,0.0,0.0,0.0,0.0,0.0,0.0,4.2407,4.2166,4.1609,4.159,4.159,4.159,4.2147,4.2556,4.2816,4.3355,4.3745,4.4005,4.4005,4.4005,4.4005,4.4005,4.4005,4.4005,4.4005,4.4005,4.4005,4.3974,4.3945,4.3881,4.3832,4.3786,4.3736,4.3703,4.3652,4.3565,4.3565,4.3549,4.3515,4.3515,4.3515,4.3404,4.2818,4.2671,4.2543,4.2011,4.0873,3.99,3.99,3.9294,3.8707,3.8707,3.8707,3.8707,3.8707,3.8707,3.8524,3.7955,3.834,3.8505,3.797,3.834,3.8707,3.8707,3.8546,3.8067,3.7105,3.6466,3.6046,3.5904,3.5682,3.5318,3.4818,3.4783,3.4596,3.413,3.4113,3.4113,3.4113,3.4113,3.4217,3.4458,3.4458,3.4579,3.48,3.5301,3.5542,2.1241,2.0427,2.0627,2.3893,2.4718,2.5609,2.895,3.0941,3.2105,3.2123,3.2818,3.3408,3.3408,3.4076,3.5176,3.6828,3.711,3.7692,3.9364,3.9546,3.9795,4.0594,4.0578,0.0,0.0,0.0,0.0,0.0,0.0,0.0,0.0,4.159,4.1571,4.1571,4.1571,4.1571,4.1571,4.1571,4.198,4.2779,4.2779,4.3206,4.4005,4.4005,4.4005,4.4005,4.4005,4.4005,4.4005,4.4005,4.4005,4.3989,4.3929,4.3897,4.3865,4.3666,4.3599,4.3582,4.3513,4.3515,4.3515,4.3515,4.3515,4.3515,4.3515,4.3515,4.3515,4.3515,4.3515,4.3515,4.3515,4.1717,3.9918,3.99,3.9294,3.8707,3.8707,3.8707,3.8707,3.8707,3.8707,3.8707,3.8707,3.8707,3.8707,3.8707,3.8707,3.8707,3.8707,3.8578,3.8152,3.7301,3.7069,3.6908,3.6722,3.6444,3.6301,3.6301,3.6301,3.5628,3.4182,3.413,3.413,3.413,3.413,3.4473,3.5197,3.5197,3.5576,3.6301,3.6301,3.6301,2.1241,2.1691,2.2774,2.4313,2.6013,2.7872,3.0049,3.1354,3.2611,3.4395,3.4977,3.5165,3.5165,3.5822,3.6528,3.7016,3.7568,3.8326,3.9383,3.9508,3.9531,3.9632,0.0,0.0,0.0,0.0,0.0,0.0,0.0,0.0,0.0,4.0754,4.0457,3.9863,3.9844,3.9844,3.9844,4.0438,4.0866,4.1107,4.1683,4.2667,4.4005,4.4005,4.4005,4.4005,4.4005,4.4005,4.4005,4.4005,4.3974,4.3929,4.3897,4.3816,4.3682,4.3615,4.3565,4.3532,4.3515,4.3515,4.3515,4.3515,4.3515,4.3515,4.3515,4.3515,4.3515,4.3515,4.3515,4.3515,4.3515,4.2543,4.146,4.0891,4.0139,3.9386,3.8817,3.8707,3.8707,3.8707,3.8707,3.8707,3.8707,3.8707,3.8707,3.8707,3.8707,3.8707,3.8707,3.8417,3.7931,3.7147,3.6733,3.6468,3.6423,3.636,3.6301,3.6301,3.6301,3.6094,3.5663,3.5645,3.5645,3.5645,3.5645,3.5749,3.5973,3.5973,3.6094,3.6301,3.6301,3.6301,2.2048,2.3213,2.4847,2.6322,2.8284,3.048,3.2837,3.3494,3.4132,3.5991,3.6385,3.6385,3.6385,3.6772,3.7204,3.7512,3.7957,3.854,3.9383,3.9425,3.9341,3.921,0.0,0.0,0.0,0.0,0.0,0.0,0.0,0.0,0.0,3.9881,3.964,3.912,3.9101,3.9101,3.9101,3.9621,4.0062,4.0416,4.0899,4.1794,4.3058,4.3373,4.3522,4.354,4.3856,4.4005,4.4005,4.3974,4.3945,4.3881,4.3816,4.3718,4.3599,4.3565,4.3531,4.3515,4.3515,4.3515,4.3515,4.3515,4.3515,4.3515,4.3515,4.3515,4.3515,4.3515,4.3515,4.3515,4.3515,4.313,4.2561,4.1772,4.0965,4.0249,3.9772,3.9405,3.9184,3.9184,3.8927,3.8707,3.8707,3.8707,3.8707,3.8707,3.8707,3.8707,3.8707,3.8483,3.7931,3.6834,3.6468,3.6301,3.6301,3.6301,3.6301,3.6301,3.6301,3.6301,3.6301,3.6301,3.6301,3.6301,3.6301,3.6301,3.6301,3.6301,3.6301,3.6301,3.6301,3.6301,2.3156,2.4715,2.6668,2.8988,3.0959,3.3175,3.6472,3.6629,3.6329,3.7073,3.7223,3.7242,3.7305,3.7324,3.7568,3.8276,3.8352,3.8584,3.9357,3.9328,3.9197,3.9183,0.0,0.0,0.0,0.0,0.0,0.0,0.0,0.0,0.0,3.9101,3.9101,3.9101,3.9101,3.9101,3.9101,3.9101,3.9491,4.0285,4.0285,4.0661,4.1404,4.2296,4.2723,4.2835,4.3652,4.4005,4.3989,4.3929,4.3881,4.3849,4.3666,4.3599,4.3582,4.3513,4.3515,4.3515,4.3515,4.3515,4.3515,4.3515,4.3515,4.3515,4.3515,4.3515,4.3515,4.3515,4.3515,4.3515,4.3515,4.3515,4.3331,4.258,4.1791,4.1187,4.1113,4.0487,3.9937,3.9937,3.9276,3.8726,3.8836,3.8762,3.8707,3.8707,3.8707,3.8676,3.8596,3.8564,3.7983,3.6471,3.6301,3.6301,3.6301,3.6301,3.6301,3.6301,3.6301,3.6301,3.6301,3.6301,3.6301,3.6301,3.6301,3.6301,3.6301,3.6301,3.6301,3.6301,3.6301,3.6301,2.2154,2.4707,2.7223,2.8397,3.1391,3.4752,3.7437,3.7906,3.7831,3.8019,3.8037,3.8232,3.8865,3.8977,3.9021,3.9138,3.915,3.918,3.9264,3.9242,3.9183,0.0,0.0,0.0,0.0,0.0,0.0,0.0,0.0,0.0,3.9101,3.9101,3.9101,3.9101,3.9101,3.9101,3.9101,3.9101,3.9194,0.0,3.938,3.9472,3.9695,4.1181,4.2203,4.2835,4.3652,4.3958,4.3913,4.3915,4.3816,4.3649,4.3615,4.3565,4.3513,4.3515,4.3515,4.3515,4.3515,4.3515,4.3515,4.3515,4.3515,4.3515,4.3515,4.3515,4.3515,4.3515,4.3515,4.3515,4.3515,4.3515,4.346,4.3277,4.2635,4.1882,4.1242,4.0618,4.0212,4.0212,3.9405,3.8982,3.9811,3.9258,3.8707,3.8707,3.8707,3.8501,3.7915,3.7559,3.7091,3.6385,3.6301,3.6301,3.6301,3.6301,3.6301,3.6301,3.6301,3.6301,3.6301,3.6301,3.6301,3.6301,3.6301,3.6301,3.6301,3.6301,3.6301,3.6301,3.6301,3.6301,2.2192,2.4989,2.7862,3.0678,3.3607,3.6235,3.7889,3.8571,3.8858,3.8833,3.8846,3.9008,3.9433,3.9469,3.9444,3.9405,3.9346,3.9288,3.921,3.917,3.9142,0.0,0.0,0.0,0.0,0.0,0.0,0.0,0.0,3.9101,3.9101,3.9101,3.9101,3.9101,3.9101,3.9101,3.9101,3.9101,3.9101,3.9101,3.9101,3.9101,3.9138,4.0438,4.146,4.224,4.2622,4.3002,4.3307,4.3225,4.3349,4.3599,4.3565,4.3513,4.3515,4.3515,4.3515,4.3515,4.3515,4.3515,4.3515,4.3515,4.3515,4.3515,4.3515,4.3515,4.3515,4.3515,4.3515,4.3515,4.3515,4.3515,4.3515,4.3515,4.3167,4.2763,4.2341,4.2029,4.1827,4.1827,4.0139,3.9129,4.0453,3.9588,3.8707,3.8707,3.9682,4.011,3.9288,3.8992,3.8221,3.6477,3.6301,3.6301,3.6301,3.6301,3.6301,3.6301,3.6301,3.6301,3.6301,3.6301,3.6301,3.6301,3.6301,3.6301,3.6301,3.6301,3.6301,3.6301,3.6301,3.6301,2.2199,2.5297,2.8744,3.3419,3.5747,3.7113,3.799,3.8765,3.9301,3.938,3.9444,3.9469,3.9438,3.9399,3.936,3.9346,3.9261,3.9183,3.9183,3.9129,3.9101,0.0,0.0,0.0,0.0,0.0,0.0,0.0,0.0,3.9101,3.9101,3.9101,3.9101,3.9101,3.9101,3.9101,3.9101,3.9101,3.9101,3.9101,3.9101,3.9101,3.912,3.983,4.061,4.1371,4.1464,4.1937,4.263,4.2465,4.2862,4.3565,4.3513,4.3515,4.3515,4.3515,4.3515,4.3515,4.3515,4.3515,4.3515,4.3515,4.3515,4.3515,4.3515,4.3515,4.3515,4.3515,4.3515,4.3515,4.3515,4.3515,4.3515,4.3515,4.3515,4.3515,4.3515,4.3515,4.3515,4.3515,4.1232,3.9743,4.1076,4.0317,3.9486,3.9339,4.0957,4.187,4.1012,4.0912,3.9928,3.737,3.7077,3.7077,3.7077,3.7077,3.7077,3.7077,3.6594,3.6301,3.6301,3.6301,3.6301,3.6301,3.6301,3.6301,3.6301,3.6301,3.6301,3.6301,3.6301,3.6301,2.064,2.5278,3.0208,3.3719,3.53,3.6361,3.7859,3.824,3.8502,3.9255,3.9405,3.9373,3.9269,3.9224,3.9215,3.9142,3.9129,3.9115,3.9115,3.9115,3.9101,0.0,0.0,0.0,0.0,0.0,0.0,0.0,3.9101,3.9101,3.9101,3.9101,3.9101,3.9101,3.9101,3.9101,3.9101,3.9101,3.9101,3.9101,3.9101,3.9101,3.9101,3.9161,3.9618,4.0433,4.1174,4.1875,4.2433,4.2417,4.2846,4.3496,4.3496,4.3515,4.3515,4.3515,4.3515,4.3515,4.3515,4.3515,4.3515,4.3515,4.3515,4.3515,4.3515,4.3515,4.3515,4.3515,4.3515,4.3515,4.3515,4.3515,4.3515,4.3515,4.3515,4.3515,4.3515,4.3515,4.3515,4.3515,4.2575,4.1877,4.2092,4.2541,4.2629,4.1923,4.1753,4.1515,4.0965,4.0912,4.0739,4.0342,4.029,4.029,4.029,4.029,4.029,4.029,3.7767,3.6301,3.6301,3.6301,3.6301,3.6301,3.6301,3.6301,3.6301,3.6301,3.6301,3.6301,3.6301,3.6301,2.1292,2.5233,2.9036,3.2323,3.4087,3.5448,3.7057,3.7741,3.8262,3.9061,3.9229,3.9229,3.9197,3.917,3.9129,3.9101,3.9101,3.9101,3.9101,3.9101,3.9101,0.0,0.0,0.0,0.0,0.0,0.0,0.0,3.9101,3.9101,3.9101,3.9101,3.9101,3.9101,3.9101,3.9101,3.9101,3.9101,3.9101,3.9101,3.9101,3.9101,3.9101,3.9036,3.9197,3.9548,3.9863,4.0655,4.1719,4.1689,4.2393,4.3515,4.3515,4.3515,4.3515,4.3515,4.3515,4.3515,4.3515,4.3515,4.3515,4.3515,4.3515,4.3515,4.3515,4.3515,4.3515,4.3515,4.3515,4.3515,4.3515,4.3515,4.3515,4.3515,4.3515,4.3515,4.3515,4.3515,4.3196,4.2221,4.177,4.152,4.152,4.1817,4.1906,4.1569,4.134,4.1129,4.0935,4.0912,4.0912,4.0912,4.0912,4.0912,4.0912,4.0912,4.0912,4.0912,3.9635,3.8893,3.8893,3.8893,3.806,3.6335,3.6301,3.6301,3.6301,3.6301,3.6301,3.6301,3.6301,3.6301,2.1643,2.4743,2.7493,3.0392,3.2307,3.3968,3.5795,3.6652,3.7396,3.8557,3.8804,3.8873,3.9132,3.9129,3.9101,3.9101,3.9101,3.9101,3.9101,3.9101,3.9101,0.0,0.0,0.0,0.0,0.0,0.0,0.0,3.9101,3.9101,3.9101,3.9101,3.9101,3.9101,3.9101,3.9101,3.9101,3.9101,3.9101,3.9101,3.9101,3.9101,3.9101,3.9036,3.8993,3.8979,3.8866,3.9602,4.0896,4.1036,4.1937,4.3222,4.3423,4.3515,4.3515,4.3515,4.3515,4.3515,4.3515,4.3515,4.3515,4.3515,4.3515,4.3515,4.3515,4.3515,4.3515,4.3515,4.3515,4.3515,4.3515,4.3515,4.3515,4.3515,4.3515,4.3515,4.3515,4.341,4.2865,4.1209,4.0912,4.0942,4.1059,4.0965,4.0912,4.0912,4.0912,4.0912,4.0912,4.0912,4.0912,4.0912,4.0912,4.0912,4.0912,4.0912,4.0912,4.0912,4.0912,4.0912,4.0912,4.0912,3.9825,3.7508,3.7456,3.7077,3.6301,3.6301,3.6301,3.6301,3.6301,3.6301,2.0547,2.3438,2.6393,2.8237,2.9842,3.1628,3.405,3.4538,3.515,3.748,3.7949,3.8191,3.8952,3.9101,3.9101,3.9101,3.9101,3.9101,3.9101,3.9101,3.9101,0.0,0.0,0.0,0.0,0.0,0.0,0.0,3.9101,3.9101,3.9101,3.9101,3.9101,3.9101,3.9101,3.9101,3.9101,3.9101,3.9101,3.9101,3.9101,3.9101,3.9101,3.9036,3.8993,3.8979,3.8866,3.924,4.0026,4.0799,4.159,4.2433,4.3185,4.3515,4.3515,4.3515,4.3515,4.3515,4.3515,4.3515,4.3515,4.3515,4.3515,4.3515,4.3515,4.3515,4.3515,4.3515,4.3515,4.3515,4.3515,4.3515,4.3515,4.3515,4.3515,4.3515,4.3515,4.3214,4.2536,4.1157,4.0912,4.1035,4.1493,4.1198,4.0912,4.0912,4.0912,4.0912,4.0912,4.0912,4.0912,4.0912,4.0912,4.0912,4.0912,4.0912,4.0912,4.0912,4.0912,4.0912,4.0912,4.0912,4.0825,4.067,4.067,3.9221,3.6301,3.6301,3.6301,3.6301,3.6301,3.6301,1.8782,2.0917,2.3217,2.5437,2.7228,2.9073,3.1553,3.2843,3.4206,3.6638,3.7541,3.8154,3.8952,3.9101,3.9101,3.9101,3.9101,3.9101,3.9101,3.9101,3.9101,0.0,0.0,0.0,0.0,0.0,0.0,0.0,0.0,3.9101,3.9101,3.9101,3.9101,3.9101,3.9101,3.9101,3.9101,3.9101,3.9101,3.9101,3.9101,3.9101,3.9101,3.9036,3.895,3.8848,3.8664,3.9126,3.9963,4.0228,4.1111,4.2323,4.2616,4.3039,4.3515,4.3515,4.3515,4.3515,4.3515,4.3515,4.3515,4.3515,4.3515,4.3515,4.3515,4.3515,4.3515,4.3515,4.3515,4.3515,4.3515,4.3304,4.3105,4.3105,4.3105,4.3196,4.3444,4.3178,4.2516,4.1157,4.1152,4.1403,4.156,4.1471,4.1244,4.0959,4.0912,4.0912,4.0912,4.0912,4.0912,4.0912,4.0912,4.0912,4.0912,4.0912,4.0912,4.0912,4.0912,4.0912,4.0912,4.0912,4.0912,4.0912,4.0912,4.0359,3.9255,3.9255,3.9255,3.9238,3.8232,3.8301,1.7523,1.9154,2.102,2.3266,2.5046,2.6921,2.941,3.0949,3.2616,3.5318,3.6532,3.7411,3.8488,3.8915,3.9101,3.9101,3.9101,3.9101,3.9101,3.9101,3.9101,0.0,0.0,0.0,0.0,0.0,0.0,0.0,0.0,0.0,3.9101,3.9101,3.9101,3.9101,3.9101,3.9101,3.9101,3.9073,3.9059,3.9059,3.9059,3.9059,3.9059,3.9021,3.8939,3.8792,3.8507,3.8967,3.9884,4.0111,4.1027,4.229,4.2581,4.302,4.3497,4.348,4.348,4.3497,4.348,4.348,4.3497,4.3463,4.3463,4.3463,4.3427,4.3462,4.3515,4.3515,4.3582,4.3649,4.3513,4.2976,4.2456,4.2456,4.2456,4.2536,4.2789,4.2787,4.2394,4.134,4.138,4.1604,4.1604,4.1604,4.1493,4.1175,4.1129,4.1129,4.1129,4.1129,4.1129,4.1129,4.1129,4.1129,4.1129,4.1129,4.1129,4.1129,4.1129,4.1129,4.1129,4.1129,4.1129,4.1129,4.0965,4.0912,4.0912,4.0912,4.0912,4.0877,3.9859,3.9928,0.0,0.0,0.0,2.1722,2.3323,2.5147,2.764,2.8782,3.0238,3.3466,3.4829,3.5943,3.7559,3.8525,3.9064,3.9064,3.9082,3.9101,3.9101,3.9101,3.9101,0.0,0.0,0.0,0.0,0.0,0.0,0.0,3.9101,3.9101,3.9101,3.9101,3.9101,3.9101,3.9101,3.9101,3.9101,3.9036,3.9011,3.8979,3.8979,3.8979,3.8979,3.8979,3.8925,3.8762,3.836,3.8738,3.9679,4.0425,4.1332,4.2278,4.315,4.3496,4.3497,4.3411,4.3446,4.3497,4.3411,4.3446,4.348,4.3411,4.3394,4.3358,4.3304,4.3375,4.3479,4.3479,4.3732,4.391,4.3531,4.2536,4.1604,4.1604,4.1604,4.1604,4.1604,4.1973,4.2124,4.1692,4.1604,4.1604,4.1604,4.1604,4.1604,4.1604,4.1604,4.1604,4.1604,4.1604,4.1604,4.1604,4.1604,4.1604,4.1604,4.1604,4.1604,4.1604,4.1604,4.1604,4.1604,4.1604,4.1604,4.1604,4.1152,4.0894,4.0912,4.0912,4.0912,4.0912,4.0912,4.0912,1.6966,0.0,0.0,0.0,0.0,0.0,0.0,2.5798,2.8494,3.1672,3.3482,3.4994,3.6644,3.7622,3.8173,3.8228,3.8711,3.9101,3.9101,3.9101,0.0,0.0,0.0,0.0,0.0,0.0,0.0,0.0,3.9101,3.9101,3.9101,3.9101,3.9101,3.9101,3.9101,3.9073,3.9021,3.895,3.8892,3.8866,3.8866,3.8822,3.878,3.8837,3.8649,3.8283,3.8118,3.8777,3.995,3.9836,4.0715,4.2186,4.266,4.3152,4.3566,4.334,4.334,4.3411,4.3305,4.3322,4.3411,4.3286,4.3087,4.2881,4.2863,4.2957,4.3068,4.3068,4.3339,4.339,4.2378,4.1852,4.1604,4.1604,4.1604,4.1604,4.1604,4.1714,4.1758,4.1626,4.1604,4.1604,4.1604,4.1604,4.1604,4.1604,4.1604,4.1604,4.1604,4.1604,4.1604,4.1604,4.1604,4.1604,4.1604,4.1604,4.1604,4.1604,4.1604,4.1604,4.1604,4.1604,4.1604,4.1604,4.1471,4.1244,4.0912,4.0912,4.0912,4.0912,4.0912,4.0912,1.79,1.8377,1.8758,1.8707,0.0,0.0,2.1876,2.4008,2.6626,0.0,3.1406,3.3075,3.4747,3.5742,3.6305,3.6352,3.7039,3.7949,3.8952,3.9101,3.9087,0.0,0.0,0.0,0.0,3.9021,3.9036,3.9064,3.9064,3.9064,3.9064,3.9064,3.9064,3.9064,3.9087,3.9059,3.8993,3.8833,3.8698,3.8637,3.8491,3.8412,3.8366,3.8412,3.8232,3.7914,3.7739,3.8507,3.9859,3.9624,4.0709,4.2539,4.2868,4.316,4.341,4.316,4.3123,4.3178,4.3105,4.3142,4.3178,4.3105,4.2881,4.2631,4.2492,4.2492,4.2552,4.2394,4.2536,4.2555,4.1805,4.1604,4.1604,4.1604,4.1604,4.1604,4.1604,4.1604,4.1604,4.1604,4.1604,4.1604,4.1604,4.1604,4.1604,4.1604,4.1604,4.1604,4.1604,4.1604,4.1604,4.1604,4.1604,4.1604,4.1604,4.1604,4.1604,4.1604,4.1604,4.1604,4.1604,4.1604,4.1604,4.1604,4.1604,4.1471,4.1198,4.1006,4.0912,4.0912,4.0912,4.0989,1.9571,1.9737,1.9834,2.0585,2.0722,0.0,2.1535,2.2903,2.4691,0.0,2.8864,3.0457,3.2056,3.3124,3.3778,3.3783,3.4575,3.6055,3.8488,3.8915,3.8929,0.0,0.0,0.0,3.8781,3.8855,3.8939,3.8979,3.8993,3.9011,3.8979,3.8979,3.8979,3.8979,3.9064,3.9031,3.895,3.8634,3.843,3.8334,3.8032,3.7877,3.786,3.7877,3.7809,3.7631,3.7445,3.8198,3.9595,3.9773,4.1093,4.3049,4.3304,4.3304,4.3123,4.2901,4.2825,4.2844,4.2825,4.2825,4.2844,4.2825,4.2709,4.249,4.216,4.2034,4.1991,4.1692,4.1604,4.1604,4.1604,4.1604,4.1604,4.1604,4.1604,4.1604,4.1604,4.1604,4.1604,4.1604,4.1604,4.1604,4.1604,4.1604,4.1604,4.1604,4.1604,4.1604,4.1604,4.1604,4.1604,4.1604,4.1604,4.1604,4.1604,4.1604,4.1604,4.1604,4.1604,4.1604,4.1604,4.1604,4.1604,4.1604,4.1604,4.1604,4.1604,4.1175,4.0965,4.0965,4.0965,4.1198,2.2078,2.183,2.1213,2.0688,0.0,0.0,1.9931,2.1101,2.2785,0.0,2.6232,2.7669,2.8691,3.0067,3.1075,3.1127,3.2427,3.4297,3.6816,3.7673,3.8058,0.0,0.0,0.0,3.8005,3.8522,3.8939,3.8979,3.8993,3.8983,3.8921,3.8925,3.8925,3.8925,3.8921,3.8833,3.8603,3.838,3.8186,3.8003,3.7827,3.7703,3.7649,3.7703,3.7613,3.7408,3.7935,3.8691,3.9585,4.0354,4.1399,4.2555,4.2828,4.2865,4.2769,4.2458,4.2398,4.2496,4.2378,4.2398,4.2496,4.2378,4.2274,4.2124,4.1801,4.1692,4.1692,4.1626,4.1604,4.1604,4.1604,4.1604,4.1604,4.1604,4.1604,4.1604,4.1604,4.1604,4.1604,4.1604,4.1604,4.1604,4.1604,4.1604,4.1604,4.1604,4.1604,4.1604,4.1604,4.1604,4.1604,4.1604,4.1604,4.1604,4.1604,4.1604,4.1604,4.1604,4.1604,4.1604,4.1604,4.1604,4.1604,4.1604,4.1604,4.1604,4.1604,4.1515,4.1471,4.1471,4.1471,4.1515,2.3992,2.3518,2.274,2.1907,0.0,0.0,0.0,2.0262,2.162,2.3272,2.4557,2.5788,2.7074,2.7969,2.8533,2.8587,2.9643,3.1182,3.3259,3.5629,3.729,0.0,0.0,0.0,3.8203,3.8203,3.8413,3.8873,3.891,3.8881,3.8792,3.8716,3.8618,3.8554,3.8525,3.8412,3.8198,3.7964,3.7774,3.7649,3.7466,3.7318,3.7298,3.7336,3.7491,3.7725,3.8095,3.8921,4.0025,4.0521,4.1209,4.2065,4.2536,4.2614,4.2474,4.2234,4.2169,4.2205,4.2169,4.2169,4.2187,4.2169,4.2065,4.1909,4.167,4.1604,4.1604,4.1604,4.1604,4.1604,4.1604,4.1604,4.1604,4.1604,4.1604,4.1604,4.1604,4.1604,4.1604,4.1604,4.2851,4.388,4.388,4.388,4.388,4.388,4.388,4.388,4.388,4.388,4.388,4.388,4.388,4.3266,4.1745,4.1604,4.1604,4.1604,4.1604,4.1604,4.1604,4.1604,4.1604,4.1604,4.1604,4.1604,4.1604,4.1604,4.1604,4.1604,4.1604,4.1604,0.0,2.5348,2.4586,0.0,0.0,2.0943,0.0,0.0,0.0,2.2492,2.3419,0.0,0.0,0.0,0.0,0.0,0.0,0.0,0.0,3.2674,0.0,0.0,0.0,0.0,3.8157,3.7786,3.7739,3.828,3.8446,3.8511,3.8423,3.8376,3.8302,3.8168,3.8066,3.7982,3.7843,3.7614,3.7432,3.7338,3.7126,3.7007,3.7007,3.7148,3.7532,3.8128,3.8427,3.9287,4.052,4.066,4.106,4.1648,4.2187,4.2308,4.2163,4.204,4.197,4.1923,4.1995,4.197,4.1923,4.1995,4.1892,4.1736,4.1626,4.1604,4.1604,4.1604,4.1604,4.1604,4.1604,4.1604,4.1604,4.1604,4.1604,4.1604,4.1604,4.2078,4.25,4.25,4.4495,4.6196,4.6196,4.6196,4.6196,4.6196,4.6196,4.6196,4.6196,4.6196,4.6196,4.6196,4.6196,4.4951,4.1868,4.1604,4.1604,4.1604,4.1604,4.1604,4.1604,4.1604,4.1604,4.1604,4.1604,4.1604,4.1604,4.1604,4.1604,4.1604,4.1604,4.1604,0.0,0.0,0.0,0.0,2.487,0.0,0.0,0.0,2.1702,2.1904,0.0,0.0,0.0,0.0,0.0,0.0,0.0,0.0,2.5937,2.8213,3.098,3.4042,0.0,0.0,0.0,3.7202,3.7308,3.6644,3.725,3.7561,3.7374,3.7855,3.8085,3.8035,3.7897,3.7774,3.7649,3.7486,3.7319,3.7129,3.7048,3.7007,3.7025,3.7672,3.8023,3.8181,3.9624,4.0327,4.0555,4.12,4.1516,4.1604,4.1692,4.1714,4.1692,4.167,4.1648,4.1648,4.1648,4.1648,4.1648,4.1648,4.1648,4.1626,4.1604,4.1604,4.1604,4.1604,4.1604,4.1604,4.1604,4.1604,4.1604,4.1604,4.1604,4.1604,4.1604,4.374,4.5688,4.5688,4.5968,4.6196,4.6196,4.6196,4.6196,4.6196,4.6196,4.6196,4.6196,4.6196,4.6196,4.6196,4.6196,4.4951,4.1868,4.1604,4.1604,4.1604,4.1604,4.1604,4.1604,4.1604,4.1604,4.1604,4.1604,4.1604,4.1604,4.1604,4.1604,4.1604,4.1604,4.1604,0.0,0.0,0.0,0.0,0.0,0.0,2.2099,0.0,2.2051,0.0,0.0,0.0,0.0,0.0,0.0,0.0,2.3878,0.0,0.0,0.0,2.7071,0.0,0.0,0.0,0.0,0.0,0.0,0.0,3.508,3.552,3.6295,3.7213,3.7667,3.7595,3.743,3.7299,3.7241,3.7203,3.7145,3.7048,3.7009,3.7218,3.7637,3.797,3.8602,3.9515,4.0221,4.0748,4.1148,4.1464,4.1604,4.1604,4.1604,4.1604,4.1604,4.1604,4.1604,4.1604,4.1604,4.1604,4.1604,4.1604,4.1604,4.1604,4.1604,4.1604,4.1604,4.1604,4.1604,4.1604,4.1604,4.1604,4.1604,4.1604,4.1604,4.1604,4.1604,4.4021,4.6196,4.6196,4.6196,4.6196,4.6196,4.6196,4.6196,4.6196,4.6196,4.6196,4.6196,4.6196,4.6196,4.6196,4.6196,4.4951,4.1868,4.1604,4.1604,4.1604,4.1604,4.1604,4.1604,4.1604,4.1604,4.1604,4.1604,4.1604,4.1604,4.1604,4.1604,4.1604,4.1604,4.1604,3.1397,0.0,0.0,0.0,0.0,0.0,0.0,0.0,0.0,0.0,0.0,0.0,0.0,0.0,0.0,2.4043,0.0,2.2841,0.0,0.0,0.0,0.0,0.0,0.0,0.0,0.0,0.0,0.0,0.0,3.4057,3.5512,3.6506,3.7105,3.7241,3.7085,3.7007,3.7007,3.7007,3.7007,3.7007,3.7007,3.7393,3.8111,3.8339,3.9182,4.052,4.0713,4.1095,4.1604,4.1604,4.1604,4.1604,4.1604,4.1604,4.1604,4.1604,4.1604,4.1604,4.1604,4.1604,4.1604,4.1604,4.1604,4.1604,4.1604,4.1604,4.1604,4.1604,4.1604,4.1604,4.1604,4.1604,4.1604,4.1604,4.2254,4.2868,4.2868,4.4617,4.6196,4.6196,4.6196,4.6196,4.6196,4.6196,4.6196,4.6196,4.6196,4.6196,4.6196,4.6196,4.6196,4.6196,4.5442,4.4021,4.1797,4.1604,4.1604,4.1604,4.1604,4.1604,4.1604,4.1604,4.1604,4.1604,4.1604,4.1604,4.1604,4.1604,4.1604,4.1604,4.1604,4.1604,0.0,0.0,0.0,2.902,0.0,0.0,0.0,0.0,2.5222,0.0,0.0,0.0,0.0,0.0,2.4879,2.3299,2.3024,0.0,0.0,0.0,0.0,0.0,0.0,0.0,0.0,0.0,0.0,0.0,0.0,0.0,3.5232,3.5847,3.6445,3.7091,3.7048,3.7007,3.7007,3.7007,3.7007,3.7007,3.7007,3.7393,3.8128,3.8918,3.9708,4.0537,4.1253,4.1587,4.1604,4.1604,4.1604,4.1604,4.1604,4.1604,4.1604,4.1604,4.1604,4.1604,4.1604,4.1604,4.1604,4.1604,4.1604,4.1604,4.1604,4.1604,4.1604,4.1604,4.1604,4.1604,4.1604,4.1604,4.1604,4.1604,4.3863,4.6056,4.6056,4.6126,4.6196,4.6196,4.6196,4.6196,4.6196,4.6196,4.6196,4.6196,4.6196,4.6196,4.6196,4.6196,4.6196,4.6196,4.3535,4.171,4.1604,4.1604,4.1604,4.1604,4.1604,4.1604,4.1604,4.1604,4.1604,4.1604,4.1604,4.1604,4.1604,4.1604,4.1604,4.1604,4.1604,4.1604,0.0,0.0,3.1682,2.9613,0.0,0.0,0.0,0.0,0.0,0.0,0.0,0.0,0.0,2.8415,2.6997,2.5376,2.3787,2.2161,0.0,0.0,0.0,0.0,0.0,0.0,0.0,0.0,0.0,0.0,2.9197,0.0,0.0,3.4853,3.5748,3.6993,3.7009,3.7007,3.7007,3.7007,3.7007,3.7007,3.7007,3.7654,3.8898,3.9178,4.0024,4.1236,4.1499,4.1604,4.1604,4.1604,4.1604,4.1604,4.1604,4.1604,4.1604,4.1604,4.1604,4.1604,4.1604,4.1604,4.1604,4.1604,4.1604,4.1604,4.1604,4.1604,4.1604,4.1604,4.1604,4.1604,4.1604,4.1604,4.1604,4.1604,4.3951,4.6196,4.6196,4.6196,4.6196,4.6196,4.6196,4.6196,4.6196,4.6196,4.6196,4.6196,4.6196,4.6196,4.6196,4.6196,4.6196,4.6196,4.5267,4.381,4.178,4.3459,4.3758,4.1727,4.1604,4.1604,4.1604,4.1604,4.1604,4.1604,4.1604,4.1604,4.1604,4.1604,4.1604,4.1604,4.1604,4.1604,3.4393,3.3579,0.0,3.0731,2.96,0.0,2.7131,0.0,0.0,0.0,0.0,0.0,0.0,0.0,2.8236,2.6668,2.4192,2.182,0.0,1.9533,0.0,0.0,0.0,0.0,0.0,0.0,2.7543,2.7939,2.7567,0.0,0.0,0.0,3.4582,3.6129,3.6708,3.7007,3.7007,3.7271,3.7393,3.7393,3.7393,3.8199,3.9726,3.9445,4.0147,4.1604,4.1604,4.1604,4.1604,4.1604,4.1604,4.1604,4.1604,4.1604,4.1604,4.1604,4.1604,4.1604,4.1604,4.1604,4.1604,4.1604,4.1604,4.1604,4.1604,4.1604,4.1604,4.1604,4.1604,4.1604,4.1604,4.1604,4.1604,4.1604,4.3951,4.6196,4.6196,4.6196,4.6196,4.6196,4.6196,4.6196,4.6196,4.6196,4.6196,4.6196,4.6196,4.6196,4.6196,4.6196,4.6196,4.6196,4.6196,4.5407,4.3389,4.5056,4.5354,4.3354,4.2219,4.1604,4.1604,4.1604,4.1604,4.1604,4.1604,4.1604,4.1604,4.1604,4.1604,4.1604,4.1604,4.1604]}]]